GFSMA_prec_cloud_003.txt.gz
Cloud_Cover
9 23 77 100 38 98 3 0 2 5 3 5 5 5 5 98 71 100 100 100 100 100 85 29 8 7 5 5 32 86 100 100 100 100 100 100 92 97 87 72 18 26 62
52 44 42 47 89 18 0 0 4 5 5 12 5 5 49 38 37 63 98 94 94 100 100 100 100 100 100 100 97 100 95 100 100 100 100 100 100 99 100 44 57 5 15
100 100 96 82 5 4 5 5 5 5 5 5 5 0 0 0 0 0 0 0 4 5 5 5 6 37 100 96 85 6 5 8 35 100 100 100 100 99 18 100 68 100 43
100 79 10 5 5 5 5 8 5 5 5 5 5 5 5 4 0 0 0 0 0 0 0 0 0 1 4 4 4 5 5 5 5 15 40 64 51 76 27 37 38 2 5
90 82 89 68 5 54 59 56 71 22 5 4 5 1 2 0 0 0 0 0 0 0 0 0 0 0 0 0 0 0 0 0 0 0 3 5 5 4 5 5 4 2 5
5 5 14 21 5 5 5 5 1 2 1 0 0 0 0 0 0 0 0 1 0 4 5 5 5 5 5 4 2 0 0 0 0 0 4 0 0 0 0 0 0 3 4
16 3 5 5 2 0 0 4 0 0 0 0 0 0 0 0 5 5 5 1 0 0 0 0 1 0 0 0 0 0 0 0 0 0 0 0 0 3 2 0 1 5 0
2 0 0 0 0 0 0 0 0 0 0 0 0 0 0 0 0 0 0 0 0 0 0 0 0 0 0 0 0 0 0 0 0 0 1 5 5 5 5 5 5 5 4
0 0 0 0 0 0 0 0 0 0 0 0 0 0 0 0 0 0 0 0 0 0 0 0 0 0 0 0 0 0 0 0 0 5 5 5 5 5 5 4 2 4 5
0 0 0 0 0 0 0 0 0 0 0 0 0 0 0 0 0 0 0 5 2 0 3 4 5 5 5 0 0 0 0 0 0 5 5 5 5 5 5 5 2 0 5
0 0 0 0 0 0 0 0 0 0 0 0 0 0 0 0 0 0 0 0 0 4 5 5 5 5 5 3 0 0 0 0 0 0 5 5 5 4 2 6 21 5 5
0 0 0 0 0 0 0 3 0 0 0 0 0 0 0 0 0 0 0 0 0 0 0 1 4 4 4 0 0 0 0 0 5 5 5 5 19 96 84 98 83 38 54
0 0 5 0 0 0 5 4 0 0 0 0 0 0 0 0 0 0 0 0 0 0 0 0 0 0 0 0 0 0 0 0 1 5 5 19 33 94 91 80 100 94 98
0 0 0 0 5 5 3 0 0 0 0 3 5 0 0 0 0 0 0 0 0 0 0 0 0 0 0 0 2 0 0 0 5 5 10 69 90 94 93 100 100 100 100
0 0 1 5 1 0 0 0 3 5 5 5 5 5 5 0 0 0 0 0 3 6 7 4 3 5 5 2 2 5 2 1 17 100 100 100 100 98 100 100 100 100 100
0 5 5 0 4 0 2 5 5 5 5 5 4 2 0 0 0 0 0 0 0 5 68 5 5 5 5 5 3 4 2 9 84 100 100 100 100 100 100 100 100 100 100
5 5 3 1 2 5 5 5 5 5 5 5 5 0 0 0 0 0 0 0 4 5 47 5 5 5 5 5 5 5 98 100 99 12 49 23 100 100 100 100 100 100 100
57 1 1 4 5 5 5 5 5 5 5 5 5 3 0 0 0 0 0 0 5 5 91 95 5 4 4 5 5 5 76 81 5 2 5 100 100 100 100 100 100 100 100
0 1 5 5 5 5 5 5 5 5 5 5 3 0 0 0 0 0 3 5 5 93 95 43 11 5 6 5 19 99 10 0 1 4 4 6 100 100 100 100 100 100 100
5 5 5 6 16 5 5 5 5 5 5 3 0 0 0 0 0 5 5 40 89 31 5 33 89 67 5 72 74 23 2 5 5 5 74 52 66 71 44 100 100 100 100
5 5 65 84 13 5 5 5 5 5 5 0 2 0 0 0 5 23 100 61 59 63 84 100 92 99 89 6 5 5 61 58 76 27 55 5 70 29 15 11 8 18 100
99 81 6 4 5 5 62 11 5 5 5 0 0 0 0 0 0 3 5 14 100 100 100 100 100 63 5 5 34 100 100 100 98 100 100 77 53 69 64 5 32 100 100
76 5 5 5 57 46 5 5 5 5 0 0 0 0 0 0 2 5 3 21 100 100 100 100 91 6 95 91 100 93 100 100 100 100 98 100 51 5 5 5 14 91 100
5 5 5 78 46 5 5 5 5 5 0 2 0 0 2 4 5 86 98 65 5 5 1 3 88 88 100 100 100 100 100 100 100 100 100 100 58 96 58 5 8 38 99
5 29 93 10 5 5 5 0 5 5 5 5 0 5 14 60 37 100 100 78 5 4 2 45 96 78 21 44 100 100 100 100 100 100 100 100 98 97 100 24 5 6 100
100 67 67 26 5 3 5 4 5 5 5 5 21 17 5 75 100 100 100 96 34 5 98 82 5 6 62 85 100 100 100 100 100 100 100 100 100 98 100 24 5 5 7

GFSMA_prec_cloud_006.txt.gz
Cloud_Cover
7 13 100 100 94 40 4 1 1 0 0 0 3 5 5 5 5 5 0 0 0 3 7 30 8 75 69 99 98 71 100 100 100 82 58 98 100 100 100 100 100 100 100
93 98 100 94 64 39 3 4 3 0 5 0 1 5 5 5 6 5 5 5 0 0 0 0 0 0 4 5 9 23 82 71 57 100 100 100 100 100 100 100 100 100 100
100 100 70 89 34 5 5 8 5 5 5 2 0 0 1 0 0 0 0 0 0 0 0 0 0 0 0 0 0 0 1 5 5 5 7 58 99 8 76 100 100 100 100
100 100 82 44 34 5 42 6 0 0 0 3 0 0 0 0 0 0 0 0 0 0 0 0 0 0 0 0 0 0 0 0 0 0 3 5 3 0 1 4 5 39 99
98 90 14 40 13 6 8 0 5 4 0 0 0 0 0 0 0 0 0 0 0 0 0 2 4 17 5 5 5 5 5 22 5 5 4 4 0 0 0 0 0 0 3
99 52 25 11 6 28 3 5 3 0 0 0 0 0 0 0 0 0 0 0 0 5 3 1 1 0 0 0 0 0 0 5 4 0 0 0 0 0 0 0 0 2 0
37 5 58 64 5 4 5 0 0 0 0 0 0 0 0 0 0 0 0 0 0 0 0 0 0 0 0 0 0 0 0 0 0 0 0 0 0 0 0 0 1 0 0
5 61 13 5 2 5 0 0 0 0 0 0 0 0 0 0 0 0 0 0 0 0 0 0 0 0 0 0 0 0 0 0 0 1 0 2 2 5 5 5 5 5 5
5 24 5 5 5 0 0 0 0 0 0 0 0 0 0 2 0 0 0 0 0 0 0 0 0 0 0 0 0 0 0 0 0 2 5 5 5 5 12 17 11 11 5
5 5 5 5 2 0 0 0 0 0 0 0 0 0 0 0 0 0 0 2 0 1 0 5 2 4 4 2 0 0 0 0 0 3 5 5 7 4 12 8 54 32 57
5 5 5 5 5 0 0 0 0 0 0 0 0 0 0 0 0 0 2 0 0 2 0 3 4 2 5 0 0 0 0 0 1 5 5 9 10 6 22 42 92 96 90
78 6 5 8 2 0 0 0 0 0 0 0 0 0 0 0 1 0 0 0 0 0 0 0 0 0 0 0 0 0 0 0 5 5 31 28 96 88 96 100 97 85 100
88 35 34 3 0 0 0 0 0 0 0 0 0 2 3 0 0 0 0 0 0 0 0 0 0 0 0 0 0 0 0 4 5 5 22 65 100 100 100 100 100 100 100
64 7 0 0 0 0 0 1 0 0 0 2 5 5 5 5 3 0 0 0 1 0 0 0 0 0 0 0 4 5 4 1 5 5 5 79 100 100 100 100 100 100 100
5 4 0 0 0 3 5 0 0 0 5 5 5 5 5 5 5 0 0 0 2 4 0 0 0 3 5 5 3 5 5 1 6 38 94 100 100 100 100 100 100 100 100
5 0 0 0 5 3 0 0 5 5 5 64 6 5 5 1 0 0 0 0 0 5 75 1 5 5 5 5 3 5 5 5 5 21 100 100 98 65 97 100 100 100 100
5 5 5 3 5 0 0 4 5 12 99 57 5 2 5 0 0 0 0 0 4 5 31 5 5 5 5 0 5 5 15 95 63 70 49 28 86 100 100 100 100 100 100
5 5 5 5 2 0 5 5 97 32 6 4 0 5 4 0 0 0 0 5 5 5 32 5 5 5 5 5 5 5 5 16 52 2 5 100 100 100 100 100 100 100 100
5 5 5 5 4 20 82 23 5 2 0 1 5 0 0 0 0 0 1 5 5 75 88 43 10 5 5 14 57 8 6 5 5 7 91 90 100 100 100 100 100 100 100
5 5 5 5 30 6 5 3 0 0 5 5 5 5 0 0 0 5 5 24 35 5 5 5 19 70 97 53 75 5 5 5 66 100 32 93 99 100 100 100 100 100 100
66 36 44 5 5 5 1 0 1 5 5 5 4 1 4 3 5 5 66 6 22 16 87 100 98 92 53 5 5 5 95 100 100 99 47 14 56 55 28 22 13 33 99
79 5 5 5 2 0 0 2 5 5 5 3 5 5 5 5 0 5 5 30 100 100 74 72 95 78 11 5 6 100 100 100 90 98 100 100 89 92 34 5 30 100 100
5 5 2 0 0 0 4 5 5 5 5 5 5 5 5 5 2 5 5 48 100 32 22 36 5 7 85 78 100 99 100 100 100 100 100 100 75 100 99 100 100 97 100
5 5 0 0 3 6 5 5 4 15 46 30 17 8 5 4 5 94 87 91 5 5 0 5 48 78 100 100 100 100 99 100 100 92 100 100 65 87 82 99 100 99 100
0 0 2 5 5 5 5 5 56 50 31 10 73 11 5 53 74 100 100 92 48 4 2 41 96 56 24 62 100 100 92 100 100 100 80 100 98 97 99 67 29 28 100
0 5 5 5 5 3 5 5 5 72 17 5 64 34 5 96 100 100 100 98 29 4 82 83 5 5 5 5 70 89 100 100 100 100 61 100 93 99 100 100 78 99 100

GFSMA_prec_cloud_012.txt.gz
Cloud_Cover
45 62 8 5 5 98 94 76 61 67 17 35 7 5 5 4 5 4 0 0 0 0 3 0 0 0 0 0 0 0 0 0 0 0 0 0 0 0 0 0 0 0 0
42 7 40 94 72 26 78 70 58 70 5 14 86 6 7 5 5 2 5 5 0 0 0 0 0 0 0 0 0 0 0 0 0 0 0 0 0 0 0 0 0 0 0
12 91 100 100 38 8 26 81 84 72 57 71 100 69 40 13 27 5 5 5 0 0 0 0 0 0 0 0 0 0 0 0 0 0 0 0 0 0 0 0 0 0 0
100 100 100 8 61 100 100 100 100 100 100 100 100 100 81 98 31 5 5 2 0 0 0 0 0 0 0 0 0 0 0 0 0 0 0 0 0 0 0 0 0 4 2
100 100 92 25 31 100 100 100 100 100 100 100 100 100 100 20 49 5 4 0 0 0 0 0 0 0 0 0 0 0 0 0 0 0 0 0 0 0 0 0 0 0 0
100 5 5 5 41 72 100 100 100 100 100 100 100 99 29 89 5 0 0 0 0 0 0 0 0 0 0 0 0 0 0 0 0 0 0 0 0 0 0 1 2 3 0
100 5 5 100 86 5 20 33 62 100 100 45 13 25 5 2 0 0 0 0 0 0 0 0 0 0 0 0 0 0 0 0 0 0 0 0 0 1 0 2 1 3 5
100 24 10 78 79 66 53 62 99 100 100 56 5 5 5 5 0 0 0 0 0 0 0 0 0 0 0 0 0 0 0 0 0 0 0 1 4 5 2 5 5 5 5
100 6 78 97 100 82 85 84 46 92 100 80 5 5 16 5 0 0 0 0 0 0 0 0 0 0 0 0 0 0 0 0 0 0 5 5 5 5 5 5 5 5 8
95 4 97 100 100 46 100 100 7 90 82 13 5 5 5 2 0 0 0 0 0 0 0 0 0 1 0 0 0 0 0 0 0 0 4 5 5 5 6 15 48 92 100
15 0 2 5 5 55 5 5 60 86 59 5 5 5 4 0 0 0 0 0 0 0 1 5 5 5 0 0 0 0 0 0 5 5 5 5 5 11 40 85 78 100 100
0 0 0 0 0 4 5 5 9 5 5 5 2 0 0 0 0 0 0 0 0 4 5 5 4 3 0 0 0 0 0 5 5 5 5 5 31 92 100 100 100 100 100
0 0 2 5 5 5 5 5 5 5 2 0 0 0 0 0 0 0 0 0 0 0 0 0 0 0 2 1 0 0 2 5 5 5 5 14 85 100 100 100 100 100 100
4 5 5 5 5 5 5 4 2 0 0 0 0 0 0 0 0 0 0 0 0 0 0 0 0 0 0 0 0 5 5 5 6 54 10 48 56 87 100 100 100 100 100
5 5 6 17 56 5 5 5 3 1 5 0 0 0 0 0 0 0 0 0 0 0 0 0 0 0 0 4 5 5 50 80 78 71 100 100 100 100 100 100 100 100 100
88 94 100 97 75 68 5 5 3 5 5 1 0 0 0 0 0 0 0 0 0 0 0 0 0 0 5 5 28 88 97 76 88 96 100 100 100 100 100 100 100 100 100
100 100 98 76 82 27 5 5 5 5 5 2 0 0 0 0 0 0 0 0 0 0 0 0 0 4 5 61 94 100 98 80 5 75 84 76 100 100 100 100 100 100 100
100 93 85 66 85 70 5 5 5 5 5 0 0 0 0 0 0 0 0 0 0 5 5 5 5 5 66 100 100 100 100 57 25 5 36 86 100 100 100 100 100 100 100
93 95 63 100 98 16 5 5 5 5 2 0 2 0 0 0 0 0 0 4 5 18 74 59 5 9 96 100 95 30 63 65 97 100 96 100 100 100 100 100 100 100 100
91 70 100 87 55 6 5 5 5 5 0 5 3 0 0 0 0 2 5 21 66 90 83 62 63 78 98 46 93 36 92 86 100 100 32 100 96 98 100 94 90 100 100
67 100 81 84 81 50 5 5 4 0 5 5 1 0 0 1 5 6 84 91 100 97 61 91 100 94 7 36 62 84 100 96 69 100 10 82 65 5 5 41 95 100 100
100 86 95 91 100 14 5 5 3 5 5 3 0 0 2 5 19 85 98 100 100 100 100 100 91 98 95 90 100 100 100 98 88 48 100 100 76 16 5 5 76 100 100
100 99 93 92 9 5 5 5 7 5 5 4 3 5 5 11 91 93 97 100 100 98 100 95 100 100 100 99 98 95 90 94 100 27 96 96 27 34 5 5 71 100 100
100 100 47 49 5 5 6 8 5 5 5 5 5 5 55 86 90 100 99 87 100 78 100 100 100 100 99 100 100 99 100 100 98 85 100 92 5 51 5 50 74 80 98
98 59 8 64 10 5 5 5 6 5 8 5 5 30 84 100 100 100 100 89 94 100 100 100 100 100 100 100 100 100 89 100 99 91 69 100 95 84 79 73 85 92 90
19 84 5 5 5 5 14 9 35 66 5 5 13 87 96 98 100 100 100 100 100 100 98 87 100 67 94 100 100 100 100 100 100 100 54 100 94 99 95 89 34 55 100

GFSMA_prec_cloud_015.txt.gz
Cloud_Cover
56 66 100 100 100 100 100 95 66 94 39 71 69 37 19 94 63 11 41 100 25 8 5 7 5 4 0 0 0 0 0 0 0 0 0 0 0 0 0 0 0 0 0
82 68 37 48 5 15 12 47 49 56 60 44 76 51 25 14 20 62 100 100 47 90 5 98 6 5 0 0 0 0 0 0 0 0 0 0 0 0 0 0 0 0 0
97 7 9 5 5 5 4 3 5 6 6 6 40 10 92 29 99 100 100 100 100 91 6 87 5 5 0 0 0 0 0 0 0 0 0 0 0 0 0 0 0 0 0
5 1 6 30 5 14 7 5 5 5 44 100 92 98 99 100 100 100 100 100 100 60 78 18 5 0 0 0 0 1 0 0 0 0 0 0 0 0 0 0 0 0 0
8 12 88 12 5 5 5 5 5 16 78 94 100 100 100 100 100 100 98 100 52 40 67 5 0 0 0 0 0 2 5 0 0 0 0 0 0 0 0 0 0 0 0
59 97 17 5 4 5 5 20 70 7 5 5 13 60 73 84 53 34 13 8 27 25 5 0 0 0 0 0 0 0 0 0 0 0 0 0 0 0 0 1 0 0 0
100 100 5 1 3 5 32 99 100 93 34 5 5 5 5 7 5 5 26 10 5 0 0 0 0 0 0 0 0 0 0 0 0 0 0 0 0 2 1 0 2 4 5
100 100 30 0 0 5 68 93 99 88 70 62 43 5 10 42 59 5 0 0 0 0 0 0 0 0 0 0 0 0 0 0 0 2 5 2 3 1 2 2 5 5 5
100 100 87 0 0 0 20 29 64 61 28 92 73 12 5 5 11 12 5 5 0 0 0 0 0 0 0 0 0 0 0 0 1 2 5 5 4 3 5 5 5 5 5
100 100 88 0 0 0 5 21 63 64 5 5 17 4 5 5 5 38 6 0 0 0 0 0 0 0 0 0 0 0 0 0 0 5 5 5 5 5 5 5 7 34 100
100 100 55 0 0 0 0 0 1 1 4 4 0 3 5 5 4 0 0 0 0 0 0 0 0 0 0 0 0 0 0 0 5 5 5 5 5 6 7 11 29 85 99
100 100 5 5 0 0 0 4 5 5 5 5 3 5 5 4 0 0 0 0 0 0 0 0 0 0 0 0 0 0 0 0 5 5 5 5 38 95 100 100 99 100 100
100 99 9 5 5 4 1 5 5 5 5 5 2 1 0 0 0 0 0 0 0 0 0 0 0 0 0 0 0 0 0 5 5 5 5 14 86 99 94 100 100 100 100
100 33 5 52 48 5 5 5 5 5 5 5 5 0 0 0 0 0 0 0 0 0 0 0 0 0 0 0 0 0 0 4 5 5 5 56 96 99 100 100 100 100 100
100 15 5 5 5 5 9 54 5 7 14 5 3 0 0 0 0 0 0 0 0 0 0 0 0 0 0 0 0 0 0 5 17 8 20 72 100 100 100 100 100 100 100
87 60 65 72 74 85 62 11 5 39 5 5 2 5 5 0 0 0 0 0 0 0 0 0 0 0 0 0 0 5 5 5 5 5 61 100 100 100 100 100 100 100 100
59 73 68 75 96 5 42 5 67 11 5 5 5 5 3 0 0 0 0 0 0 0 0 0 0 0 3 3 5 26 5 2 4 5 46 94 100 100 100 100 100 100 100
98 56 37 7 21 84 26 75 85 5 5 5 5 5 0 0 0 0 0 0 0 0 4 5 5 5 5 1 21 26 5 5 5 5 91 100 100 100 100 100 100 100 100
72 67 66 82 28 5 57 100 8 5 24 5 5 2 0 0 0 0 0 0 4 5 5 5 5 5 4 5 95 12 5 11 5 5 18 18 100 75 100 100 100 100 100
87 85 99 87 20 55 100 14 5 72 8 5 5 0 0 0 0 0 4 5 6 5 32 8 5 5 33 100 72 15 5 5 5 5 5 5 87 17 99 55 94 100 100
100 100 99 97 77 100 76 48 68 13 5 3 3 3 0 0 0 17 62 67 77 68 57 50 68 99 61 13 18 50 24 75 5 87 7 5 61 5 5 6 6 76 100
93 81 100 100 100 100 99 93 53 5 5 5 5 5 0 0 5 57 86 98 99 100 100 98 100 78 32 5 70 73 63 100 93 63 100 87 6 5 5 5 42 100 100
100 80 100 100 100 100 100 100 53 5 5 5 5 4 5 5 5 68 88 95 14 65 100 88 93 99 64 5 51 25 100 95 95 6 47 42 16 5 5 5 25 92 97
100 100 100 100 100 100 100 59 5 8 5 5 3 5 5 5 34 96 15 34 61 52 58 97 100 43 6 71 100 100 97 33 30 5 99 96 16 5 5 5 27 53 100
100 100 100 100 100 99 99 97 11 5 5 1 2 5 5 41 44 100 100 94 19 5 6 68 71 95 100 100 99 100 8 91 85 100 88 100 41 23 27 11 77 100 36
100 100 100 100 100 100 61 5 5 4 5 5 5 5 49 54 100 100 100 52 6 5 6 35 7 6 35 14 99 99 94 100 100 100 26 99 94 96 90 100 83 95 6

GFSMA_prec_cloud_018.txt.gz
Cloud_Cover
5 5 12 27 34 10 30 15 91 69 100 100 100 100 99 38 5 70 41 25 20 30 36 100 100 100 100 100 97 5 5 2 0 0 0 0 0 0 0 0 0 0 0
9 5 6 3 3 66 29 31 15 4 13 97 90 14 67 9 5 15 6 5 78 24 100 100 100 100 100 100 97 11 5 2 0 0 0 0 0 0 0 0 0 0 0
98 6 5 5 5 0 0 1 2 5 5 5 5 0 3 5 46 56 98 98 99 100 100 100 100 100 100 100 42 5 6 4 0 0 0 0 0 1 0 0 0 0 0
83 0 5 5 5 1 2 1 0 0 0 5 5 5 5 5 25 62 86 100 100 100 100 100 100 100 97 42 22 11 6 0 0 0 0 0 0 0 0 0 0 0 0
28 0 2 5 5 5 5 5 0 0 5 5 54 92 7 7 5 5 6 77 66 100 70 22 31 8 56 58 73 15 0 0 0 0 0 0 0 0 0 0 0 0 0
21 0 4 17 3 4 5 5 0 0 5 5 38 97 99 90 55 5 54 90 100 30 5 5 5 5 16 2 0 0 0 0 0 0 0 1 2 2 0 0 0 0 0
10 0 39 39 0 0 0 0 0 0 5 51 66 40 95 81 78 44 5 5 27 19 5 5 1 0 0 0 0 0 0 0 0 0 0 5 0 0 0 0 0 2 0
5 6 77 61 5 1 0 0 0 0 4 5 5 6 62 38 5 8 5 5 5 3 5 5 3 0 0 0 0 0 0 0 0 0 0 0 2 1 4 3 2 5 5
5 14 97 98 45 5 4 0 0 0 1 5 5 8 5 5 5 23 18 1 0 4 4 0 0 0 0 0 0 0 0 0 0 2 5 5 5 5 5 5 5 5 6
16 11 100 98 16 5 5 5 0 0 0 1 4 0 0 0 0 3 3 5 5 5 0 0 0 0 0 0 0 0 0 0 0 5 5 5 5 5 7 8 17 44 27
100 43 100 100 51 5 5 5 52 5 2 0 0 0 5 2 0 0 4 1 0 0 0 0 0 0 0 0 0 0 0 0 0 5 5 5 3 8 45 100 100 100 100
100 60 37 94 76 5 20 5 41 59 5 5 5 5 5 5 0 0 0 0 0 0 0 0 0 0 0 0 0 0 0 0 2 5 5 8 50 98 100 100 100 100 100
100 95 55 100 55 5 5 5 5 48 23 16 5 5 5 5 0 0 0 0 0 0 0 0 0 0 0 0 0 0 0 0 0 5 5 21 100 96 98 100 100 100 100
74 100 100 100 10 5 5 5 5 5 7 37 16 16 5 5 0 0 0 0 0 0 0 0 0 0 0 0 0 0 0 0 0 5 5 61 70 95 100 100 100 100 100
60 100 100 93 5 5 5 20 68 67 8 5 39 40 49 5 0 1 2 0 0 0 0 0 0 0 0 0 0 0 0 0 5 5 6 6 72 93 93 100 100 100 100
100 67 100 46 5 5 5 11 62 45 62 44 5 5 5 4 2 5 0 0 0 0 0 0 0 0 0 0 0 0 0 1 1 5 5 45 75 96 100 100 100 100 100
100 100 100 8 28 55 58 72 88 64 5 5 37 5 5 5 5 5 1 0 0 0 0 0 0 3 5 5 5 2 2 5 4 4 5 69 100 100 100 100 100 100 100
100 100 96 61 100 97 95 59 80 5 5 33 45 5 5 5 5 5 0 0 0 0 0 5 5 5 5 3 0 5 5 5 0 4 61 78 84 100 100 100 100 100 100
100 100 81 94 84 80 78 98 96 54 59 61 6 5 10 51 5 5 0 0 0 0 5 5 5 5 3 3 5 5 4 0 5 0 5 5 8 58 64 100 100 100 100
100 100 98 87 72 87 100 73 100 88 71 54 50 56 16 5 5 5 0 2 5 17 44 5 5 46 83 30 65 5 4 5 0 2 0 5 27 5 5 15 34 74 100
100 100 76 55 96 100 97 91 96 100 97 93 98 51 5 5 5 2 16 59 87 99 64 90 81 83 99 11 11 50 7 5 2 5 45 4 5 2 0 5 5 5 100
82 65 100 100 100 100 100 100 100 100 95 76 87 31 5 5 2 5 29 63 93 100 99 87 100 87 6 54 99 5 5 6 88 20 5 5 5 5 5 5 5 92 100
100 100 100 100 100 100 100 100 100 98 99 98 65 5 5 4 1 5 8 87 13 10 67 99 23 56 99 69 28 43 71 100 100 10 77 52 5 5 5 5 5 76 99
96 100 100 100 100 100 100 68 97 99 100 88 5 5 2 1 5 44 68 46 72 5 5 37 99 97 98 77 100 100 99 82 5 5 67 97 5 9 5 5 5 5 5
100 100 100 100 100 100 92 96 100 100 45 55 8 5 4 5 48 80 82 12 5 5 5 5 51 97 100 100 100 100 48 69 94 77 72 100 10 39 29 5 4 66 56
100 100 99 77 100 91 100 100 100 98 14 100 94 8 5 5 61 100 100 97 60 5 7 29 5 2 2 5 6 26 83 100 100 96 24 100 86 100 82 5 5 46 79

GFSMA_prec_cloud_021.txt.gz
Cloud_Cover
5 5 5 5 0 0 0 2 5 5 5 5 6 5 5 4 5 5 3 17 62 5 18 15 21 28 79 5 34 98 85 100 100 100 63 5 5 5 0 0 0 0 0
5 12 5 81 5 1 0 0 1 3 4 0 2 4 4 2 3 4 4 3 4 5 5 47 100 74 99 100 100 100 100 100 100 99 9 5 10 4 0 0 0 0 0
5 5 5 5 1 3 5 2 0 0 0 0 0 0 0 1 0 5 5 2 3 5 36 91 100 100 100 100 100 100 100 100 100 37 11 5 14 5 0 0 0 0 0
4 6 5 5 5 0 2 4 0 1 2 0 0 0 4 5 5 33 5 5 5 5 49 100 100 80 75 94 100 100 97 65 17 12 58 49 5 0 0 0 0 0 0
68 18 5 4 0 0 0 0 0 5 5 0 0 0 5 5 5 54 6 24 51 98 50 9 59 99 76 5 23 25 21 55 24 18 5 3 2 0 0 0 0 0 0
93 12 3 0 0 0 0 0 0 0 0 0 0 0 1 5 5 5 20 68 85 34 73 92 97 38 87 48 5 5 3 1 2 0 0 0 1 0 0 1 2 0 0
59 47 0 0 0 0 0 0 0 0 0 0 0 0 0 5 5 40 5 48 38 62 74 99 99 20 10 5 5 5 0 0 0 0 0 0 1 0 0 3 1 0 0
72 31 0 0 4 1 2 1 2 4 1 0 0 0 0 1 5 5 4 3 0 1 1 45 73 31 5 5 0 0 0 0 0 0 1 1 0 0 5 2 5 5 5
100 62 0 0 5 39 0 0 2 5 5 4 4 0 0 0 0 3 4 4 1 1 5 24 27 5 5 0 0 0 0 0 0 3 5 5 5 5 5 6 8 21 14
100 100 20 10 79 99 8 0 4 5 5 5 5 5 5 3 0 0 0 0 5 0 0 0 0 0 0 0 0 0 0 0 0 4 5 5 5 5 6 23 76 100 100
100 100 40 20 32 100 94 2 5 5 5 56 92 50 18 9 10 5 5 5 3 0 0 0 0 0 0 0 0 0 0 0 0 0 5 5 5 4 12 100 100 100 100
100 100 100 71 98 99 91 47 5 5 5 5 11 45 45 6 15 31 30 47 24 3 0 0 0 0 0 0 0 0 0 0 0 4 5 5 5 70 100 100 100 100 100
100 100 100 73 76 22 100 10 0 0 5 5 5 5 5 48 68 67 74 99 100 100 63 6 1 0 0 0 0 0 0 0 0 0 5 5 52 89 100 100 100 100 100
100 100 100 100 51 81 100 38 0 5 5 5 5 5 5 16 68 40 35 26 39 62 97 79 32 4 0 0 0 0 0 0 0 3 5 5 80 96 84 97 100 100 100
100 100 100 100 74 100 100 8 44 5 5 5 5 5 5 5 20 5 5 6 5 5 34 90 5 5 2 0 0 0 0 0 5 5 5 55 95 75 74 100 100 100 100
100 100 100 100 98 100 100 76 33 5 5 5 5 36 6 5 5 14 10 5 5 4 1 2 2 3 3 3 0 1 0 0 0 5 72 67 27 87 100 100 100 100 100
100 100 100 100 100 76 100 72 20 19 14 6 5 98 57 5 5 5 5 5 5 1 0 0 0 0 0 0 0 0 0 0 2 2 5 9 96 98 100 96 100 100 100
100 100 100 100 100 100 94 99 75 97 61 72 86 98 71 5 5 5 5 5 5 5 0 0 0 4 1 0 0 4 5 5 2 0 5 6 5 94 80 100 100 100 100
100 100 100 100 100 100 100 94 90 98 91 100 85 68 62 15 68 5 5 5 5 5 5 5 5 5 5 5 15 8 5 5 5 2 2 4 5 5 91 67 95 100 100
100 100 100 100 100 100 76 70 95 100 100 81 100 67 69 73 40 5 5 5 43 45 15 66 72 5 5 5 48 5 5 5 5 0 1 5 37 5 5 5 6 5 29
100 100 100 100 100 86 74 96 100 100 99 100 100 100 100 77 23 33 29 78 87 15 59 91 16 26 98 52 5 5 5 5 5 5 5 32 5 5 5 4 5 5 90
100 100 100 100 72 83 100 100 100 100 100 100 100 99 72 100 100 100 100 48 66 63 100 100 98 96 16 5 5 5 5 12 97 8 76 69 5 5 5 5 8 96 98
100 100 100 100 100 100 100 100 92 100 100 93 49 100 100 100 100 90 5 7 42 79 100 100 27 5 53 5 7 15 86 100 95 22 44 97 5 5 5 5 5 5 87
100 100 100 100 100 100 98 100 100 94 100 100 100 100 100 100 27 8 55 91 100 82 5 5 6 35 44 82 100 100 97 91 10 5 5 99 28 13 5 5 5 5 5
100 100 100 100 100 100 100 100 100 66 98 100 100 100 81 29 52 89 99 94 5 5 5 3 6 79 100 75 82 100 13 95 80 32 5 68 7 5 72 5 2 1 5
100 100 100 98 44 100 92 80 72 100 96 95 94 16 5 40 92 99 100 99 55 5 5 27 7 4 3 5 5 8 52 100 100 99 9 91 80 94 100 5 5 5 5

GFSMA_prec_cloud_024.txt.gz
Cloud_Cover
5 5 11 12 6 5 4 0 0 3 4 5 5 5 23 51 67 53 27 5 5 4 2 0 0 1 4 5 5 6 22 82 33 81 100 100 100 100 100 100 35 5 39
0 5 36 5 5 5 3 0 0 3 0 3 3 5 2 5 1 0 0 1 0 0 2 5 0 0 5 5 22 43 42 5 78 98 100 100 100 100 100 92 31 5 48
4 0 3 5 5 5 5 4 0 0 0 0 0 0 0 0 0 0 0 4 5 5 5 5 5 5 5 34 95 87 94 100 98 100 100 100 100 100 100 100 63 86 72
0 2 3 5 5 5 3 0 0 0 0 0 0 0 0 0 0 0 5 5 60 22 5 5 25 100 36 58 96 100 99 30 15 5 60 12 32 16 8 46 77 98 100
0 3 5 4 4 2 0 0 0 0 0 0 0 0 0 0 0 0 5 5 30 5 5 5 25 5 5 5 5 11 78 100 100 50 5 5 5 5 5 21 89 92 84
66 38 36 33 21 0 0 0 0 0 0 0 0 0 0 0 0 0 0 5 6 21 96 82 33 24 5 5 5 5 6 40 99 65 5 3 1 4 4 1 1 0 0
100 99 94 90 24 0 0 0 0 0 0 0 0 5 0 0 0 0 0 0 5 25 51 5 5 5 2 2 5 20 8 5 5 5 0 1 3 0 0 0 1 3 1
100 100 46 98 6 0 0 0 0 0 0 0 0 0 5 4 6 4 1 0 0 2 5 5 5 5 5 6 7 84 24 5 5 2 5 2 5 5 5 5 5 4 0
100 100 100 81 30 0 0 3 0 0 0 0 0 0 5 44 72 62 12 5 4 4 4 3 5 5 5 27 14 11 2 1 0 0 5 5 5 5 5 5 4 4 34
100 100 100 100 53 19 14 89 16 0 0 0 0 0 0 2 5 5 24 59 89 17 26 30 6 3 3 0 0 0 0 0 0 1 5 5 5 5 5 27 9 94 98
38 97 100 100 100 51 19 73 89 1 0 0 0 0 5 5 5 4 1 4 37 98 100 100 100 100 90 65 46 6 4 0 0 4 5 5 5 5 5 18 48 42 100
5 31 99 100 100 100 60 92 100 74 40 0 0 0 4 5 3 0 5 4 26 17 11 22 53 66 95 100 100 100 98 84 6 4 5 5 5 5 6 12 77 100 98
71 19 30 99 100 100 95 29 51 100 100 0 0 5 5 5 3 5 5 4 4 5 16 36 18 5 5 10 16 5 5 5 5 5 5 5 5 5 23 88 96 98 97
36 45 100 90 100 100 84 67 100 24 100 14 5 5 5 5 5 5 5 2 4 5 5 5 5 5 7 5 5 5 5 5 5 5 5 5 5 30 97 99 100 100 100
90 100 100 85 100 100 100 100 41 100 100 5 5 5 5 5 5 5 5 5 5 0 4 5 5 5 5 3 5 5 4 0 5 5 5 6 70 96 81 94 100 100 100
86 100 100 100 100 100 100 100 74 100 100 31 5 5 6 25 37 5 5 5 5 1 0 0 0 5 5 5 5 5 5 4 1 5 5 9 25 77 98 97 100 100 100
72 100 100 100 100 100 100 100 99 84 100 75 34 6 62 85 76 74 5 5 5 4 0 0 0 0 3 5 5 5 5 5 1 4 26 56 90 100 100 100 100 100 100
100 100 100 100 100 100 100 100 100 100 100 95 45 82 99 93 100 90 98 99 84 60 5 0 5 5 5 5 5 5 4 1 5 5 5 77 77 62 98 100 97 100 100
100 100 100 100 100 100 100 100 100 100 85 68 41 14 99 99 93 100 100 90 63 34 5 5 5 5 5 6 16 6 5 5 5 4 4 5 5 5 84 100 100 90 72
100 100 100 100 100 100 100 100 100 99 70 6 77 100 99 95 100 97 84 100 87 21 13 10 6 25 100 71 5 13 5 5 5 2 3 5 5 14 14 5 5 5 5
100 100 100 100 100 100 100 100 100 100 68 99 100 69 95 87 13 92 16 79 85 82 95 84 100 38 73 6 10 5 5 5 5 5 5 5 5 5 5 5 5 5 5
100 100 100 100 100 100 100 100 100 100 100 100 100 74 100 100 100 81 42 74 84 57 100 94 84 83 16 5 5 8 5 79 93 9 5 35 5 5 5 5 5 14 84
100 100 100 100 100 100 100 100 100 100 100 100 78 100 95 35 27 70 26 56 100 99 77 100 90 5 5 5 11 23 72 99 95 18 5 63 5 5 5 5 5 5 5
100 100 100 100 100 100 100 100 100 100 100 100 100 98 95 48 5 18 95 29 12 18 41 5 5 44 86 93 100 100 75 56 5 5 5 98 5 5 5 4 5 5 5
100 100 100 100 100 100 100 100 98 100 100 97 100 90 32 5 5 28 5 60 26 5 5 5 15 59 63 61 23 92 10 68 85 81 11 85 11 5 5 5 5 5 5
100 100 100 100 100 100 100 98 100 98 100 100 98 62 5 5 6 73 100 97 57 5 16 41 5 3 0 0 5 5 5 100 100 100 5 66 73 72 95 5 46 100 16

GFSMA_prec_cloud_027.txt.gz
Cloud_Cover
31 29 24 25 66 39 5 2 0 0 0 0 0 0 0 0 3 5 4 5 4 4 10 0 0 0 1 0 0 3 4 5 13 14 5 6 80 93 84 100 100 100 100
2 20 23 20 26 5 6 5 2 2 0 0 0 0 0 0 0 0 0 0 0 0 0 0 0 0 5 0 3 5 5 12 68 97 53 44 11 21 92 100 100 100 100
0 4 9 15 5 5 5 5 3 5 0 0 0 0 0 0 0 0 0 0 0 0 3 5 5 5 5 5 80 86 72 70 100 100 100 100 98 26 34 100 100 100 100
0 2 0 4 67 4 3 5 0 4 0 0 0 0 0 0 0 0 0 0 0 0 5 22 73 71 97 89 90 100 100 95 79 99 73 99 99 83 100 11 64 94 100
0 0 3 4 2 4 4 4 0 0 0 0 0 0 0 0 0 0 0 0 0 0 2 5 41 6 91 96 91 67 5 8 40 82 61 26 9 6 5 5 4 4 5
5 5 24 5 5 5 16 3 0 0 0 0 0 0 0 0 0 1 4 0 0 0 0 0 1 4 5 5 5 5 5 5 1 5 5 26 69 18 19 5 4 0 2
94 100 100 100 100 100 99 1 0 4 0 0 0 0 0 0 0 0 2 5 29 5 5 0 0 0 0 0 0 0 0 0 0 1 5 5 92 67 5 5 4 4 0
92 95 100 100 99 100 91 5 6 5 5 0 0 0 0 0 0 0 0 3 19 65 100 100 78 24 10 7 5 4 7 5 5 5 5 57 9 5 5 5 5 5 4
45 100 100 100 96 74 65 25 5 8 4 3 0 0 0 0 0 0 0 0 0 0 8 12 72 100 100 100 98 64 71 93 56 26 5 5 5 5 6 7 5 9 12
79 94 100 100 100 100 100 54 24 6 5 2 0 0 0 0 0 0 0 0 0 0 0 2 5 5 5 24 93 100 100 100 100 100 99 78 7 7 6 10 27 22 45
55 47 100 100 100 100 86 100 100 7 5 5 0 0 0 0 0 0 0 4 3 5 5 5 0 0 0 3 11 80 96 100 100 100 100 93 16 5 5 6 32 39 100
52 91 95 94 100 100 100 96 100 92 28 67 5 5 1 0 0 2 5 5 5 5 5 5 4 0 4 4 4 5 5 24 54 66 85 86 100 99 96 20 13 12 100
5 5 26 99 43 49 94 95 100 100 100 86 19 46 58 3 5 5 5 5 5 5 81 96 18 5 3 0 0 0 0 0 0 5 5 5 5 5 5 5 15 39 100
11 5 5 5 5 83 100 82 100 100 100 100 100 61 87 24 5 5 5 5 5 5 10 70 51 5 4 0 0 0 0 0 0 2 5 5 5 5 5 76 88 98 95
33 18 4 5 59 100 100 100 100 100 100 100 100 74 100 100 6 5 17 5 5 5 5 28 7 5 5 5 1 0 0 0 2 5 5 5 5 5 44 75 97 95 98
92 43 5 5 77 100 100 100 100 100 100 100 100 100 100 99 45 70 6 11 15 28 5 39 93 98 40 10 5 5 5 5 3 5 5 5 7 76 86 100 100 100 100
100 96 5 15 79 100 100 100 100 100 100 100 100 100 98 100 100 50 86 16 60 5 5 12 44 5 4 2 5 3 2 0 3 2 5 5 93 100 100 100 100 100 100
99 99 100 96 100 100 100 100 100 100 100 100 100 100 100 100 100 100 97 77 16 5 5 5 5 5 5 5 5 5 1 0 3 5 5 76 84 22 90 100 100 100 100
67 100 100 100 100 100 100 100 100 100 100 100 100 100 100 100 100 96 76 24 9 5 5 5 5 5 5 5 5 5 5 5 5 2 4 5 5 54 99 100 100 99 100
100 100 97 100 100 100 100 100 100 100 100 100 100 100 100 100 96 99 69 58 43 6 10 5 5 5 5 5 5 5 5 5 5 3 5 5 6 10 11 5 9 5 5
100 100 100 100 100 100 100 100 100 100 100 100 100 100 100 100 98 87 70 97 35 94 46 8 53 31 8 5 5 5 5 5 5 5 5 5 5 5 5 5 3 5 5
100 100 100 100 100 100 100 100 100 100 100 100 100 100 99 100 99 100 88 100 86 66 61 97 79 82 35 5 5 5 5 100 93 21 5 5 5 5 4 4 4 5 5
100 100 100 100 100 100 100 100 100 100 100 100 100 100 100 100 100 100 100 85 16 48 35 91 51 5 5 5 7 31 87 100 100 27 5 45 5 5 1 0 1 5 5
100 100 100 100 100 100 100 100 100 100 100 100 100 100 100 100 100 100 100 77 73 5 5 5 5 5 5 62 100 100 100 78 16 5 5 46 5 5 2 0 3 5 5
100 100 100 100 100 100 100 100 100 100 100 100 100 100 100 100 100 100 100 99 55 5 5 3 5 9 64 66 30 28 7 71 94 35 5 54 5 5 5 5 0 1 5
100 100 100 100 100 100 100 100 100 100 100 100 100 94 100 100 100 100 100 75 5 5 5 5 5 5 0 0 5 5 22 98 100 89 5 83 28 99 65 5 5 5 5

GFSMA_prec_cloud_030.txt.gz
Cloud_Cover
44 37 33 30 26 7 5 14 5 5 0 0 0 0 0 0 0 0 0 0 0 0 0 0 0 0 0 0 0 0 1 0 0 4 5 5 84 100 100 83 13 15 57
30 40 38 34 44 7 1 5 5 5 2 3 3 0 0 0 0 0 0 0 0 0 0 0 0 0 1 5 4 5 5 5 5 5 5 95 100 81 100 100 100 83 38
1 22 29 32 26 5 5 5 5 5 5 0 0 0 0 0 0 0 0 0 0 0 0 0 0 0 4 5 25 76 100 81 57 5 29 5 90 90 100 100 100 100 100
5 6 19 19 2 5 4 5 5 5 3 0 0 0 0 0 0 0 0 0 0 0 0 0 0 0 0 5 5 5 17 8 5 5 6 74 96 84 59 37 44 97 99
5 34 9 6 2 2 5 6 5 0 0 0 0 0 0 0 0 0 0 0 0 0 0 0 0 0 0 0 0 2 2 3 5 5 3 5 2 4 4 16 12 5 5
36 5 5 1 1 4 1 0 6 5 5 5 4 4 3 2 0 0 0 0 0 0 0 0 4 5 7 27 16 4 3 0 0 0 0 1 0 1 3 0 4 5 59
5 5 5 5 27 16 18 100 99 8 5 5 5 5 4 4 5 1 0 0 0 0 0 0 0 0 5 5 18 80 96 87 76 57 9 5 4 0 2 5 5 5 27
20 5 5 12 100 100 100 100 100 5 5 5 5 5 0 3 5 0 0 0 0 0 0 0 0 0 0 0 0 0 1 4 17 73 100 100 71 19 21 5 5 5 5
41 5 5 48 67 100 71 99 100 48 5 9 5 5 5 5 5 0 0 0 0 0 0 0 0 0 0 0 0 0 0 0 5 5 5 5 28 75 100 100 71 20 5
28 13 13 88 61 99 98 100 100 98 27 64 14 5 5 41 5 5 4 4 2 0 0 0 0 0 0 0 0 0 0 0 0 4 5 5 5 5 27 85 96 100 84
100 92 76 84 99 100 100 100 100 100 100 96 65 14 5 64 85 5 5 5 5 5 0 0 0 0 0 0 0 0 0 1 4 5 5 5 5 5 5 18 6 59 95
97 100 95 60 53 96 100 100 100 100 100 100 100 98 70 66 41 5 5 33 30 5 5 5 5 5 4 4 3 0 0 2 2 1 5 5 5 5 7 12 11 20 6
100 100 100 100 100 100 100 100 100 100 100 100 100 100 100 89 63 25 33 38 11 17 9 5 5 11 15 5 5 2 0 0 0 4 5 5 5 5 5 5 16 17 10
57 10 19 64 100 100 100 100 100 100 100 100 100 100 100 100 100 100 100 100 91 24 95 91 61 17 5 5 5 5 0 0 1 5 5 5 5 5 5 3 5 31 98
22 100 100 100 100 100 100 100 100 100 100 100 100 100 100 100 100 100 100 100 88 58 76 97 87 95 63 9 5 5 4 0 5 5 5 5 5 5 5 9 41 59 95
100 100 100 100 87 100 100 100 100 100 100 100 100 100 100 100 100 100 100 100 100 88 68 65 99 97 100 17 5 5 3 2 5 4 5 5 6 56 86 77 89 99 100
100 100 100 100 100 100 100 100 100 100 100 100 100 100 100 100 100 100 100 100 100 100 84 69 91 24 5 5 5 4 4 2 4 0 5 5 31 88 98 92 98 100 100
77 100 100 100 100 100 100 100 100 100 100 100 100 100 100 100 100 100 100 100 100 91 59 22 9 5 5 5 5 5 4 5 0 0 5 5 6 12 51 98 99 95 100
100 100 100 100 100 100 100 100 100 100 100 100 100 100 100 100 100 100 100 100 100 100 99 81 54 5 5 5 5 5 37 5 5 0 4 5 5 5 5 60 93 93 89
100 100 100 100 100 100 100 100 100 100 100 100 100 100 100 100 100 100 100 100 100 100 100 96 13 7 5 5 5 6 7 5 5 5 4 5 5 5 5 5 5 5 5
100 100 100 100 100 100 100 100 100 100 100 100 100 100 100 100 100 100 100 100 97 100 95 96 83 22 14 75 5 42 5 5 5 4 5 5 5 4 5 5 5 5 5
100 100 100 100 100 100 100 100 100 100 100 100 100 100 100 100 100 100 100 100 97 100 100 100 100 100 97 5 86 74 5 93 94 5 5 6 5 5 5 0 2 5 5
100 100 100 100 100 100 100 100 100 100 100 100 100 100 100 100 100 100 100 97 100 100 100 100 100 32 21 99 28 78 50 88 92 21 5 81 5 5 0 0 1 5 5
100 100 100 100 100 100 100 100 100 100 100 100 100 100 100 100 100 97 100 100 100 100 100 53 19 96 88 93 100 99 66 68 32 5 5 87 4 5 0 0 3 5 5
100 100 100 100 100 100 100 100 100 100 100 100 100 100 100 100 100 100 100 100 100 27 71 97 100 95 86 20 10 5 5 64 93 8 5 68 5 5 5 5 0 0 5
100 100 100 100 100 100 100 100 100 100 100 100 100 100 92 64 19 57 96 98 100 97 87 96 35 5 4 0 3 5 23 88 100 87 5 83 6 62 72 5 5 4 0

GFSMA_prec_cloud_036.txt.gz
Cloud_Cover
46 41 100 100 99 13 0 5 2 4 0 2 0 0 5 0 0 0 0 0 0 0 0 0 0 0 0 0 0 0 0 0 0 0 0 0 5 4 2 0 4 11 64
5 14 74 100 100 37 0 0 5 5 5 4 0 5 0 0 0 0 0 0 0 0 0 0 0 0 0 0 0 0 0 0 0 0 0 0 5 5 5 79 43 5 5
5 6 41 100 100 73 10 2 0 1 5 5 4 5 3 0 0 0 0 0 0 0 0 0 0 0 0 0 0 0 0 0 0 0 0 0 1 2 0 2 3 5 5
5 5 14 97 78 63 7 5 5 5 5 5 5 5 5 2 0 0 3 0 0 0 0 0 0 0 0 0 0 0 0 0 0 0 0 0 1 4 5 5 4 2 0
5 5 10 39 99 72 5 6 5 6 58 43 5 5 5 5 5 3 1 0 0 0 0 0 0 0 0 0 0 0 0 0 0 0 0 0 0 0 0 0 4 5 5
39 18 65 36 31 51 6 31 70 52 29 72 55 6 5 7 5 5 5 5 5 4 0 0 0 0 0 0 0 0 0 0 0 0 0 0 0 0 0 0 0 0 1
99 100 41 5 5 27 21 47 97 97 98 100 100 27 25 95 100 100 29 15 5 5 5 5 4 4 0 0 0 0 0 3 5 1 0 0 0 0 0 0 0 1 0
99 47 98 83 48 76 57 86 95 72 98 90 100 100 96 89 100 100 100 98 56 66 78 69 84 8 4 5 2 0 5 5 5 5 4 0 0 1 1 0 3 0 5
94 100 96 99 80 66 90 98 100 99 56 84 100 100 100 100 100 100 100 100 100 100 100 100 100 78 17 4 4 2 5 5 5 6 37 5 5 3 2 1 0 5 5
97 96 98 100 100 100 100 100 100 88 56 100 100 100 100 100 100 100 100 100 100 100 100 100 100 100 89 11 5 5 5 5 5 5 5 5 5 5 3 1 5 16 50
100 100 100 100 100 100 100 100 100 100 100 100 100 100 100 100 100 100 100 100 100 100 100 100 100 100 100 5 5 5 5 5 5 5 5 36 5 5 5 5 5 53 99
100 100 100 100 82 100 100 100 100 100 100 100 100 100 100 100 100 100 100 100 100 100 100 100 100 100 100 91 100 100 98 5 5 5 4 5 5 5 17 5 5 5 5
100 100 100 100 100 83 82 99 94 99 100 100 100 100 100 100 100 100 100 100 100 100 100 100 100 100 100 71 87 100 99 26 5 5 5 5 5 5 14 6 18 6 5
28 72 100 100 100 98 84 75 50 99 100 100 100 100 100 100 100 100 100 100 100 100 100 100 100 99 100 100 100 100 100 31 7 5 5 5 6 61 58 5 6 6 5
5 21 100 100 100 100 100 100 88 100 100 100 100 100 100 100 100 100 100 100 100 100 100 100 100 100 100 100 100 100 100 99 70 18 44 5 5 5 5 5 5 5 5
43 100 100 100 98 100 100 100 100 100 100 100 100 100 100 100 100 100 100 100 100 100 100 100 100 100 100 100 100 91 52 80 76 96 5 5 5 5 5 5 0 5 40
100 100 100 100 100 100 100 100 100 100 100 100 100 100 100 100 100 100 100 100 100 100 100 100 100 100 100 100 100 100 86 88 100 100 99 56 5 5 5 5 6 10 6
100 100 100 100 100 100 100 100 100 100 100 100 100 100 100 100 100 100 100 100 100 100 100 100 100 100 100 100 100 100 100 100 100 100 100 8 20 8 5 5 5 5 53
100 100 100 100 100 100 100 100 100 100 100 100 100 100 100 100 100 100 100 100 100 100 100 100 100 100 100 100 100 100 100 100 100 100 99 12 5 5 6 15 62 100 13
100 100 100 100 100 100 100 100 100 100 100 100 100 100 100 100 100 100 100 100 100 100 100 100 100 100 100 100 100 100 100 100 100 100 89 70 62 100 97 100 65 55 34
88 100 92 100 100 100 100 100 100 100 100 100 100 100 100 100 100 100 100 100 100 100 100 100 100 100 100 100 100 100 100 100 100 100 100 100 96 42 54 98 100 14 4
10 24 100 100 100 100 100 100 100 100 100 100 100 100 100 100 100 100 100 100 86 100 99 100 100 100 100 100 100 100 100 100 100 100 100 50 20 100 100 9 0 5 5
98 100 100 100 100 100 100 100 100 100 100 100 100 100 100 100 100 100 100 100 100 100 100 100 100 87 90 100 100 100 100 100 100 100 98 100 99 38 5 0 4 5 5
100 100 100 100 100 100 100 100 100 100 100 100 100 100 100 100 100 100 100 100 100 100 100 100 96 100 100 100 100 100 92 93 93 62 96 86 5 15 5 5 5 5 5
100 100 100 100 100 100 100 100 100 100 100 100 100 100 100 100 100 100 88 100 100 100 100 100 100 100 100 51 48 76 67 98 95 54 22 84 5 96 37 2 3 4 5
100 100 100 100 100 100 100 100 100 100 100 100 100 100 100 100 92 100 100 100 100 100 100 100 59 24 5 15 17 5 82 96 100 99 70 45 66 86 80 5 5 5 5

GFSMA_prec_cloud_039.txt.gz
Cloud_Cover
51 76 59 61 20 21 4 1 0 3 5 4 4 2 0 0 0 1 1 27 0 0 0 0 0 0 0 0 0 0 0 0 0 0 0 0 0 0 0 5 5 1 2
15 24 59 100 100 10 24 5 2 0 5 4 5 5 3 3 4 0 0 0 0 0 0 0 0 0 0 0 0 0 0 0 0 0 0 0 0 0 0 0 4 5 3
12 21 62 70 100 100 25 7 5 3 0 1 4 5 5 5 5 5 5 5 2 2 2 0 0 0 0 0 0 0 0 0 0 0 0 0 0 0 0 0 0 0 1
5 5 13 5 87 100 86 38 5 5 5 5 29 24 5 47 42 5 5 5 5 5 4 0 0 0 0 0 0 0 0 0 0 0 0 0 0 0 0 0 0 0 0
5 5 5 5 9 77 100 23 5 5 58 42 30 53 23 49 11 65 68 20 57 51 73 94 5 3 3 0 5 3 0 0 0 0 0 0 0 0 0 0 0 0 0
15 24 27 5 65 29 91 41 5 5 13 7 25 74 65 97 100 91 66 96 100 100 100 79 89 5 4 5 7 5 5 5 0 0 0 0 0 0 0 0 2 0 0
58 40 31 12 11 81 100 98 78 53 90 39 40 25 85 100 100 68 98 98 100 100 100 100 87 100 77 81 58 100 24 5 5 5 0 0 0 0 0 5 0 0 0
33 67 100 98 100 100 92 89 50 80 91 66 15 32 9 34 90 22 47 100 100 100 100 100 100 100 100 100 86 100 100 97 5 5 3 3 0 0 1 3 5 4 2
38 97 84 68 78 93 73 35 73 58 18 44 56 43 76 80 100 99 88 100 100 100 100 100 100 100 100 100 100 100 100 75 28 5 6 5 3 0 1 0 1 4 5
10 80 100 100 100 99 100 100 100 100 100 100 99 100 100 100 100 100 100 100 100 100 100 100 100 100 100 100 100 91 100 87 92 62 100 96 37 5 5 4 1 3 5
35 54 100 100 100 100 100 100 100 100 100 100 100 100 100 100 100 100 100 100 100 100 100 100 100 100 100 100 99 100 100 100 100 100 100 100 57 6 5 3 5 5 4
53 90 100 100 100 100 100 75 74 93 100 100 100 100 100 100 100 100 100 100 100 100 100 100 100 100 100 100 100 100 100 100 100 89 99 100 100 100 13 5 5 5 5
34 89 84 100 100 100 100 100 100 73 24 74 100 100 100 100 100 100 100 100 100 100 100 100 100 100 100 100 100 100 100 100 100 100 100 100 100 79 8 5 5 5 5
59 68 12 62 100 100 100 100 100 100 100 52 12 99 100 100 100 100 100 100 100 100 100 100 100 100 100 100 100 100 100 100 100 100 38 57 48 61 6 5 5 5 12
0 0 57 36 100 100 100 100 100 100 100 100 100 100 100 100 100 100 100 100 100 100 100 100 100 100 100 100 100 100 100 100 100 100 97 54 36 74 49 28 6 5 5
5 37 64 94 100 100 100 100 100 100 100 100 100 100 100 100 100 100 100 100 100 100 100 100 100 100 100 100 100 100 100 100 100 100 100 100 96 74 50 91 94 48 42
93 86 100 100 100 100 100 100 100 100 100 100 100 100 100 100 100 100 100 100 100 100 100 100 100 100 100 100 100 100 100 100 100 100 90 100 100 100 100 85 74 73 45
100 100 100 100 99 100 100 100 100 100 100 100 100 100 100 100 100 100 100 100 100 100 100 100 100 100 100 100 100 100 100 100 100 100 100 100 100 100 100 100 88 98 88
54 38 38 97 98 95 100 100 100 100 100 100 100 100 100 100 100 100 100 100 100 100 100 100 100 100 100 100 100 100 100 100 69 100 100 97 100 100 100 100 100 100 100
8 42 24 19 38 100 100 100 100 100 100 100 100 100 100 100 100 100 100 100 100 100 100 100 100 100 100 100 100 100 100 96 100 100 100 99 100 100 100 100 100 100 100
12 38 27 40 70 76 100 100 100 100 100 100 100 100 100 100 100 100 100 100 100 100 100 100 100 100 100 100 96 97 99 100 100 100 100 100 92 73 98 96 100 82 71
100 100 100 100 80 93 99 100 100 100 100 100 100 100 100 100 100 100 100 100 100 100 100 100 99 92 100 100 100 100 100 100 100 100 80 100 100 100 100 98 7 5 5
100 100 100 100 100 100 100 100 100 100 100 100 100 100 100 100 100 100 100 100 100 100 90 100 97 100 100 100 100 100 100 100 100 99 55 100 100 100 49 5 3 5 5
100 100 100 100 100 100 100 100 100 100 100 100 100 100 100 100 100 100 100 100 100 100 100 100 100 100 100 100 99 98 100 100 100 93 69 100 27 5 0 0 0 5 5
100 100 100 100 100 100 100 100 100 100 100 100 100 100 100 100 100 100 100 100 100 100 100 100 100 100 100 100 100 100 98 58 62 19 5 8 4 5 3 0 0 0 3
100 100 100 100 99 98 92 99 100 100 100 100 100 100 100 100 100 100 100 100 100 100 100 100 100 100 100 71 46 41 10 5 90 97 47 5 5 15 44 0 2 0 0

GFSMA_prec_cloud_042.txt.gz
Cloud_Cover
29 62 39 70 42 58 42 9 8 5 1 0 0 0 0 4 1 2 2 5 5 4 5 2 5 2 4 0 0 0 0 0 0 0 0 0 0 0 0 0 0 0 0
76 36 20 46 13 5 5 5 0 2 0 0 0 0 0 0 1 5 5 5 5 5 5 5 5 5 3 0 0 0 0 0 0 0 0 0 0 0 0 0 0 0 0
26 45 7 36 5 67 5 20 5 5 5 5 5 4 5 5 5 5 5 5 5 5 5 5 5 5 5 5 5 0 0 0 0 3 2 0 0 0 0 0 0 0 0
7 5 8 4 1 5 16 24 18 5 5 17 74 82 58 11 86 43 50 85 6 5 25 100 100 73 99 16 5 5 4 0 1 5 5 4 0 0 0 0 0 0 0
5 5 5 6 2 5 7 90 100 7 50 56 100 91 83 45 5 67 79 96 91 99 93 83 93 71 100 88 67 5 3 5 5 5 17 100 5 0 0 0 0 0 0
53 2 0 0 0 0 5 7 96 80 100 99 72 100 100 99 94 100 51 12 6 6 26 5 42 100 100 100 100 99 99 87 6 5 5 77 87 5 1 0 0 0 0
86 5 3 5 2 0 5 5 27 67 58 52 81 100 97 98 100 100 100 77 10 6 71 92 70 100 100 100 100 100 100 100 98 58 6 100 95 5 5 5 5 5 1
25 8 2 5 5 5 28 75 91 99 85 18 5 11 30 72 93 26 56 62 100 100 100 100 100 100 100 100 100 100 100 100 98 97 51 100 86 6 40 5 6 5 5
0 0 38 22 17 5 17 21 40 96 96 97 94 62 74 100 100 100 100 100 100 100 100 100 100 100 100 100 100 100 100 100 100 100 11 5 63 100 38 73 4 3 3
1 3 0 30 99 79 95 84 50 100 100 100 80 99 100 99 100 100 100 100 100 100 100 100 100 100 100 100 100 100 100 100 99 100 56 97 100 100 64 100 96 25 5
27 34 6 8 100 100 98 6 7 25 12 16 65 63 90 100 100 100 100 100 100 100 100 100 100 100 100 100 100 100 100 100 100 100 100 100 100 100 100 100 100 100 100
85 100 100 46 82 100 100 100 100 78 100 98 96 81 100 100 69 97 100 80 100 100 100 100 100 100 100 100 100 100 100 100 100 100 100 100 100 80 87 62 80 100 95
100 52 36 13 14 40 93 100 100 100 100 100 96 42 42 82 100 100 100 99 96 100 100 100 100 100 100 100 100 100 100 100 100 100 100 100 81 74 100 82 92 56 39
82 100 79 5 5 66 62 86 100 100 100 100 100 100 100 100 98 100 100 100 100 100 100 100 100 100 100 100 100 100 100 100 100 100 100 100 100 100 88 100 100 100 100
5 5 19 85 85 78 100 100 100 100 100 100 100 100 100 100 100 100 100 100 100 100 100 100 100 100 100 100 100 100 100 100 100 100 100 100 100 100 100 100 89 21 85
5 5 63 4 2 78 100 100 100 99 100 100 100 100 100 100 100 100 100 100 100 100 100 100 100 100 100 100 100 100 100 100 100 100 100 100 100 100 100 100 90 100 100
77 69 51 5 13 98 100 100 100 100 100 100 100 100 100 100 100 100 100 100 100 100 100 100 100 100 100 100 100 100 100 100 100 100 100 100 100 100 100 100 100 100 100
100 48 92 91 100 100 100 100 100 100 100 100 100 100 100 100 100 100 100 100 100 100 100 100 100 100 100 100 100 100 100 100 100 100 100 100 100 100 100 100 32 76 65
0 0 0 7 76 94 99 100 73 70 100 100 100 100 100 100 100 100 100 100 100 100 100 100 100 100 100 100 100 100 100 100 100 100 100 100 100 100 72 53 75 60 54
0 0 0 7 17 36 43 64 97 98 100 100 100 100 100 100 100 100 100 100 100 100 100 100 100 100 100 100 100 100 100 100 100 100 100 100 50 32 100 92 100 99 100
65 39 41 66 53 96 84 78 26 95 95 100 100 100 100 100 100 100 100 100 100 100 100 100 100 100 100 100 100 100 100 100 97 100 80 17 26 77 94 83 17 20 100
36 92 98 74 100 86 99 100 47 85 89 100 100 100 100 100 100 100 100 100 100 100 100 100 100 100 100 100 100 99 90 100 100 87 89 100 23 20 82 58 98 8 20
100 100 100 100 100 100 100 100 89 100 100 100 100 100 100 100 100 100 100 100 100 100 100 100 100 100 100 100 89 94 99 100 100 100 100 100 93 99 85 56 5 5 5
100 100 100 100 100 100 100 100 87 64 66 99 100 100 100 100 100 100 100 100 100 100 100 100 100 100 100 100 100 100 100 100 100 99 99 99 46 22 5 5 5 5 5
100 100 100 100 100 100 100 87 39 65 58 86 100 100 100 100 100 100 100 100 100 100 100 100 100 100 100 100 100 100 100 100 100 71 28 23 5 5 3 1 0 0 0
100 100 100 97 45 19 58 10 5 5 34 67 78 100 100 100 100 100 100 100 100 100 100 100 98 96 91 92 71 49 25 5 64 46 18 5 6 5 27 5 0 0 2

GFSMA_prec_cloud_045.txt.gz
Cloud_Cover
5 5 5 6 5 16 21 5 34 73 12 1 0 0 0 0 2 5 5 5 17 84 37 3 6 49 5 5 5 5 5 1 2 3 0 0 0 0 0 0 0 0 0
26 78 93 96 95 53 82 84 39 8 5 5 5 4 5 5 5 10 17 75 57 100 100 15 12 14 55 60 100 99 61 5 1 0 0 0 0 0 0 4 0 0 0
100 100 100 100 100 57 16 8 5 5 5 62 69 85 24 5 5 28 100 100 32 91 98 99 66 99 100 100 81 17 5 5 5 0 0 0 0 0 1 41 5 0 0
100 100 100 100 89 62 8 3 2 3 5 70 73 46 46 5 7 99 100 100 100 100 100 100 79 83 84 26 5 33 70 5 5 5 2 4 3 3 5 33 87 23 5
100 100 95 38 5 0 2 7 2 5 10 56 21 5 5 8 12 27 99 100 100 81 13 8 70 96 98 7 24 27 96 99 73 80 39 48 37 32 6 5 81 50 5
98 8 5 5 72 21 5 0 1 5 5 35 10 5 5 4 5 5 5 87 75 94 48 18 76 55 41 96 99 100 100 87 100 100 100 100 96 5 5 5 10 5 11
34 95 100 99 13 5 5 5 5 5 8 57 100 35 5 10 57 100 37 5 94 100 100 100 100 100 100 100 100 100 100 100 100 100 100 100 100 33 70 47 4 2 4
97 56 73 93 6 0 1 0 2 6 24 62 74 53 35 72 100 100 100 100 100 100 100 100 100 100 100 100 100 100 100 100 100 100 100 100 100 45 55 6 5 9 11
5 5 5 3 17 46 26 4 5 65 100 100 100 89 64 27 53 100 100 79 29 11 53 100 100 100 100 100 100 100 100 100 100 100 100 99 100 81 54 96 26 6 12
5 0 0 3 5 0 7 34 60 78 70 97 44 81 52 12 5 5 44 80 65 96 100 100 94 99 100 100 100 100 100 100 100 100 100 100 100 100 100 99 8 74 100
5 0 0 0 12 5 5 5 15 100 50 18 80 100 100 57 63 51 50 94 100 99 99 100 99 83 98 100 100 100 100 100 100 100 100 100 100 100 100 100 100 100 100
6 5 2 5 4 9 20 85 100 100 100 96 74 81 97 74 76 78 72 97 100 100 100 100 96 96 62 100 100 100 100 100 100 100 100 100 100 100 100 100 100 100 100
5 5 5 88 21 34 5 23 27 45 67 94 96 86 100 100 96 100 100 100 100 98 100 100 100 100 94 100 100 100 100 100 100 100 100 100 100 100 100 100 100 100 100
5 5 49 89 89 92 94 54 100 25 50 75 97 98 100 100 100 100 100 100 100 100 100 100 100 100 100 97 100 100 100 100 100 100 100 100 100 100 100 100 100 100 100
94 30 95 48 6 82 100 22 5 88 94 41 41 70 98 51 100 100 100 100 100 100 100 100 100 100 100 100 100 100 100 100 100 100 100 100 100 100 100 100 100 100 100
87 89 62 5 5 36 6 27 82 98 99 100 100 100 100 100 100 100 100 100 100 100 100 100 100 100 100 100 100 100 100 100 100 100 100 100 100 100 100 100 100 100 100
100 74 44 52 19 13 6 1 10 12 92 98 93 100 100 100 100 100 100 100 100 100 100 100 100 100 100 100 100 100 100 100 100 100 100 100 100 100 100 100 100 100 100
90 87 47 76 0 7 99 97 100 100 100 93 96 95 100 100 100 100 100 100 100 100 100 100 100 100 100 100 100 100 100 100 100 100 100 100 100 100 100 100 100 100 100
5 5 5 1 0 1 35 99 100 97 100 100 100 100 100 100 100 100 100 100 100 100 100 100 100 100 100 100 100 100 100 100 100 100 100 100 100 100 100 100 100 100 100
3 0 0 0 0 0 0 2 24 75 80 93 100 100 100 100 100 100 100 100 100 100 100 100 100 100 100 100 100 100 100 100 100 100 100 100 100 100 100 100 100 100 100
39 83 35 68 44 48 46 0 9 29 43 94 100 100 100 100 100 100 100 100 100 100 100 100 100 100 100 100 100 100 100 100 100 100 100 100 100 100 100 100 91 100 100
86 63 89 67 77 100 100 100 66 86 78 100 100 100 100 100 100 100 100 100 100 100 100 100 100 100 100 100 100 100 97 97 100 99 96 100 97 100 100 100 100 100 52
100 100 100 100 100 100 100 100 79 100 100 100 100 99 93 100 100 100 100 100 100 100 100 100 90 100 99 99 100 94 100 97 100 100 100 100 87 100 97 76 75 9 5
100 100 100 100 100 100 100 100 56 21 51 57 47 35 33 75 67 90 100 100 96 100 100 100 99 99 100 100 100 100 100 100 100 100 100 100 100 98 84 66 27 5 5
100 100 100 100 100 100 65 9 28 13 15 32 29 7 5 5 7 7 16 15 56 94 100 100 100 100 100 100 100 100 100 92 77 58 48 59 9 6 5 5 4 4 5
100 100 57 32 5 5 5 2 5 5 5 5 4 0 1 2 5 5 5 5 5 16 45 74 75 25 5 5 5 5 5 49 70 50 5 30 12 8 31 5 5 4 5

GFSMA_prec_cloud_048.txt.gz
Cloud_Cover
47 5 12 19 22 32 24 33 56 72 100 8 5 5 34 6 5 15 8 3 1 1 38 73 100 66 7 10 78 82 39 90 100 59 6 5 5 5 0 0 0 0 0
13 5 10 22 50 81 100 100 93 100 26 32 59 33 78 75 6 8 6 5 4 5 17 100 100 100 71 39 100 67 97 100 62 46 94 5 5 0 0 0 0 5 1
100 99 83 100 100 100 100 100 100 68 5 92 73 100 90 80 75 13 39 5 5 8 74 71 60 56 99 100 100 71 100 89 62 53 99 65 5 5 3 0 0 0 0
100 100 100 100 100 100 100 100 71 47 7 5 8 74 42 24 15 8 5 5 5 5 5 5 5 87 100 84 100 100 99 100 74 92 89 100 93 67 51 5 5 5 5
77 100 100 100 100 100 100 75 12 5 5 5 3 4 3 4 5 5 35 55 89 59 7 5 5 5 65 44 39 40 28 82 100 100 100 100 97 100 100 99 100 28 5
76 100 100 100 100 100 100 52 14 5 6 5 3 11 25 7 6 74 86 99 85 100 100 100 100 93 98 100 98 100 100 100 100 100 100 100 100 100 100 100 100 59 29
100 100 100 100 100 70 33 5 5 5 5 5 82 100 99 12 100 100 94 100 100 100 100 100 100 100 100 99 100 100 100 100 100 100 100 100 100 100 100 100 100 100 73
100 100 100 100 87 13 19 25 5 5 5 2 24 77 100 26 51 5 5 5 22 8 11 12 19 7 51 74 100 100 100 100 100 100 100 100 100 100 100 99 46 50 99
100 100 100 100 100 45 5 5 2 5 0 1 5 57 12 19 45 53 54 54 16 55 100 100 100 100 100 100 100 100 100 100 100 100 100 100 100 100 100 99 96 65 6
35 20 8 11 7 5 5 4 4 0 21 27 10 75 97 65 50 70 89 93 86 78 100 100 100 100 100 100 100 100 100 100 100 100 100 100 100 100 100 100 100 100 100
82 67 36 5 27 31 5 2 2 18 15 34 85 100 100 68 99 58 76 45 48 78 72 88 100 100 100 100 100 100 100 100 100 100 100 100 100 100 100 100 100 100 100
98 100 99 34 8 17 28 16 5 9 18 94 99 99 99 82 97 100 83 54 93 100 100 100 100 100 100 100 100 100 100 100 100 100 100 100 100 100 100 100 100 100 94
66 11 5 9 55 43 16 23 35 46 44 58 40 52 82 100 100 100 100 86 94 100 100 100 100 100 100 100 100 100 100 100 100 100 100 100 100 100 100 100 100 100 100
88 5 5 8 5 56 16 5 24 65 38 66 52 96 100 96 84 100 100 100 100 65 74 100 100 100 100 100 100 100 100 100 100 100 100 100 100 100 100 100 100 100 100
5 23 54 58 99 86 26 58 66 100 100 88 72 63 96 100 100 100 100 100 100 100 80 100 100 100 100 100 100 100 100 100 100 100 100 100 100 100 100 100 100 100 100
100 100 76 61 32 17 42 18 23 74 68 84 99 100 100 100 100 100 100 100 100 100 100 100 100 100 100 100 100 100 100 100 100 100 100 100 100 100 100 100 100 100 100
100 70 88 93 19 5 5 30 18 16 42 99 88 100 100 100 100 100 100 99 89 100 100 100 100 100 100 100 100 100 100 100 100 100 100 100 100 100 100 100 100 100 100
83 100 93 10 5 5 5 7 2 1 15 95 100 100 100 100 100 100 100 100 100 100 100 100 100 100 100 100 100 100 100 100 100 100 100 100 100 100 100 100 100 100 100
99 60 25 21 53 10 18 0 31 67 95 100 98 100 100 100 100 100 100 100 100 100 100 100 100 100 100 100 100 100 100 100 100 100 100 100 100 100 100 100 100 100 100
77 31 50 31 12 3 0 0 0 0 6 96 100 100 100 98 100 100 100 100 100 100 100 100 100 100 100 100 100 100 100 100 100 100 100 100 100 100 100 100 100 100 100
100 70 13 27 83 99 70 15 39 86 93 99 99 100 95 99 97 100 100 99 100 100 100 100 100 100 100 100 100 100 100 100 100 100 98 100 100 100 100 100 100 100 100
100 95 87 100 100 100 100 100 100 100 100 100 100 100 100 100 100 100 100 100 100 100 100 100 100 100 100 100 98 100 100 96 77 51 99 100 97 100 100 100 100 100 100
100 100 100 100 100 98 100 99 100 100 100 100 89 53 79 81 70 59 70 86 90 100 85 69 59 70 70 33 9 20 87 84 74 9 5 61 5 6 5 16 100 99 97
100 100 100 100 100 100 99 68 28 40 52 59 45 40 31 20 41 32 24 7 5 5 4 9 49 10 5 5 8 92 92 99 93 86 94 75 59 8 6 5 5 5 5
100 100 100 100 92 12 5 5 28 33 9 14 8 5 4 4 5 5 5 5 5 5 5 23 12 5 8 39 22 43 66 63 23 8 40 27 6 5 5 5 5 5 5
100 36 16 54 7 5 5 5 2 5 5 3 0 0 4 5 7 31 5 5 5 5 5 5 6 5 5 2 5 5 5 44 77 16 5 30 11 11 49 5 5 5 5

GFSMA_prec_cloud_051.txt.gz
Cloud_Cover
5 5 7 16 25 25 32 20 14 64 36 32 48 41 100 100 84 62 70 7 5 5 4 2 5 7 5 31 100 100 6 28 92 83 100 99 54 6 6 5 5 0 0
9 6 8 12 22 32 27 33 83 100 99 98 50 48 54 31 56 94 13 80 5 5 5 5 5 18 26 5 12 80 97 68 60 55 63 94 67 51 23 82 11 7 13
35 6 8 17 91 100 100 79 89 100 89 88 5 7 5 24 5 51 40 10 32 5 5 5 6 20 54 6 15 20 91 94 92 48 15 93 96 85 94 100 100 29 14
94 21 97 97 81 86 83 99 100 100 95 5 5 5 5 5 54 7 17 68 5 4 5 5 5 12 46 14 5 5 8 36 93 100 100 100 100 100 100 100 100 100 100
92 100 100 100 100 100 100 100 100 94 10 5 5 5 8 5 5 4 1 2 2 6 88 93 25 5 19 30 73 100 100 100 100 100 100 100 100 100 100 100 100 100 100
100 100 100 100 99 97 100 100 100 62 24 5 5 5 50 79 42 5 5 5 5 77 100 100 98 100 100 93 30 82 100 100 100 100 100 100 100 100 100 100 100 100 100
16 37 89 100 100 100 100 100 77 39 9 5 13 5 5 5 22 1 3 5 38 45 56 72 100 100 100 100 90 100 100 100 100 100 100 100 100 100 100 100 100 100 100
98 100 100 100 100 100 100 76 25 5 12 23 30 43 64 11 5 7 5 6 10 27 98 100 100 100 100 93 100 100 100 100 100 100 100 100 100 100 100 100 100 100 100
100 100 100 100 100 100 100 100 82 46 24 76 8 86 100 70 24 62 35 26 43 86 100 69 81 95 100 100 100 100 100 100 100 100 100 100 100 100 100 100 100 100 100
100 100 100 100 100 100 100 99 78 60 69 62 45 32 88 100 100 87 19 96 99 45 5 10 15 20 46 56 100 100 100 100 100 100 100 100 100 100 100 100 100 100 100
39 5 18 38 41 45 47 82 96 92 30 46 98 100 98 100 100 99 100 34 10 32 30 40 18 61 100 100 100 100 100 100 100 100 100 100 100 100 100 100 100 100 100
59 62 71 20 79 86 69 42 48 15 35 47 74 100 100 100 100 100 100 100 100 95 100 90 14 29 67 100 100 100 100 100 100 100 100 100 100 100 100 100 100 100 100
100 100 100 100 100 100 100 100 90 68 91 75 98 100 90 89 90 100 100 100 100 100 95 100 46 79 45 94 100 100 100 100 100 100 100 100 100 100 100 100 100 100 100
90 78 96 86 91 58 90 51 65 81 94 100 100 100 62 77 25 100 100 100 100 100 100 64 2 56 27 89 85 95 100 100 100 100 100 100 100 100 100 100 100 100 100
98 74 70 99 91 100 100 94 100 100 100 100 100 100 99 99 88 31 95 94 100 100 100 100 100 100 100 81 61 85 100 100 100 100 100 100 100 100 100 100 100 100 100
100 100 95 96 95 93 29 46 46 66 99 99 100 100 100 100 100 100 100 100 100 100 100 100 70 92 94 89 69 100 100 100 100 100 100 100 100 100 100 100 100 100 100
100 100 95 88 87 69 51 5 23 37 91 100 77 56 100 100 96 100 100 100 100 100 100 100 100 100 100 100 100 100 100 100 100 100 100 100 100 100 100 100 100 100 100
100 90 100 100 71 27 14 5 48 67 68 59 67 100 100 99 100 100 100 100 100 100 100 100 100 100 100 100 100 100 100 100 100 100 100 100 100 100 100 100 100 100 100
100 98 70 15 38 54 5 40 54 61 93 86 74 45 4 8 57 100 100 100 100 100 99 100 100 100 100 100 100 100 100 100 100 100 100 100 100 100 100 100 100 100 100
96 97 25 61 44 5 14 62 67 82 87 94 89 70 31 37 78 100 95 75 63 61 88 100 100 100 100 100 100 100 100 100 100 100 100 100 100 100 100 100 100 100 100
83 27 92 100 100 100 100 100 100 100 100 100 100 100 100 100 99 94 100 100 100 100 100 100 100 100 100 100 100 100 100 100 100 100 100 100 100 100 100 100 100 100 100
100 100 100 100 100 100 100 100 100 100 100 100 100 100 95 100 100 100 100 100 100 50 90 64 97 99 100 97 70 85 62 47 61 33 6 47 89 99 84 100 76 99 100
100 100 100 96 76 100 100 100 100 100 97 36 19 22 55 11 71 60 20 6 75 94 97 33 7 17 20 6 5 8 5 5 5 5 18 27 15 78 53 74 63 6 22
100 100 100 49 35 78 65 51 19 20 64 100 76 51 16 5 5 8 5 5 5 4 5 5 5 5 5 5 5 5 5 5 5 5 5 67 5 5 5 5 8 5 5
100 100 100 74 5 5 5 5 12 28 5 5 4 2 4 5 5 34 5 5 5 5 8 40 5 5 5 8 9 5 5 45 17 5 5 5 5 5 8 18 26 17 5
100 60 19 74 7 5 5 5 1 0 4 2 0 0 5 6 17 19 5 5 5 20 12 5 4 20 4 3 2 1 5 40 74 6 5 35 11 5 53 2 5 12 62

GFSMA_prec_cloud_054.txt.gz
Cloud_Cover
5 2 9 11 21 27 41 32 11 5 5 5 5 34 29 8 5 5 6 5 22 5 5 20 5 5 6 0 0 5 47 74 99 28 89 100 84 77 26 19 40 48 16
5 5 5 6 8 23 24 32 58 15 6 5 5 7 16 5 5 5 6 5 6 15 5 5 5 15 84 27 11 16 12 12 28 11 20 10 64 49 96 98 98 98 95
2 5 5 8 6 11 29 47 28 19 23 82 52 93 58 5 5 26 5 6 5 5 5 5 15 19 71 100 89 25 7 28 18 32 18 62 97 93 98 100 100 100 100
5 5 5 5 15 37 84 35 24 47 83 53 72 64 6 5 17 5 12 7 11 7 5 5 5 3 4 5 100 46 60 100 100 100 100 100 100 100 100 100 100 100 100
3 4 5 6 17 83 45 37 100 86 92 82 71 6 5 6 6 24 5 5 5 8 11 5 5 5 5 5 28 40 93 81 89 100 100 100 100 100 100 100 100 100 100
21 8 54 86 96 100 86 58 81 80 100 71 32 20 31 20 56 71 38 18 8 5 5 5 5 32 12 69 35 37 87 100 83 84 100 100 100 100 100 100 100 100 100
5 13 80 100 58 100 100 100 100 100 100 15 79 73 5 6 41 72 54 10 5 5 5 5 16 16 11 59 57 100 100 100 100 80 51 100 100 100 100 100 100 100 100
5 5 37 81 91 93 100 100 100 28 29 72 64 100 100 98 100 95 35 19 9 6 40 14 48 20 13 94 70 18 100 100 99 100 100 100 100 100 100 100 100 100 100
30 60 58 58 61 97 100 100 86 100 100 100 92 88 100 100 100 100 79 53 25 18 32 84 59 78 47 19 71 100 100 100 100 100 100 100 100 100 100 100 100 100 100
100 100 100 100 100 100 100 100 100 100 100 100 100 100 100 100 100 96 100 100 94 84 100 72 70 100 98 100 100 100 100 100 100 100 100 100 100 100 100 100 100 100 100
100 100 100 100 100 100 100 100 100 100 100 100 100 100 100 98 100 100 100 100 92 100 99 100 58 98 61 100 43 98 100 100 100 100 100 100 100 100 100 100 100 100 100
100 100 100 100 100 100 100 100 100 100 98 87 100 100 95 100 100 100 100 100 100 76 18 82 86 88 100 60 100 99 99 100 99 100 100 100 100 100 100 100 100 100 100
100 100 100 100 100 92 100 100 100 100 100 100 100 100 100 100 82 100 92 97 95 61 87 100 100 100 60 0 24 14 6 61 90 100 100 100 100 100 100 100 100 100 100
100 100 100 100 100 100 100 100 100 100 100 100 100 100 100 74 34 73 100 99 98 100 82 14 71 32 7 0 79 100 100 100 58 100 100 100 100 100 100 100 100 100 100
100 100 100 100 100 100 100 100 100 100 100 100 100 100 100 100 96 66 100 100 100 100 100 100 95 100 71 63 60 79 26 10 73 100 100 100 100 100 100 100 100 100 100
100 100 100 100 100 100 100 100 92 88 100 88 61 94 100 100 100 100 100 98 100 100 100 100 100 100 100 100 98 22 100 100 100 98 100 100 100 100 100 100 100 100 100
100 100 100 100 100 98 72 65 58 68 100 95 74 40 84 100 94 76 100 100 98 100 100 100 100 100 100 100 100 100 100 100 100 100 100 100 100 100 100 100 100 100 100
100 100 100 100 89 37 67 77 5 5 5 6 5 100 100 89 57 100 100 100 100 100 100 100 100 95 80 100 100 100 100 100 100 100 100 100 100 100 100 100 100 100 100
58 51 73 66 81 74 77 27 75 61 55 54 26 100 64 4 26 33 90 100 100 98 83 97 100 100 98 100 100 100 100 100 100 100 100 100 100 100 100 100 100 100 100
99 94 69 100 88 100 95 100 100 100 100 100 100 100 82 32 21 38 69 74 84 100 100 100 100 96 99 100 100 100 100 100 100 100 100 100 100 100 100 100 100 100 100
100 100 100 100 100 100 100 100 100 100 100 100 100 100 100 100 100 100 100 100 100 100 100 100 99 91 92 100 100 100 100 100 100 100 100 100 80 74 92 100 100 100 100
100 100 100 100 100 100 100 100 100 100 98 65 100 67 99 98 85 100 100 100 100 100 98 75 48 32 23 21 14 23 19 13 11 5 5 5 5 5 5 6 42 99 100
100 100 100 100 100 100 100 100 100 39 8 5 7 11 6 5 25 8 5 5 12 20 35 26 5 5 5 7 5 5 5 5 5 5 5 5 5 5 4 3 5 7 30
100 100 100 100 100 100 100 73 10 11 99 100 55 60 6 5 12 5 5 5 5 26 15 5 5 5 5 5 5 5 5 5 5 5 5 85 5 5 5 5 5 5 5
100 100 100 100 100 100 47 5 11 5 5 5 4 5 5 8 18 62 5 5 5 64 51 40 13 20 9 12 6 5 8 55 18 5 5 6 5 5 5 5 5 72 37
100 100 100 100 100 76 5 0 0 0 0 0 5 5 5 5 24 20 5 7 70 71 81 75 46 55 6 5 5 5 22 55 74 6 4 38 21 5 11 5 5 5 35

GFSMA_prec_cloud_057.txt.gz
Cloud_Cover
0 0 0 4 4 1 3 4 5 5 5 5 5 12 41 12 13 5 21 6 83 5 5 5 23 5 5 5 6 5 2 0 0 0 0 16 6 6 14 9 17 77 91
1 5 0 4 5 5 5 5 5 5 5 5 36 60 20 61 69 48 22 23 5 5 5 5 6 28 49 100 49 32 18 15 5 9 15 5 7 16 75 85 94 99 100
5 5 5 5 5 5 5 4 5 5 5 5 5 64 76 98 76 84 16 5 12 6 5 5 30 7 76 31 100 100 58 67 12 44 75 67 55 99 100 100 100 100 100
11 5 5 5 5 5 5 5 5 30 9 6 11 92 94 63 100 84 5 8 28 5 9 51 5 5 5 5 59 100 100 99 84 80 35 21 84 100 100 100 100 100 100
7 5 5 5 5 13 8 11 6 5 6 25 92 100 50 97 97 15 20 18 10 17 80 5 5 5 5 2 4 78 100 100 15 18 59 82 100 100 100 100 100 100 100
23 7 5 5 20 40 52 62 23 40 81 30 73 100 100 49 48 81 65 66 78 96 6 5 5 5 5 7 5 64 40 100 100 90 91 100 100 100 100 100 100 100 100
24 34 96 75 59 92 21 5 13 5 37 84 93 92 100 99 100 13 98 100 100 20 6 5 5 5 5 5 5 5 5 5 24 50 60 68 71 99 100 100 100 100 100
89 100 100 100 100 51 30 58 73 41 96 100 67 83 99 99 37 100 100 100 90 62 14 5 5 5 5 5 5 5 9 100 100 100 100 97 97 95 100 80 69 100 100
100 100 100 100 100 99 100 97 82 100 100 100 98 72 93 90 100 100 100 100 97 77 31 10 8 5 5 40 88 94 100 100 100 100 100 100 100 90 100 100 100 100 100
100 100 92 85 100 100 100 100 100 100 100 100 100 100 100 100 100 100 96 100 100 86 91 95 64 82 89 100 100 100 100 100 100 100 99 100 100 100 100 94 100 100 100
56 63 60 100 100 100 100 100 100 100 100 100 100 100 100 100 84 100 100 100 99 100 36 100 6 42 92 100 76 100 100 100 100 100 100 97 88 100 100 100 100 100 100
100 100 100 100 100 100 100 100 100 100 100 100 100 100 97 100 85 100 100 100 99 96 94 5 12 15 26 66 81 80 33 42 100 100 100 81 100 100 98 100 100 100 100
100 100 100 100 100 100 100 100 100 100 100 100 100 100 100 100 100 100 100 100 100 99 54 97 61 5 61 95 55 9 2 94 100 100 100 100 100 99 69 100 100 100 100
100 100 100 100 100 100 100 100 100 100 100 100 100 100 100 100 100 100 100 37 66 100 100 69 5 96 1 80 14 8 0 0 14 44 69 100 100 100 100 100 100 100 100
100 100 100 100 100 100 100 100 100 100 100 100 100 100 100 100 100 94 100 100 100 100 100 100 3 99 91 100 100 96 13 0 5 45 67 89 76 100 100 100 100 100 100
100 100 100 100 100 100 100 100 100 100 100 100 100 96 92 95 78 87 100 100 100 100 99 100 100 81 100 100 100 100 96 31 100 96 77 75 97 100 100 100 100 100 100
100 100 100 100 100 100 100 100 100 100 100 100 99 100 98 84 100 100 100 100 100 88 99 100 100 90 94 39 100 100 99 100 100 99 100 100 100 100 100 100 100 100 100
100 100 100 100 100 100 97 95 87 96 90 70 100 98 67 84 33 34 59 97 80 100 99 100 98 98 100 71 100 98 85 100 77 100 100 100 100 100 100 98 100 100 100
96 70 39 36 41 47 32 43 95 92 100 97 100 100 100 82 32 50 48 56 42 78 71 88 97 95 92 99 84 70 100 99 100 99 82 93 44 63 97 99 100 100 100
8 24 80 98 56 100 100 100 100 100 100 100 100 100 98 23 93 73 72 72 96 100 100 100 100 96 100 100 100 100 78 100 100 100 100 100 89 100 100 100 100 100 100
76 100 100 100 100 100 100 100 100 100 100 100 100 100 100 100 100 100 100 100 100 92 87 100 100 94 77 77 100 83 44 16 36 12 40 17 17 32 23 34 32 62 75
100 100 100 100 100 100 100 100 100 100 100 100 100 100 99 98 99 100 100 100 100 75 83 95 30 15 7 16 55 6 5 11 5 5 5 0 0 0 0 0 0 0 0
100 100 100 100 100 100 100 100 98 100 100 100 100 61 5 5 3 5 5 5 5 5 5 5 5 5 38 73 43 34 39 11 5 5 5 0 1 0 0 0 1 4 5
100 100 100 100 100 100 100 100 100 100 94 98 87 6 5 5 6 5 5 5 5 10 5 5 5 7 75 99 72 62 16 6 5 5 5 4 4 0 0 2 4 5 5
100 100 100 100 100 100 100 100 100 87 100 100 23 5 3 5 26 5 3 0 2 5 9 6 9 63 80 34 8 6 46 5 5 5 5 5 5 5 5 5 5 61 20
100 100 100 100 100 100 100 100 100 100 100 100 5 0 5 5 6 5 5 3 5 5 5 7 25 5 5 5 44 34 5 5 5 5 5 5 5 5 7 3 2 0 0

GFSMA_prec_cloud_060.txt.gz
Cloud_Cover
0 1 4 2 2 1 0 0 1 0 4 5 3 3 5 4 5 5 5 5 5 5 54 78 30 9 43 100 21 8 4 0 0 2 0 0 1 2 4 16 7 5 100
0 0 2 5 5 5 5 5 5 5 5 4 5 5 5 5 5 5 32 5 26 8 9 5 16 55 92 100 100 96 23 10 5 16 22 5 56 98 7 25 10 5 99
0 0 4 5 5 8 11 12 6 5 5 5 5 5 5 5 7 75 100 98 98 98 10 11 90 100 79 78 100 100 100 100 98 7 43 5 38 5 5 5 5 93 100
4 6 5 5 9 16 8 8 11 15 7 13 11 24 22 50 91 100 100 100 100 60 98 42 99 93 20 5 13 67 100 98 98 6 5 45 8 57 69 68 98 100 100
61 7 17 7 36 36 38 18 26 22 31 52 49 16 23 30 55 100 93 100 94 100 72 74 16 5 5 5 22 96 28 40 96 58 5 20 78 6 24 94 99 100 100
94 52 28 22 38 54 26 36 26 64 65 46 54 46 46 49 60 20 41 99 100 97 51 5 5 5 5 5 5 2 18 96 37 48 5 5 5 5 5 43 88 84 91
100 100 35 58 64 71 60 57 100 74 52 67 84 100 100 92 96 73 100 100 86 69 5 5 5 5 5 5 3 4 5 4 80 77 100 67 5 5 14 98 100 100 100
100 100 84 61 74 75 51 65 99 95 100 92 100 100 100 100 100 100 100 98 37 5 14 5 5 5 5 5 5 5 1 7 5 57 66 100 100 89 32 5 6 64 97
100 100 100 100 99 100 100 100 100 100 100 100 100 100 100 100 100 100 100 100 98 60 64 52 15 31 70 34 19 84 100 100 100 64 100 68 84 100 100 99 47 68 89
100 100 100 100 100 100 100 100 100 100 100 100 100 100 100 100 100 100 100 100 100 100 100 88 100 76 97 98 98 100 100 100 100 100 18 66 92 89 100 100 98 100 58
100 100 100 100 100 100 100 100 100 100 100 100 100 100 100 100 100 100 100 100 100 100 100 100 100 12 99 5 3 13 75 100 100 100 4 84 43 99 96 83 100 100 100
100 100 100 100 100 100 100 100 100 100 100 100 100 100 100 100 100 100 100 89 100 100 96 11 5 5 9 5 54 15 89 100 87 76 0 94 63 86 100 68 97 100 100
100 100 100 100 100 100 100 100 100 100 100 100 100 100 100 100 100 100 100 100 100 65 63 10 17 6 5 71 79 1 24 24 0 10 83 100 100 87 71 99 98 100 100
100 100 100 100 100 100 100 100 100 100 100 100 100 100 100 100 100 100 100 100 100 100 97 54 93 12 5 63 5 85 65 0 0 0 34 77 58 72 78 100 95 100 88
100 100 100 100 100 100 100 100 100 100 100 100 100 100 100 100 100 100 100 100 100 100 100 100 76 39 51 26 58 100 33 0 39 91 88 13 18 38 47 82 82 100 100
100 100 100 100 100 100 100 100 100 100 100 100 100 100 100 100 100 100 100 100 92 100 100 100 100 66 98 91 33 79 76 96 84 100 98 63 36 61 100 100 100 100 100
100 100 100 100 100 100 100 100 100 100 100 100 100 100 100 100 100 100 100 100 88 100 100 100 100 100 96 41 58 90 99 98 98 100 100 100 100 100 100 100 100 100 100
100 100 100 100 100 100 100 100 100 100 100 100 42 26 24 9 100 100 100 63 12 67 56 99 90 98 81 66 95 100 91 100 99 94 100 100 100 100 100 100 100 98 14
89 91 100 100 100 100 100 100 100 100 41 5 18 100 100 100 100 100 80 60 74 77 98 100 100 85 100 71 100 98 67 72 65 93 76 97 100 100 99 95 98 98 90
7 20 36 30 26 49 91 100 96 98 96 100 100 100 100 100 100 99 90 79 98 64 85 94 100 97 100 100 100 100 88 43 19 8 5 20 5 5 8 92 25 93 84
71 93 100 100 100 98 100 100 100 100 100 100 100 100 100 99 92 92 99 63 53 72 93 98 98 98 98 100 80 67 29 8 52 33 5 5 5 5 5 5 5 5 8
100 100 100 100 100 100 100 100 100 100 100 100 100 100 100 100 100 100 92 86 49 74 94 98 84 39 43 5 5 5 5 51 99 6 5 17 5 5 2 0 0 0 1
100 100 100 100 100 100 100 100 100 100 100 100 100 78 100 92 96 5 98 9 5 5 4 1 0 1 2 5 5 11 48 76 56 82 84 6 5 5 5 1 0 5 5
100 100 100 100 100 100 100 100 100 100 100 100 100 100 100 100 90 5 14 4 5 5 5 5 5 5 5 5 7 21 51 28 72 92 78 30 5 5 5 5 5 5 33
100 100 100 100 100 100 100 100 100 100 100 100 100 100 100 100 61 100 37 4 0 4 5 5 3 4 5 5 5 5 6 5 14 70 61 54 19 6 5 17 5 5 5
100 100 100 100 100 100 100 100 100 100 100 100 100 100 100 84 54 66 6 3 5 1 5 5 5 5 5 5 5 5 14 5 42 34 72 82 47 66 58 13 5 5 5

GFSMA_prec_cloud_063.txt.gz
Cloud_Cover
5 0 0 0 0 2 5 4 1 2 1 4 5 5 5 0 2 5 5 5 5 8 60 100 100 100 100 100 83 6 12 12 2 3 1 0 0 5 4 13 17 9 10
5 5 4 0 0 0 0 0 0 16 16 14 5 5 5 5 3 5 5 5 8 5 85 100 100 56 100 96 96 100 94 77 15 5 14 0 4 5 5 5 5 5 5
42 6 5 5 5 4 0 0 5 5 6 6 8 41 32 16 5 10 5 5 5 5 5 5 11 96 55 18 66 52 36 90 96 29 1 15 6 5 5 5 5 5 78
67 22 63 61 26 29 24 19 24 28 31 23 20 21 22 14 13 26 5 62 72 8 5 28 98 37 45 50 86 10 28 7 4 2 0 5 5 6 5 5 5 5 51
100 99 74 59 88 48 35 33 33 22 16 63 100 74 46 24 70 100 88 31 67 70 96 54 54 99 100 57 5 5 7 34 23 0 0 1 5 5 5 5 5 5 18
94 100 94 36 100 100 100 100 100 100 100 100 100 97 72 75 100 96 98 95 100 100 96 83 99 98 62 5 5 5 5 1 22 89 54 57 17 5 5 5 5 5 78
98 94 100 100 100 100 100 100 100 100 100 67 96 70 100 100 100 100 100 100 100 96 100 100 100 61 5 5 5 5 5 1 7 41 100 100 95 35 6 5 5 5 7
100 100 99 100 100 100 100 100 100 100 100 100 100 100 100 100 100 100 100 100 98 86 90 59 38 5 5 20 25 5 5 5 6 5 66 100 100 100 88 80 43 13 5
100 100 100 100 100 100 100 100 100 100 100 100 100 100 99 100 100 100 100 100 92 55 24 5 5 46 72 38 100 95 62 93 98 68 55 12 10 90 100 100 100 99 39
99 60 96 100 100 100 100 100 100 100 100 100 100 100 100 100 100 100 100 100 100 93 7 5 8 99 100 100 52 100 41 36 76 100 90 100 81 17 98 97 94 100 71
100 100 100 100 100 100 100 100 100 100 100 100 100 100 100 100 100 100 100 100 100 100 96 5 33 37 60 6 5 6 87 66 6 5 96 95 47 89 25 98 100 100 32
100 100 100 100 100 100 100 100 100 100 100 100 100 100 100 100 100 100 100 100 100 100 97 100 74 5 95 95 44 62 60 15 31 81 93 58 94 100 95 73 98 100 80
100 100 100 100 100 100 100 100 100 100 100 100 100 100 100 100 100 100 100 100 100 94 92 100 98 97 100 52 8 5 5 5 5 10 2 61 58 79 90 70 61 33 99
100 100 100 100 100 100 100 100 100 100 100 100 100 100 100 100 100 100 100 100 100 100 100 99 100 100 94 11 5 5 30 5 12 10 4 2 2 0 8 10 0 56 46
100 100 100 100 100 100 100 100 100 100 100 100 100 100 100 100 100 100 100 100 100 86 97 99 100 100 14 18 5 13 28 98 100 100 98 72 3 0 9 28 73 78 88
64 99 97 100 100 100 100 100 100 100 100 100 100 100 100 100 100 100 100 100 100 100 100 100 100 88 95 19 38 54 100 100 100 100 100 100 99 97 100 100 100 100 100
83 88 100 100 100 100 100 100 100 100 100 100 100 100 100 100 100 100 100 80 95 96 100 100 100 87 77 92 30 93 100 100 100 100 100 100 100 100 100 100 100 100 100
86 78 59 94 100 100 100 100 100 100 100 100 100 100 100 100 47 68 56 98 100 100 100 100 100 94 82 57 61 100 100 98 81 60 90 100 99 100 100 100 100 100 100
5 47 51 94 100 100 100 100 100 100 100 100 100 100 95 83 35 49 54 99 100 100 100 100 100 86 98 71 100 100 98 17 53 35 6 48 82 56 100 100 100 100 100
89 59 6 5 45 53 43 83 95 88 96 86 91 27 21 32 98 100 100 100 100 100 100 100 95 100 92 100 91 78 45 16 5 5 5 5 5 5 5 19 24 15 5
100 100 98 97 100 98 100 100 100 100 100 100 97 97 100 94 100 100 100 100 100 100 100 100 100 100 100 100 78 36 5 5 5 1 3 5 5 10 5 5 5 5 5
100 100 100 100 100 100 100 100 100 100 100 100 100 100 100 100 100 100 100 100 100 71 99 100 100 97 92 5 5 4 0 3 5 0 5 5 5 5 5 5 5 4 1
100 100 100 100 100 100 100 100 100 100 100 100 99 100 100 100 100 100 100 100 100 91 100 100 7 5 0 0 5 5 5 5 5 4 2 4 5 5 5 5 5 5 5
100 100 100 100 100 100 100 100 100 100 100 100 100 100 100 100 100 100 100 80 100 100 88 26 4 5 5 5 5 5 5 5 5 5 5 5 5 5 5 5 5 5 5
100 100 100 100 100 100 100 100 100 96 100 100 100 100 100 100 100 100 100 97 100 93 58 13 7 2 0 1 0 1 5 5 5 5 5 5 5 5 5 26 11 5 5
100 100 100 100 100 100 100 100 100 100 100 100 100 100 100 100 100 100 100 100 100 97 98 19 5 0 0 2 1 0 5 5 5 7 5 5 11 5 7 25 14 54 14

GFSMA_prec_cloud_066.txt.gz
Cloud_Cover
48 25 5 5 2 0 0 0 0 0 0 0 0 0 0 0 0 1 5 5 5 5 5 5 10 28 5 5 5 5 5 5 5 18 5 0 0 0 0 10 5 13 10
39 27 22 5 5 5 5 4 5 5 5 5 5 0 0 0 0 0 0 0 1 5 5 37 5 12 12 26 5 49 14 5 27 5 3 4 0 0 1 5 5 10 5
55 96 55 9 24 5 5 5 5 5 5 5 5 5 5 5 5 5 5 5 5 64 79 6 25 38 98 23 6 6 5 5 5 2 5 4 2 0 5 5 5 5 5
98 84 36 43 99 52 36 51 76 81 71 29 30 60 70 55 72 19 55 28 81 52 72 84 93 45 57 6 26 24 43 32 1 4 5 4 0 4 5 4 5 5 5
100 97 76 90 92 100 100 99 100 100 100 100 100 100 100 100 100 99 99 100 70 100 100 100 96 65 14 56 21 50 39 17 99 36 5 5 5 5 5 5 5 5 5
100 100 72 52 96 100 100 100 100 100 100 100 100 100 100 100 100 100 100 98 85 73 17 66 85 50 54 49 83 30 6 5 5 60 100 75 89 38 5 16 5 5 5
100 100 98 100 100 100 100 100 100 100 100 100 100 100 100 100 100 100 100 100 58 64 56 5 48 100 100 80 18 12 24 10 16 26 5 100 98 100 64 5 4 15 5
100 100 100 100 100 100 100 100 100 100 100 100 100 100 100 100 100 100 100 100 100 100 100 96 100 100 99 92 95 33 45 27 17 58 41 5 5 79 70 46 79 56 68
100 100 100 100 100 100 100 100 100 100 100 100 100 100 100 100 100 100 100 100 100 100 100 100 100 99 40 100 100 100 100 100 98 97 89 86 50 2 40 64 71 100 96
100 100 88 100 100 98 98 100 100 100 100 100 100 100 99 74 100 100 100 100 100 100 100 100 100 52 41 20 13 8 91 100 98 43 5 7 90 33 39 52 52 92 72
100 100 100 100 100 100 100 100 100 100 100 100 100 100 100 100 100 100 100 100 100 100 100 100 92 90 84 26 5 5 100 100 15 25 7 6 11 90 66 71 36 42 100
100 100 100 100 100 100 100 100 100 100 100 100 100 100 100 100 100 100 100 100 100 100 100 100 100 74 100 82 5 19 100 100 82 5 4 96 62 95 100 99 47 35 61
100 100 100 100 100 100 100 100 100 100 100 100 100 100 100 100 100 100 100 100 100 100 100 100 100 100 100 11 8 100 100 100 73 19 9 8 0 0 1 0 16 28 0
92 100 100 100 100 100 100 100 100 100 100 100 100 100 100 100 100 100 100 100 100 100 100 100 100 90 16 5 25 100 100 100 98 99 60 38 7 0 0 0 1 38 0
100 83 100 100 100 100 100 100 100 100 100 100 100 100 100 100 100 100 100 100 100 100 100 100 96 23 19 64 100 100 100 100 100 100 100 100 66 4 3 1 76 96 60
99 48 45 70 80 80 100 100 100 100 100 100 100 100 100 100 100 100 100 100 100 100 100 100 100 100 95 98 100 100 100 100 100 100 100 100 100 100 100 100 100 100 100
72 87 82 100 93 100 99 52 99 82 100 100 100 100 100 100 100 100 100 100 100 100 100 99 100 100 100 100 100 99 100 100 100 100 100 100 100 100 100 100 100 100 100
98 100 80 91 100 100 100 100 39 80 100 100 100 100 100 100 100 100 100 100 94 99 36 100 100 100 100 100 94 100 100 100 100 26 63 100 100 92 100 100 100 100 100
100 100 100 100 89 99 99 88 78 34 6 29 87 94 90 76 94 63 96 100 100 100 98 100 100 100 100 100 100 98 90 4 0 0 1 0 5 32 94 80 100 100 100
100 100 100 100 100 100 93 94 29 13 50 31 70 56 68 57 87 100 100 100 100 100 100 100 100 100 100 100 100 36 6 0 5 5 4 5 5 5 5 5 25 70 79
100 100 100 100 100 100 100 100 100 100 100 100 100 100 92 100 100 100 100 100 100 100 100 100 100 100 100 100 97 31 5 2 0 0 0 0 0 2 5 5 5 5 5
100 59 100 100 100 100 100 100 100 100 100 100 100 100 100 100 100 100 100 100 100 100 100 100 100 100 100 100 9 94 3 5 5 0 0 0 0 5 5 5 5 5 5
56 100 100 100 100 100 100 100 100 100 100 100 100 100 100 100 99 99 100 100 100 100 100 100 100 100 100 95 57 21 5 5 5 1 0 0 1 3 5 5 5 5 5
88 100 100 100 100 100 100 100 100 100 100 100 100 100 100 100 100 100 100 100 100 100 100 100 100 100 100 100 99 5 5 5 4 1 0 5 0 3 5 5 26 24 5
100 100 100 100 100 100 100 98 69 100 100 100 100 100 92 100 100 100 100 100 100 100 100 100 100 100 100 100 43 14 5 5 5 0 2 0 5 5 5 5 5 5 5
100 100 100 100 100 100 100 82 58 100 100 100 100 100 100 100 100 100 100 100 100 100 100 100 100 100 100 100 79 49 5 5 17 5 4 5 6 5 9 5 5 5 5

GFSMA_prec_cloud_069.txt.gz
Cloud_Cover
11 13 8 5 5 5 5 5 3 2 1 5 5 5 5 5 5 7 5 5 5 20 14 5 9 34 14 5 5 5 5 5 5 5 11 5 5 5 11 5 5 4 15
90 57 13 17 10 5 5 5 5 5 5 5 49 33 45 39 46 95 97 100 100 64 12 14 53 11 73 82 15 5 5 5 19 5 67 5 5 5 2 3 2 3 5
100 100 99 100 51 9 6 5 5 6 16 57 69 66 89 15 24 36 100 96 65 100 100 58 5 5 46 6 22 52 16 13 5 12 47 5 5 5 3 2 3 5 5
100 100 100 100 100 100 32 7 42 98 60 22 19 6 23 67 100 100 98 100 100 99 34 100 100 18 29 78 27 67 89 94 99 28 4 0 0 5 5 5 5 4 5
100 100 100 100 100 100 88 30 56 65 100 99 100 100 100 100 100 100 100 100 81 58 100 100 100 100 100 100 100 100 100 51 14 100 99 41 6 12 5 5 5 3 5
100 100 100 100 100 91 100 100 100 100 100 100 100 100 90 93 100 100 100 100 85 46 93 64 96 100 100 100 100 91 96 5 5 4 75 100 99 20 17 5 5 5 5
100 100 100 100 100 100 100 100 100 100 100 100 100 100 91 84 100 100 100 100 98 100 59 70 74 100 100 100 100 90 93 29 16 5 29 16 63 67 99 15 5 4 1
100 100 100 100 100 100 100 100 100 100 100 100 99 94 98 100 100 100 100 100 100 99 100 91 100 100 100 95 100 100 100 90 26 6 36 13 87 95 100 95 98 100 46
100 100 100 100 100 100 100 100 100 100 100 99 98 100 100 100 100 100 100 100 100 100 100 100 100 99 100 100 100 93 7 5 34 26 6 100 100 100 33 89 94 100 85
100 100 100 100 100 100 100 100 100 100 91 94 100 100 100 100 100 100 100 100 100 100 100 100 100 92 100 97 100 77 65 26 5 5 91 100 100 100 53 3 7 68 100
100 100 100 100 100 100 100 100 100 99 99 91 100 100 100 100 100 86 98 100 100 100 100 100 87 100 100 100 100 100 85 16 3 5 14 100 100 100 94 99 100 55 19
100 100 100 98 100 100 100 100 100 100 100 100 100 100 100 78 100 100 100 100 100 100 100 100 100 100 100 100 100 100 60 5 5 5 93 100 96 54 86 91 95 61 90
100 100 100 100 100 100 100 100 100 100 100 100 100 100 100 100 100 100 100 100 100 100 100 100 100 100 100 100 100 38 5 13 16 100 99 62 7 0 0 0 0 2 12
100 100 100 100 100 100 100 100 100 100 100 100 100 100 100 100 100 100 100 100 100 100 100 100 100 100 100 100 80 5 51 76 100 100 100 100 76 0 0 1 6 5 5
100 100 100 100 99 98 94 95 98 100 100 100 100 100 100 100 100 100 100 100 100 100 100 100 100 100 99 100 100 100 80 100 100 100 100 100 100 99 77 38 82 100 99
96 94 100 100 99 100 94 40 32 78 9 60 60 87 83 100 100 100 100 100 100 100 100 100 100 100 81 86 100 98 92 95 100 100 100 100 100 100 100 100 100 100 100
100 100 76 93 99 100 86 63 81 31 53 34 42 33 88 100 100 97 100 100 100 100 100 100 99 100 99 100 100 98 100 100 100 100 100 100 100 100 100 100 100 100 100
99 100 100 100 96 83 66 54 97 80 90 92 98 77 100 100 100 100 100 100 100 100 96 100 100 100 100 100 100 100 100 100 100 100 48 95 94 89 32 100 100 100 100
100 100 100 100 100 100 100 98 99 99 99 100 100 100 100 100 100 100 98 100 100 100 100 100 100 100 100 100 100 100 100 100 100 47 5 5 2 5 68 65 77 91 100
100 100 100 100 100 88 88 100 99 100 100 100 100 100 100 100 100 100 100 100 100 100 100 78 100 100 100 100 100 100 100 100 100 95 16 5 0 0 3 3 5 5 17
8 36 100 100 100 100 100 84 100 99 100 100 100 100 100 100 100 100 100 100 100 100 100 100 100 100 100 100 100 100 100 100 100 91 20 37 4 0 0 0 0 1 3
0 28 100 100 100 100 100 100 100 100 100 100 100 100 100 100 100 100 100 100 100 100 100 100 100 100 100 100 100 100 100 100 100 8 52 12 5 0 0 0 0 0 0
0 0 1 84 100 100 100 100 100 100 100 100 100 100 100 100 100 100 100 100 100 100 100 100 100 100 100 100 100 100 100 100 99 33 12 5 0 4 5 0 0 0 5
0 0 26 99 100 100 100 100 100 100 100 100 95 100 100 100 100 100 96 100 100 100 100 100 100 100 100 100 100 100 100 100 100 59 8 5 5 5 5 5 0 4 3
45 45 96 100 100 100 100 100 100 100 100 60 50 64 100 100 100 100 100 100 100 100 100 100 100 100 100 100 100 100 100 100 100 28 6 5 5 5 5 5 5 5 3
83 96 100 100 100 100 100 47 100 100 100 72 99 100 100 100 100 100 100 100 100 100 100 100 100 100 100 100 100 100 100 100 100 59 5 5 6 5 7 5 5 5 5

GFSMA_prec_cloud_072.txt.gz
Cloud_Cover
32 91 37 7 6 6 10 22 56 64 6 6 5 12 11 44 42 5 8 5 5 86 74 98 78 36 47 8 5 5 5 5 5 31 86 5 1 0 3 12 15 15 23
100 100 97 62 24 5 15 82 69 14 38 47 57 73 43 62 45 40 15 11 49 27 100 100 98 6 59 82 94 35 18 62 99 29 4 0 0 0 0 0 5 8 14
100 63 79 92 93 96 100 100 100 100 31 5 13 23 35 53 50 23 39 95 44 100 100 100 99 92 100 100 22 100 100 99 22 5 1 0 0 0 0 2 5 5 47
97 100 95 100 100 100 100 100 100 100 100 92 57 98 98 92 100 98 100 100 100 100 100 100 100 100 6 5 6 29 34 28 91 100 100 43 0 1 5 0 5 20 97
93 100 100 100 100 100 100 100 100 100 100 100 100 100 100 100 100 100 100 100 100 98 99 100 100 100 87 94 79 18 71 94 17 51 99 100 100 37 4 0 6 78 100
100 100 100 100 100 100 100 100 100 100 100 100 100 100 100 100 100 100 66 91 100 100 100 100 100 100 100 31 76 100 100 100 82 14 5 68 100 100 92 5 35 100 100
100 100 100 100 100 100 100 100 100 100 100 100 100 100 99 100 100 78 80 94 91 100 100 100 100 100 100 100 100 100 100 100 97 50 5 5 26 96 100 100 100 100 100
100 100 100 100 100 100 100 100 100 100 100 100 100 99 100 83 70 46 95 87 9 16 56 100 100 100 100 100 100 100 100 100 100 100 100 5 4 8 90 100 100 100 100
100 100 100 100 100 100 100 100 100 100 100 100 100 100 98 99 100 100 100 100 100 85 93 74 100 100 100 100 100 100 100 100 100 100 66 8 1 56 38 24 92 98 100
100 100 100 100 100 100 100 100 100 100 100 100 100 100 100 97 100 100 100 100 100 100 100 100 100 100 100 100 100 100 100 100 100 100 63 99 100 100 50 21 20 27 21
100 100 100 100 100 100 100 100 100 100 100 100 100 100 100 92 100 100 100 100 100 100 100 100 100 100 100 100 100 100 100 100 100 44 12 88 100 47 81 100 100 100 82
100 100 100 100 100 100 100 100 100 84 73 76 100 100 100 100 100 100 100 100 100 100 100 100 100 100 100 100 100 100 100 100 46 12 28 87 37 17 54 36 54 75 100
100 100 100 100 100 98 100 89 85 78 89 76 98 100 100 100 100 100 100 100 100 100 100 100 100 100 100 100 100 100 100 94 76 7 75 98 67 100 35 1 1 0 18
100 100 100 100 100 100 100 100 99 100 100 99 100 100 90 100 100 100 100 99 100 100 100 100 100 99 100 100 100 100 96 61 57 90 100 100 98 99 34 5 4 4 15
100 100 100 100 100 100 100 100 62 61 100 100 98 45 83 99 94 67 97 72 90 100 77 100 100 76 100 100 100 100 100 99 98 100 100 100 76 100 100 100 100 100 100
100 100 100 100 100 100 100 100 100 100 100 98 72 30 36 19 77 75 100 100 100 100 100 100 95 100 100 100 100 100 100 100 100 100 100 100 100 100 100 100 100 100 100
100 100 88 97 76 71 79 91 85 87 63 63 81 46 6 19 99 96 99 100 100 100 100 100 100 100 100 100 100 100 100 100 100 100 100 100 93 100 100 100 100 100 100
100 100 100 100 100 99 96 98 100 98 100 100 98 99 81 95 100 100 100 100 100 100 100 100 100 100 100 100 100 100 78 100 81 100 80 97 100 100 69 100 100 100 100
61 98 100 100 100 100 100 100 100 100 100 99 100 100 100 100 100 100 100 100 100 100 100 100 100 100 100 100 100 100 100 100 100 100 100 100 100 100 91 98 32 100 100
0 4 100 100 100 93 30 100 100 100 100 100 100 100 100 100 100 100 100 100 100 100 100 100 100 100 100 100 100 100 100 100 100 100 100 100 100 86 98 21 5 5 5
2 4 93 70 89 100 90 42 98 100 100 100 100 100 99 97 98 100 100 100 100 100 100 100 100 100 100 100 100 100 100 100 100 100 100 100 100 100 16 5 6 6 5
0 0 0 0 3 16 67 99 100 100 100 100 100 100 100 100 100 100 100 100 100 100 100 100 100 100 100 100 100 100 100 100 100 100 100 100 100 100 36 5 5 38 5
0 0 0 0 0 0 74 100 100 100 100 100 100 100 100 92 9 59 81 93 100 91 74 95 100 100 100 100 100 100 100 100 100 100 100 100 100 100 45 34 5 15 5
0 0 0 0 0 25 98 100 100 100 100 100 100 100 86 5 5 18 92 100 100 100 100 88 92 100 100 100 100 100 100 100 100 100 99 100 100 95 63 10 54 38 5
11 3 4 11 34 78 100 100 100 100 100 100 100 94 62 100 98 100 100 75 100 100 100 100 100 100 100 100 100 100 100 100 100 100 100 100 100 100 62 38 58 96 6
85 81 100 91 99 100 100 100 86 99 100 100 95 72 100 100 100 100 100 100 100 100 100 100 100 100 100 100 100 100 100 100 100 100 100 100 100 100 64 45 48 23 5

GFSMA_prec_cloud_075.txt.gz
Cloud_Cover
100 55 45 74 23 15 35 5 8 28 10 60 98 88 97 86 33 15 39 41 5 92 39 52 100 100 100 17 5 5 5 5 5 5 5 5 0 0 0 0 1 0 0
98 89 100 98 100 90 51 18 56 51 72 100 100 100 100 100 100 88 23 98 100 100 100 100 100 100 76 77 31 100 83 17 8 6 13 6 3 2 5 3 4 2 0
100 100 100 81 100 74 75 30 84 99 100 100 100 100 100 100 100 100 100 100 100 100 100 100 65 100 100 9 9 97 93 56 99 75 95 100 53 39 5 5 4 0 0
100 100 100 100 98 84 55 73 81 100 100 100 100 100 100 100 100 100 100 98 100 100 100 100 99 100 67 5 5 98 100 17 89 81 100 100 100 100 5 3 1 0 3
100 100 100 99 100 82 99 100 100 100 100 100 100 100 100 99 100 87 59 93 50 64 88 78 89 64 97 92 22 98 99 100 100 100 100 100 100 100 71 5 0 0 5
100 100 100 100 100 100 100 100 100 100 100 100 100 100 100 100 80 98 100 100 100 81 55 86 71 100 100 100 100 100 100 100 100 100 100 100 100 100 100 100 34 5 5
100 100 100 100 100 100 100 100 100 100 100 100 100 100 100 100 100 100 100 100 69 74 100 100 100 100 100 100 100 100 100 100 100 100 100 100 100 100 91 100 100 16 10
100 100 100 100 100 100 100 100 100 100 100 100 100 100 100 100 91 97 85 97 100 95 93 100 77 92 100 100 100 88 100 100 100 100 100 100 100 100 62 58 100 100 100
100 100 100 100 100 100 100 100 100 100 100 100 94 92 100 100 100 100 100 100 98 51 97 90 93 100 100 100 100 100 100 100 100 100 100 100 100 100 16 9 12 30 95
100 100 100 100 100 100 100 100 100 100 98 32 41 8 20 67 100 100 100 100 100 100 100 100 100 100 100 100 100 100 100 100 100 100 100 100 100 100 14 10 40 66 100
100 100 100 100 100 100 100 100 100 86 83 97 99 100 92 95 100 100 100 100 100 100 100 100 100 100 100 100 100 100 100 100 100 100 100 100 100 95 89 34 58 48 100
100 100 100 100 100 100 100 100 100 100 60 90 56 20 22 95 43 36 92 100 100 100 100 100 100 100 100 100 92 100 100 100 100 96 100 100 100 100 99 22 69 73 28
100 100 100 100 100 100 100 100 100 100 86 98 78 80 69 92 100 100 100 100 100 100 100 100 100 100 76 18 100 100 100 100 100 5 49 100 100 100 98 8 13 22 54
100 100 100 100 100 100 100 100 100 100 100 100 100 100 100 100 100 100 100 100 100 100 100 100 28 72 84 98 96 89 100 100 94 78 100 100 100 100 88 5 14 61 6
100 100 100 100 100 100 100 100 100 100 100 100 100 100 100 99 83 100 100 100 100 99 100 100 100 43 97 99 100 100 100 100 100 100 96 100 99 98 99 100 100 100 100
100 100 100 100 100 100 100 100 100 100 100 100 100 100 100 87 91 49 61 94 93 100 74 71 100 100 100 100 100 100 100 100 100 100 100 100 100 96 99 100 100 100 100
100 100 100 100 100 100 100 100 100 100 100 100 100 100 92 70 100 95 95 95 100 100 100 100 100 100 100 100 100 100 100 100 100 100 100 100 94 100 100 100 100 100 100
100 100 100 100 100 100 100 100 91 60 89 88 98 71 84 68 100 100 100 100 100 100 100 100 100 100 100 100 100 100 100 100 100 100 100 100 100 100 100 100 100 100 100
100 100 94 68 42 64 95 89 100 100 51 89 100 95 100 100 100 100 100 100 100 100 100 100 100 100 100 100 100 100 100 100 100 100 100 100 98 100 100 100 100 100 100
20 48 29 52 64 54 42 5 4 1 0 26 100 100 100 100 100 100 100 100 100 100 100 100 100 100 100 100 100 100 100 100 100 100 100 100 100 100 100 100 100 100 80
0 0 0 0 0 0 0 0 0 5 20 98 100 96 99 100 100 100 100 100 100 100 100 100 100 100 100 100 100 100 100 100 100 100 100 100 100 100 100 100 100 100 100
0 3 0 0 0 0 0 0 45 97 100 100 100 100 100 100 100 100 100 100 100 100 100 100 100 100 100 100 100 100 100 100 100 100 100 100 100 100 100 100 100 100 100
0 0 0 0 0 0 0 6 25 100 100 100 100 100 100 100 100 85 22 68 94 100 100 100 100 100 89 94 100 100 100 100 100 100 100 100 100 100 100 100 100 100 100
0 0 0 0 0 0 0 56 89 100 100 100 100 100 100 100 63 5 11 5 16 100 100 100 98 100 100 100 100 100 100 100 100 100 100 100 100 100 100 100 100 100 100
2 0 0 0 0 0 3 99 100 100 100 100 100 100 100 94 5 98 53 91 100 100 100 99 100 100 100 100 98 100 100 100 100 100 100 100 100 100 100 100 100 100 100
65 38 100 99 6 16 56 100 100 100 100 100 100 100 94 17 99 9 100 100 100 100 100 100 100 100 100 100 100 100 100 100 100 100 100 100 100 100 100 100 100 100 100

GFSMA_prec_cloud_078.txt.gz
Cloud_Cover
98 100 88 26 21 42 10 77 100 97 75 42 46 44 70 93 51 80 74 100 100 100 100 100 100 90 97 100 54 31 16 5 100 5 7 100 100 100 100 56 36 69 5
76 100 100 88 84 20 5 5 21 30 100 99 92 99 94 100 100 100 100 100 79 48 100 100 100 82 19 31 43 56 93 100 88 65 83 100 100 92 98 100 51 95 2
100 100 100 99 83 58 98 98 100 99 100 84 81 78 99 100 100 100 100 9 24 100 100 100 100 100 100 78 30 82 70 94 36 98 95 100 100 100 100 100 100 98 28
51 100 100 100 94 100 90 100 100 100 93 91 100 100 100 100 100 100 100 100 98 51 99 100 100 100 97 80 81 81 8 10 5 5 12 100 100 100 100 100 100 100 99
98 100 95 90 98 97 99 100 100 100 100 100 100 100 100 100 100 100 100 98 52 98 84 92 94 58 70 71 11 13 5 15 10 52 100 100 100 100 100 100 76 100 94
95 95 100 100 100 99 100 100 100 100 100 100 100 100 100 100 100 100 94 100 100 97 100 100 45 80 69 8 41 98 91 100 100 100 100 100 100 99 100 100 100 72 94
99 100 100 100 100 100 100 100 100 93 99 100 100 100 100 43 25 100 98 97 100 87 26 98 65 35 92 30 100 100 100 100 100 88 100 100 100 98 100 100 100 66 6
100 100 100 100 100 100 100 100 100 100 100 100 100 91 98 97 96 86 34 69 59 28 6 37 68 53 98 65 95 100 100 100 100 69 100 100 100 100 100 100 88 70 100
100 100 100 100 100 100 100 100 100 100 100 100 100 88 58 71 90 92 59 10 66 6 88 82 99 100 92 91 100 100 100 100 100 100 67 88 100 100 100 100 38 25 51
100 97 100 100 100 100 100 100 100 100 100 84 73 88 100 100 100 100 100 98 86 62 82 53 98 100 100 100 100 100 100 100 100 99 100 100 100 62 71 100 82 100 98
100 100 100 100 100 100 100 100 100 100 100 100 49 67 9 5 70 100 82 99 80 90 100 100 100 100 100 100 100 100 100 100 30 94 33 17 100 100 100 70 99 80 100
100 100 100 100 100 100 100 100 100 100 100 100 97 88 70 41 77 27 82 100 100 100 100 94 91 100 100 100 100 99 98 100 28 100 5 82 100 100 100 100 98 98 100
100 100 100 100 100 100 100 100 100 100 100 100 99 100 94 100 100 93 100 100 100 100 100 100 100 100 100 100 100 100 98 19 100 91 5 63 98 100 100 100 100 100 99
100 100 100 100 100 100 100 100 100 97 100 100 100 100 100 100 100 100 100 100 100 100 95 100 100 100 100 96 100 100 95 100 100 94 100 100 100 100 100 100 100 100 100
100 100 100 100 100 100 100 100 100 100 100 100 100 100 100 100 100 94 94 70 100 100 100 100 100 95 100 100 80 66 100 100 100 100 100 100 100 100 100 100 100 100 100
100 100 100 100 100 100 100 100 100 100 100 100 95 99 100 100 90 100 99 84 100 100 100 93 81 85 88 100 100 100 99 100 100 100 100 100 100 100 100 100 100 100 100
100 100 100 100 100 100 100 100 100 100 100 100 100 100 100 98 100 100 100 100 100 97 100 100 98 100 100 100 100 100 100 100 100 100 100 100 100 100 100 100 100 100 100
100 100 100 100 100 100 100 100 100 100 100 100 100 100 100 100 83 100 65 58 75 100 99 100 100 100 100 100 100 100 100 100 100 100 100 100 100 100 100 100 100 100 100
100 100 100 100 100 100 100 100 100 100 100 100 100 100 98 67 15 40 93 53 100 100 100 100 100 100 100 100 100 100 100 100 100 100 100 100 100 100 100 100 100 100 100
94 100 100 100 100 87 29 67 94 92 25 56 44 22 80 100 100 100 100 100 100 100 100 100 100 100 100 100 100 100 100 100 99 100 100 100 100 100 100 100 100 100 100
39 45 39 94 100 98 82 70 31 22 17 25 100 100 100 100 100 100 100 100 100 100 100 100 100 100 100 100 100 100 100 86 65 100 100 100 100 100 100 100 100 100 100
92 99 100 100 100 99 95 9 0 0 0 31 100 100 100 100 100 100 100 100 100 100 100 100 100 100 100 100 100 100 98 99 99 34 99 100 100 100 100 100 100 100 100
7 2 4 5 3 0 0 0 0 10 13 14 100 100 100 100 100 100 99 72 96 100 100 100 100 100 100 100 93 100 100 100 100 100 100 100 100 100 100 100 100 100 100
5 13 5 2 0 0 0 0 89 83 100 100 100 100 100 100 100 100 16 5 5 5 70 36 71 100 53 99 96 100 100 100 100 100 100 100 100 100 100 100 100 100 100
34 5 5 0 0 0 0 47 98 100 100 76 100 100 100 100 100 38 5 5 5 33 18 87 100 100 100 100 100 100 100 100 100 100 100 100 100 100 100 100 100 100 100
24 25 100 81 4 5 0 92 100 100 72 90 100 100 100 100 95 5 3 5 42 74 51 100 100 100 100 100 100 100 100 100 100 100 100 100 100 100 100 100 100 100 100

GFSMA_prec_cloud_081.txt.gz
Cloud_Cover
100 100 100 100 100 100 94 63 74 28 5 7 5 17 6 41 50 71 14 73 19 100 69 15 77 98 82 68 98 99 87 10 6 5 5 5 2 12 94 90 78 92 86
100 100 98 100 100 100 100 100 100 34 63 25 84 94 100 100 35 86 88 26 73 100 100 98 100 94 86 92 100 92 95 88 10 36 22 5 24 100 99 94 31 100 100
16 5 66 80 100 100 94 80 96 98 63 93 100 100 100 100 66 73 95 91 100 100 100 89 54 60 62 99 52 63 92 46 60 5 8 32 98 95 100 94 100 100 100
90 83 65 48 89 100 100 98 56 6 93 100 100 73 100 100 100 43 15 5 6 93 100 50 82 82 69 97 29 19 72 5 5 5 9 26 100 99 100 99 100 100 100
64 100 91 57 57 100 100 100 96 76 100 100 100 100 100 100 97 68 6 5 6 91 79 87 88 97 100 74 26 5 5 5 14 13 100 99 100 98 80 96 60 100 100
87 96 72 90 100 100 96 45 69 100 99 100 100 100 68 12 5 5 5 14 73 35 42 24 31 26 4 77 47 67 77 7 78 100 100 21 100 25 15 93 96 99 100
100 100 66 74 100 100 100 100 99 100 94 98 100 72 52 6 5 5 31 31 100 83 90 17 6 2 0 5 25 95 46 100 98 48 89 100 100 100 66 94 100 100 100
96 100 100 93 100 99 100 100 99 81 100 100 71 98 46 4 1 5 5 53 98 71 5 18 4 1 0 0 96 71 100 99 65 100 78 100 100 22 31 100 98 68 98
100 100 100 100 100 100 100 97 82 100 100 100 100 97 7 7 14 20 54 62 12 5 5 0 0 4 7 80 100 100 100 100 100 100 100 92 9 5 14 9 11 100 47
100 100 100 100 100 100 100 100 100 100 100 93 32 7 6 90 67 100 93 20 66 79 5 4 38 99 87 90 100 100 98 31 100 100 100 33 17 5 43 7 61 100 100
100 100 100 100 100 100 100 100 100 100 100 100 100 27 23 30 89 100 92 100 45 14 99 92 70 96 98 100 58 26 12 58 100 99 100 51 91 5 64 90 51 100 100
100 100 100 100 100 100 100 100 100 100 100 100 97 100 100 97 64 35 84 100 92 96 100 100 100 100 90 100 95 99 100 100 100 100 92 94 91 18 96 100 46 100 100
100 100 100 100 100 100 100 100 100 100 100 100 95 100 100 96 84 96 85 63 86 100 100 78 100 85 98 100 100 100 100 100 100 100 99 100 86 100 100 100 98 95 99
100 100 100 100 100 100 100 100 100 100 100 100 100 100 100 100 100 100 100 92 100 100 100 84 50 74 100 100 100 100 100 100 100 100 100 100 100 88 100 100 99 100 100
100 100 100 100 100 100 100 100 100 100 100 100 100 100 100 100 100 100 100 100 100 79 40 97 100 100 100 83 100 100 100 100 100 100 100 100 100 100 100 98 100 100 100
100 100 100 100 100 100 100 100 100 100 100 100 100 100 100 100 100 99 86 100 100 100 100 100 100 100 94 94 99 100 100 100 100 100 100 100 100 100 100 100 100 100 100
100 100 100 100 100 100 100 100 100 100 100 100 100 100 88 100 100 100 100 97 100 100 100 100 100 100 100 100 100 100 100 100 100 100 100 100 100 100 100 100 100 100 100
100 100 100 100 100 100 100 100 100 100 100 100 91 85 97 100 99 99 100 100 100 100 100 100 98 100 100 100 100 100 100 100 100 100 100 100 100 100 100 100 100 100 100
100 100 100 100 100 100 96 95 100 100 100 100 100 100 100 100 100 100 100 100 100 93 100 100 100 100 97 100 100 100 100 100 100 100 98 88 96 100 100 100 100 100 100
75 100 100 100 100 99 100 100 100 100 100 100 100 100 100 100 86 95 100 100 100 100 100 100 100 100 100 100 100 100 100 100 98 100 11 99 90 100 100 100 100 100 100
100 100 100 100 100 100 100 100 100 100 100 100 100 100 100 100 100 100 100 100 100 100 100 100 100 100 100 100 100 100 100 100 100 86 95 99 100 100 93 100 100 100 100
100 100 100 100 100 100 100 100 100 100 100 99 98 49 80 100 99 100 100 100 100 100 100 100 100 100 100 100 100 100 100 100 95 95 100 100 100 100 100 100 100 100 100
100 100 100 100 100 100 100 84 6 5 5 5 11 28 97 100 100 100 100 100 99 88 100 100 100 100 100 100 100 100 100 59 91 100 100 100 100 100 100 100 100 100 100
76 35 53 6 19 29 54 71 96 83 98 100 100 96 100 100 100 100 100 55 5 5 5 18 63 100 100 100 84 100 78 100 100 100 100 100 100 100 100 100 100 100 100
99 90 98 70 79 91 69 25 96 100 100 94 62 51 100 100 100 100 100 7 5 3 3 3 5 5 9 31 96 97 76 100 100 100 100 100 100 100 100 100 100 100 100
98 92 100 100 100 27 21 57 100 100 100 100 49 89 100 100 100 100 26 5 5 0 5 5 50 8 27 87 100 78 97 100 100 100 100 100 100 100 100 100 100 100 100

GFSMA_prec_cloud_084.txt.gz
Cloud_Cover
100 100 14 99 100 99 100 100 100 84 37 10 35 14 5 5 12 79 100 100 81 54 73 100 94 100 78 90 96 79 5 5 5 1 0 2 0 5 66 33 57 75 7
99 100 96 91 100 78 99 73 53 91 100 100 99 5 5 5 54 100 100 6 5 64 94 99 92 26 43 50 98 7 72 5 21 0 1 5 2 67 30 100 38 85 3
100 89 99 100 75 77 100 100 100 100 100 100 100 78 12 98 86 14 97 60 99 30 94 80 28 6 5 5 49 96 20 5 4 2 20 21 71 5 87 38 100 5 5
100 100 100 94 81 69 97 99 100 100 100 100 100 48 50 6 8 96 27 6 5 5 32 74 87 66 46 13 98 68 59 8 79 34 0 2 9 34 96 100 100 22 5
100 100 100 89 100 80 5 47 100 100 100 63 98 100 100 42 100 34 7 5 3 5 7 63 15 36 12 65 89 39 10 0 6 42 4 6 77 11 62 100 77 11 57
100 100 100 99 100 73 90 46 90 100 91 98 97 99 96 98 4 9 43 79 5 64 25 42 5 6 5 5 5 1 3 0 73 28 1 77 5 74 98 98 100 70 17
100 100 100 99 100 100 90 64 100 70 6 8 5 95 91 71 5 4 79 5 5 90 99 5 5 5 5 5 5 1 1 4 5 8 5 7 100 100 100 100 100 10 36
100 100 100 100 100 100 100 100 96 96 56 51 20 44 74 6 27 6 1 0 6 29 5 5 4 21 4 7 20 11 57 88 100 87 38 75 100 60 80 91 65 12 5
100 100 100 100 100 100 100 100 66 82 69 68 97 18 76 8 4 4 2 0 3 5 5 5 5 5 5 2 0 59 100 100 98 8 53 74 100 100 80 42 61 31 77
100 100 100 100 100 100 100 100 100 100 95 100 100 96 27 9 5 5 19 8 5 5 10 70 27 5 5 5 5 6 90 95 100 58 96 100 100 88 100 100 100 100 100
100 100 100 100 100 100 100 100 100 100 100 100 100 100 100 87 100 100 100 100 100 58 65 19 5 5 12 8 5 5 12 100 38 100 93 100 100 97 100 100 100 100 100
100 100 100 100 100 100 100 100 100 100 100 100 100 100 100 100 100 100 98 97 100 95 82 61 70 23 21 100 51 56 95 100 100 97 100 100 100 100 100 100 100 100 100
100 100 100 100 100 100 100 100 100 100 100 100 100 100 100 100 100 100 91 99 100 100 100 100 100 100 96 51 38 32 91 100 100 100 100 100 100 100 100 100 100 100 100
100 100 100 100 100 100 100 100 100 100 100 100 100 100 100 100 100 100 100 100 100 100 100 100 100 94 16 78 99 97 100 100 100 100 100 100 97 97 100 100 100 100 100
100 100 100 100 100 100 100 100 100 100 100 100 100 100 100 100 100 100 100 100 100 100 100 100 100 98 84 100 100 99 100 100 100 100 100 100 100 100 100 100 100 100 100
100 100 100 100 100 100 100 100 100 100 100 100 100 100 100 100 100 100 100 100 100 100 98 100 100 100 100 100 100 100 100 100 100 100 100 100 100 100 100 100 100 100 100
100 100 100 100 100 100 100 100 100 100 100 100 100 100 100 100 100 100 100 100 100 100 92 99 100 100 100 100 100 100 100 100 100 100 100 100 100 100 100 100 100 100 100
100 100 100 100 100 100 100 100 100 100 100 100 100 100 100 100 100 100 99 100 100 100 92 98 100 100 100 100 100 100 100 100 100 100 100 100 100 100 100 100 100 100 100
100 100 100 100 100 100 100 100 100 100 100 100 100 100 100 100 100 100 100 100 100 98 100 100 100 99 100 100 100 100 100 100 100 100 100 100 99 84 100 100 100 100 100
100 100 100 100 100 100 100 100 100 100 100 100 100 100 100 100 100 100 100 56 61 73 100 94 100 100 100 98 100 100 100 100 100 100 100 100 81 30 99 97 100 86 100
100 100 100 100 100 100 100 100 100 100 100 100 100 100 100 100 100 58 65 58 100 100 100 100 100 100 100 100 100 100 100 100 100 100 100 100 6 92 59 100 100 100 100
100 100 100 100 100 100 100 100 100 94 100 100 100 100 89 6 5 62 99 100 48 100 100 100 100 100 100 100 100 100 100 100 100 100 99 62 86 40 100 100 100 100 100
99 99 100 100 100 100 100 100 89 70 100 100 100 96 78 100 100 98 65 96 100 100 96 93 100 100 100 100 100 100 100 100 100 98 6 96 97 100 100 100 100 100 100
80 58 100 87 82 100 100 100 100 97 100 100 100 98 87 65 100 100 100 99 100 22 3 3 34 93 100 100 100 100 100 100 40 62 7 100 100 100 100 100 100 100 100
100 100 100 100 100 100 100 100 100 47 94 100 100 100 100 100 99 100 58 72 43 73 3 2 1 3 7 60 32 47 29 9 60 37 71 100 100 100 100 100 100 100 100
100 100 100 100 100 100 100 100 95 100 100 100 100 98 100 96 100 94 99 100 13 4 3 3 5 0 2 5 5 5 6 29 53 7 72 100 88 100 100 100 100 100 100

GFSMA_prec_cloud_087.txt.gz
Cloud_Cover
100 100 100 100 100 100 52 40 94 100 100 100 100 100 88 98 100 5 5 98 100 9 5 5 20 65 19 56 22 5 4 5 5 4 65 16 5 5 0 5 3 39 98
100 100 100 100 100 100 100 82 100 100 100 97 100 100 99 74 10 33 47 100 67 6 5 5 97 99 97 6 5 31 70 4 5 3 0 4 5 2 0 5 5 5 60
100 100 100 100 100 100 100 100 100 100 86 88 55 96 10 23 45 36 74 54 24 33 6 5 51 27 5 5 6 5 5 3 5 5 5 6 31 5 5 8 36 6 34
100 100 100 100 100 100 100 100 100 99 92 24 34 77 22 80 100 98 88 65 96 86 5 5 5 5 4 5 5 5 4 0 5 56 4 14 0 6 26 34 88 100 100
87 100 100 100 100 100 100 100 48 61 81 15 66 100 90 84 100 100 100 82 83 54 5 5 5 4 0 1 5 5 41 5 5 4 19 0 0 0 9 18 100 100 100
100 100 100 100 100 100 100 89 70 78 52 74 39 74 100 100 100 100 100 98 14 12 47 26 5 5 2 4 3 4 1 5 0 3 81 0 0 4 5 89 100 100 96
100 100 100 100 100 100 100 99 65 99 100 93 100 100 68 20 16 25 37 5 3 5 5 5 58 5 80 7 3 2 3 5 5 0 0 0 0 4 5 100 100 100 96
100 100 100 100 100 100 100 100 100 96 98 100 100 100 100 50 64 12 5 5 0 0 5 8 6 5 5 10 12 5 5 5 37 5 0 0 1 5 83 95 100 100 99
100 100 100 100 100 100 100 100 100 100 100 100 100 94 78 79 88 5 22 5 4 0 4 5 2 5 5 5 5 5 5 48 12 100 99 4 3 28 100 100 100 100 100
100 100 100 100 100 100 100 100 100 100 100 100 100 100 73 100 87 60 7 5 5 4 8 52 8 63 42 5 6 41 5 26 5 98 99 48 37 89 100 100 100 100 100
100 100 100 100 100 100 100 100 100 100 100 100 100 100 100 100 100 100 26 29 87 57 58 18 63 7 5 10 90 50 98 5 37 100 94 100 45 100 100 65 100 100 100
100 100 100 100 100 100 100 100 100 100 100 100 100 100 100 100 100 100 100 79 32 82 91 80 52 36 64 66 88 5 58 86 42 100 100 100 76 100 100 100 100 100 100
100 100 100 100 100 100 100 100 100 100 100 100 100 100 100 100 100 100 100 100 100 100 100 100 100 38 100 91 88 98 82 45 100 100 100 100 100 100 100 100 100 100 100
100 100 89 100 100 100 100 100 100 100 100 100 100 100 100 100 100 100 100 100 100 100 100 100 100 99 99 100 98 100 87 100 100 100 100 100 100 100 100 100 100 100 100
100 100 100 100 100 100 100 100 100 100 100 100 100 100 100 100 100 100 100 100 100 100 100 100 100 100 100 100 100 100 100 100 100 100 100 100 100 96 62 100 100 100 100
100 100 100 100 100 100 100 100 100 100 100 100 100 100 100 100 100 100 100 100 100 100 100 100 100 100 99 100 100 98 95 89 100 100 100 100 100 99 100 74 95 100 96
100 100 100 100 100 100 100 100 100 100 100 100 100 100 100 100 100 100 100 100 100 100 100 100 100 95 46 100 98 100 100 100 100 100 92 99 100 100 100 100 95 100 100
100 100 100 100 100 100 100 100 100 100 100 100 100 100 100 100 100 100 100 100 100 100 100 100 99 100 100 100 95 100 100 100 100 100 100 100 100 100 100 43 98 89 90
100 100 100 100 100 100 100 100 100 100 100 100 100 100 100 100 100 100 100 100 100 100 100 99 100 100 100 100 100 100 100 100 92 100 100 100 100 100 100 19 88 4 5
100 100 100 100 100 100 100 100 100 100 100 100 100 100 100 100 100 100 100 100 100 100 100 100 90 100 93 98 89 98 98 100 100 100 100 100 100 100 95 65 26 5 86
100 100 100 100 100 100 100 100 100 100 100 100 100 100 100 100 100 100 100 100 100 89 100 100 100 100 100 100 100 100 100 100 100 100 100 100 99 100 23 5 62 11 100
100 100 100 100 100 100 100 100 100 100 100 100 100 100 100 100 100 100 100 100 100 100 100 100 100 100 100 100 100 100 100 100 100 100 100 100 97 27 4 48 67 98 100
100 100 100 97 100 100 100 100 100 100 100 100 100 100 100 100 100 100 100 97 100 94 100 100 100 100 100 100 100 100 100 100 100 100 100 100 4 73 34 69 100 100 100
100 100 100 100 100 100 100 100 100 100 100 100 100 100 100 100 100 100 100 100 100 100 100 100 100 100 100 100 100 100 100 100 100 100 90 11 5 5 84 54 90 97 100
83 28 6 31 100 100 99 100 100 100 100 100 100 100 100 100 100 100 100 100 100 100 100 58 23 75 56 59 98 96 99 68 57 5 5 5 5 5 79 42 99 79 74
100 100 100 98 69 94 100 100 100 100 100 100 100 100 100 100 99 100 83 100 100 97 74 82 33 78 36 37 18 29 64 20 6 5 5 5 5 5 51 52 99 88 100

GFSMA_prec_cloud_090.txt.gz
Cloud_Cover
100 100 100 100 100 100 100 100 100 100 100 87 48 93 96 98 78 100 100 52 17 5 5 5 7 5 37 94 92 7 5 5 5 5 4 5 5 3 0 5 4 0 4
100 100 100 100 100 100 100 100 100 100 100 94 86 100 95 96 92 100 72 38 37 5 84 72 5 48 100 70 92 5 7 5 6 5 0 1 5 0 0 5 0 1 5
100 100 100 100 100 100 100 100 100 100 100 100 100 100 90 90 83 92 89 100 90 76 100 63 18 45 48 22 5 10 12 5 5 5 5 5 6 5 5 2 0 0 0
100 100 100 100 100 100 100 100 100 100 100 100 100 100 100 74 52 99 100 99 100 100 100 100 94 62 18 6 5 5 5 6 5 4 5 5 5 5 16 18 32 66 5
88 100 100 100 100 100 100 100 100 100 100 100 100 100 88 100 91 100 100 100 100 100 100 100 100 28 11 15 5 5 5 19 5 5 0 12 8 5 5 4 27 65 100
100 100 100 100 100 100 100 100 100 100 100 100 100 100 100 70 83 55 100 98 100 52 100 100 100 83 5 6 13 5 5 11 5 4 4 13 3 4 75 72 82 99 95
100 100 100 100 100 100 100 100 100 100 100 100 100 95 97 91 100 98 54 43 100 91 100 100 5 5 5 0 5 5 5 5 78 5 9 1 5 3 34 100 90 24 91
100 100 100 100 100 100 100 100 100 100 100 100 100 99 100 100 85 100 100 100 100 92 34 45 3 4 0 0 0 3 0 9 17 7 49 65 5 23 19 100 77 53 100
100 100 100 100 100 100 100 92 100 100 100 100 100 100 100 100 100 100 100 86 25 25 6 5 4 4 2 1 5 5 3 4 4 22 8 100 100 100 100 100 100 100 100
100 100 100 100 100 100 100 96 100 100 100 100 100 100 100 100 100 100 85 100 22 5 5 5 5 12 5 5 5 5 5 5 36 11 7 100 100 100 100 100 100 100 100
100 100 100 100 100 100 100 100 100 100 100 100 100 100 100 100 100 100 97 100 90 37 62 99 12 18 12 5 5 5 5 5 25 39 24 100 100 100 100 100 100 100 100
100 100 100 100 100 100 100 100 100 100 100 100 100 100 100 100 100 100 100 100 100 99 93 61 57 16 24 91 29 37 5 5 5 18 100 100 100 100 100 100 100 100 100
100 100 100 100 100 100 100 100 100 100 100 100 100 100 100 100 100 100 100 100 100 100 100 100 100 100 98 80 29 17 9 98 90 100 100 100 100 100 100 100 100 100 100
100 100 100 100 100 100 100 100 100 100 100 100 100 100 100 100 100 100 100 100 100 100 100 100 100 100 100 100 48 92 100 90 98 100 100 100 100 100 100 100 100 94 79
100 100 100 100 100 100 100 100 100 100 100 100 100 100 100 100 100 100 100 100 100 100 100 99 100 100 100 100 100 100 100 100 56 100 100 100 100 100 100 99 99 74 94
100 100 100 100 100 100 100 100 100 100 100 100 100 100 100 100 100 100 100 100 100 100 100 100 100 100 100 100 95 100 93 100 100 95 100 100 100 100 100 100 98 49 95
100 100 100 100 100 100 100 100 100 100 100 100 100 100 100 100 100 100 100 100 100 100 100 100 100 100 100 100 100 100 100 100 100 99 100 100 100 100 100 78 100 27 100
100 100 100 100 100 100 100 100 100 100 100 100 100 100 100 100 100 100 100 100 100 100 100 100 100 100 96 100 100 100 93 94 100 100 100 100 100 100 100 100 100 74 53
100 100 100 100 100 100 100 100 100 100 100 100 100 100 100 100 100 100 100 100 100 100 100 100 100 100 100 100 100 100 100 100 100 100 100 100 100 100 98 100 90 21 0
100 100 100 100 100 100 100 100 100 100 100 100 100 100 100 100 100 100 100 100 100 100 100 100 100 100 100 100 100 100 95 100 100 100 100 100 100 85 92 97 15 2 3
100 100 100 100 100 100 100 100 100 100 100 100 100 100 100 100 100 100 100 100 100 100 100 100 100 100 100 100 88 96 100 100 100 100 100 100 100 100 100 100 8 5 3
100 100 100 100 100 100 100 100 100 100 100 100 100 100 100 100 100 100 100 100 100 100 100 100 100 100 93 100 100 100 100 100 100 100 100 100 100 100 90 5 5 5 5
100 100 100 100 100 100 100 100 100 100 100 100 100 100 100 100 100 100 100 100 100 100 100 100 100 100 99 100 100 100 100 100 100 100 100 100 100 93 5 5 4 4 5
100 100 100 82 100 100 100 100 100 56 100 100 100 100 100 100 100 100 100 100 100 100 100 100 100 100 100 100 100 100 100 100 100 100 100 98 95 2 0 5 4 4 5
100 100 100 100 100 100 100 93 46 86 100 100 100 100 100 100 100 100 100 100 100 100 100 100 100 100 100 100 100 99 99 96 100 94 96 100 6 0 4 5 5 5 5
100 100 100 100 100 96 100 100 47 79 100 100 100 100 100 100 100 100 100 100 100 100 100 100 100 96 84 98 56 95 100 99 100 100 100 99 7 1 5 5 5 5 9

GFSMA_prec_cloud_093.txt.gz
Cloud_Cover
100 100 100 100 100 100 98 100 100 100 100 100 100 100 100 100 100 54 83 92 28 75 62 88 98 89 56 21 66 97 89 75 99 5 5 5 5 62 30 5 52 4 2
100 100 100 89 100 100 100 100 100 100 100 100 100 100 100 100 100 37 75 99 60 100 100 85 55 96 97 89 82 71 90 37 30 93 5 5 63 5 11 4 2 5 22
100 100 100 100 100 100 100 100 100 100 100 93 100 100 100 100 63 95 9 84 6 6 100 100 48 100 97 100 100 100 100 99 25 5 8 9 100 100 100 32 5 5 65
100 100 64 100 98 98 100 100 100 100 100 100 100 100 100 100 100 98 70 86 98 57 83 55 99 100 100 100 100 100 99 34 8 5 38 90 100 100 100 5 66 30 20
100 100 100 100 96 100 100 100 100 100 94 100 100 100 100 100 100 100 100 69 96 56 78 100 100 100 100 100 100 100 51 32 8 5 91 79 100 100 100 86 5 20 100
100 100 100 100 100 100 100 100 96 100 100 100 100 100 100 100 100 100 69 89 73 96 95 99 100 40 100 100 100 100 20 7 5 5 61 100 90 100 94 5 18 36 100
87 100 100 100 100 100 100 100 100 100 100 100 100 100 100 100 97 98 82 100 100 100 74 98 33 21 54 100 95 100 48 12 5 30 100 100 100 100 99 9 8 88 85
100 100 100 100 100 100 100 100 100 100 100 100 100 100 100 100 100 84 100 100 99 100 100 100 92 28 5 5 0 0 5 4 30 78 100 82 10 33 5 4 4 5 99
100 100 100 100 100 100 100 100 100 100 100 100 100 100 100 100 100 100 100 100 93 100 100 81 5 46 21 21 11 0 3 90 40 20 6 17 5 5 0 0 5 12 99
100 100 100 100 100 100 100 100 100 100 100 100 100 100 100 100 100 100 100 100 100 98 78 49 55 40 29 65 5 5 5 26 92 78 20 100 10 4 5 2 14 64 100
100 100 100 100 100 100 100 100 100 100 100 100 100 100 100 100 100 100 100 100 100 100 100 79 89 100 46 5 28 7 5 4 19 36 86 49 94 3 24 35 21 88 100
100 100 100 100 100 100 100 100 100 100 100 100 100 100 100 100 100 100 100 100 100 100 100 100 100 96 78 86 81 36 28 26 11 27 48 100 100 10 99 71 100 100 100
100 100 100 100 100 100 100 100 100 100 100 100 100 100 100 100 100 100 100 100 100 100 100 100 100 100 100 100 96 100 96 93 62 44 38 100 100 84 91 100 100 100 100
100 100 100 100 100 100 100 100 100 100 100 100 100 100 100 100 100 100 100 100 100 100 100 100 100 100 100 100 100 100 97 100 100 100 100 100 99 99 100 100 100 100 100
100 100 100 100 100 100 100 100 100 100 100 100 100 100 100 100 100 100 100 100 100 100 100 100 100 100 86 98 84 99 64 99 100 100 100 100 100 100 100 100 100 100 100
100 100 100 100 100 100 100 100 100 100 100 100 100 100 100 100 100 100 100 100 100 94 97 100 100 100 100 100 100 99 100 100 100 100 97 71 32 100 100 98 100 100 100
100 100 100 100 100 100 100 100 100 100 100 100 100 100 100 100 100 100 100 100 100 100 100 100 100 100 100 100 100 100 100 100 100 100 100 95 99 92 100 100 100 100 100
100 100 100 100 100 100 100 100 100 100 100 100 100 100 100 100 100 100 100 100 100 100 100 100 100 100 100 100 100 100 100 93 93 100 100 89 100 91 100 100 100 100 100
100 100 100 100 100 100 100 100 100 100 100 100 100 100 100 100 100 100 100 100 100 100 100 100 100 100 100 100 100 100 100 100 100 100 100 100 100 100 100 100 100 100 27
100 100 100 100 100 100 100 100 100 100 100 100 100 100 100 100 100 100 100 100 100 98 100 100 100 100 100 100 100 96 95 98 100 100 79 68 100 100 100 100 100 87 32
100 100 100 100 100 100 100 100 100 100 100 100 100 100 100 100 100 100 100 100 100 100 100 100 100 100 100 100 100 100 100 100 98 100 100 100 100 100 100 100 100 99 83
100 100 100 100 100 100 100 100 100 100 100 100 100 100 100 100 100 100 100 100 100 100 100 100 100 100 100 100 100 100 100 100 100 100 100 100 100 100 100 100 100 86 98
100 100 100 100 100 100 100 100 100 100 100 100 100 100 100 100 100 100 100 100 100 100 100 100 100 100 100 100 100 100 100 100 100 100 100 100 100 100 100 97 83 28 89
100 100 100 100 100 100 100 100 100 100 100 100 100 100 100 100 100 100 100 100 100 100 100 100 100 100 100 100 100 100 100 100 100 100 99 100 100 100 94 23 100 100 66
99 100 100 100 100 100 100 100 100 100 100 69 78 100 100 100 100 100 100 100 100 100 100 100 100 100 100 100 100 100 100 100 100 100 100 100 100 100 17 82 95 4 5
82 100 100 100 100 100 100 100 100 100 100 100 98 100 100 100 100 100 100 100 100 100 100 100 100 100 99 100 100 100 100 100 100 100 100 100 100 100 99 5 5 5 5

GFSMA_prec_cloud_096.txt.gz
Cloud_Cover
100 100 93 100 100 100 100 52 79 100 86 43 100 100 100 100 100 100 100 77 59 97 5 5 6 66 98 99 100 87 100 100 100 100 94 100 98 31 99 48 98 64 100
96 100 100 100 100 100 100 100 99 73 52 95 100 100 100 100 100 100 100 100 98 74 27 62 98 44 34 58 14 79 100 100 100 100 100 84 79 38 32 6 18 87 40
96 100 100 99 100 100 100 100 100 100 100 100 100 100 100 100 100 55 100 100 94 84 100 6 94 50 17 24 53 99 100 100 100 100 92 100 100 85 23 96 99 100 100
88 100 100 100 100 100 100 100 100 100 100 100 100 100 100 100 100 100 100 100 99 100 100 100 100 98 88 83 100 100 100 100 100 100 100 100 100 77 62 100 100 100 100
100 98 100 100 100 100 100 100 100 100 100 100 100 100 100 100 100 100 100 100 100 99 63 100 88 38 61 100 86 65 78 100 100 100 100 99 54 56 99 100 99 88 100
100 100 100 100 100 100 100 100 100 100 100 100 100 100 100 100 100 100 100 100 91 100 100 100 95 31 72 71 94 5 21 100 95 100 93 96 87 99 100 100 99 100 100
100 89 100 100 100 100 100 100 100 100 100 100 100 100 100 100 100 100 100 100 100 100 38 99 49 5 5 5 52 89 100 13 6 10 49 49 83 83 100 91 75 100 99
100 100 100 100 100 100 100 100 100 100 100 100 100 100 100 100 100 100 100 100 100 100 38 62 24 93 30 11 84 90 29 5 31 34 5 5 5 67 83 18 43 100 27
100 100 100 100 100 100 100 100 100 100 100 100 100 100 100 100 100 100 95 99 100 100 100 100 100 100 100 61 68 9 73 86 84 37 15 5 6 5 5 100 90 99 74
100 100 100 100 100 100 100 100 100 100 100 100 100 100 100 100 100 100 100 100 100 100 100 100 100 100 100 75 16 98 100 38 100 19 20 100 93 21 5 41 91 50 100
100 100 100 100 100 100 100 100 100 100 100 100 100 100 100 100 100 100 100 99 100 100 100 73 100 100 100 66 90 100 19 86 16 55 5 54 92 100 59 56 98 7 75
100 100 100 100 100 100 100 100 100 100 100 100 100 100 100 100 100 100 100 99 100 100 100 100 100 100 100 100 100 96 44 52 87 8 5 20 100 100 80 23 58 65 86
100 100 100 100 100 100 100 100 100 100 100 100 100 100 100 100 100 100 99 100 100 100 100 100 100 100 100 87 91 87 13 39 38 36 18 96 74 100 95 34 39 97 100
100 100 100 100 100 100 100 100 100 100 100 100 100 100 100 100 100 100 100 100 100 100 100 100 100 100 100 75 92 64 61 76 5 50 90 95 95 99 64 93 100 94 87
100 100 100 100 100 100 100 100 100 100 100 100 100 100 100 100 100 100 100 100 100 100 100 100 100 98 95 90 90 83 80 90 99 100 100 100 100 100 100 100 100 100 84
100 100 100 100 100 100 100 100 100 100 100 100 100 100 100 100 100 100 100 100 100 100 100 100 100 100 99 100 100 100 77 100 82 100 100 100 100 99 37 100 100 100 83
100 100 100 100 100 100 100 100 100 100 100 100 100 100 100 100 100 100 100 100 100 100 100 100 100 100 100 100 100 100 100 100 100 100 100 100 90 93 100 80 100 83 76
100 100 100 100 100 100 100 100 100 100 100 100 100 100 100 100 100 100 100 100 100 100 100 100 100 100 100 100 100 100 100 100 100 100 100 100 87 100 95 100 65 98 100
100 100 100 100 100 100 100 100 100 100 100 100 100 100 100 100 100 100 100 100 100 100 100 100 100 100 100 100 100 100 100 100 100 100 100 100 88 100 99 72 78 100 100
100 100 100 100 100 100 100 100 100 100 100 100 100 100 100 100 100 100 100 100 100 100 100 100 100 100 100 100 100 99 100 100 96 100 100 100 99 97 100 100 100 100 42
100 100 100 100 100 100 100 100 100 100 100 100 100 100 100 100 100 100 100 100 100 100 100 100 100 100 100 100 100 100 100 93 100 100 100 95 100 100 100 100 98 100 99
100 100 100 100 100 100 100 100 100 100 100 100 100 100 100 100 100 100 100 100 100 100 100 100 100 100 100 99 100 100 100 100 100 100 100 60 100 100 100 100 100 100 100
100 100 100 100 100 100 100 100 100 100 100 100 100 100 100 100 100 100 100 100 100 100 100 100 100 100 100 100 100 100 100 100 100 100 100 100 100 100 100 100 100 100 100
100 100 100 100 100 100 100 100 100 100 100 100 100 100 100 100 100 100 100 100 100 100 100 100 100 100 100 100 100 100 100 100 100 100 100 100 100 100 100 100 100 100 100
100 100 100 100 100 100 100 100 100 100 100 100 100 100 100 100 100 100 100 100 100 100 100 100 100 100 100 100 100 100 100 100 100 100 100 100 100 100 100 100 100 100 100
100 100 100 100 100 100 100 100 100 100 100 100 100 100 100 100 100 100 100 100 100 100 100 100 100 100 100 100 100 100 100 100 100 100 100 100 100 100 100 100 100 100 100

GFSMA_prec_cloud_099.txt.gz
Cloud_Cover
75 96 100 90 33 100 85 100 100 100 96 66 97 100 100 100 71 78 100 100 100 100 100 89 8 35 9 44 28 52 52 5 89 86 100 100 100 100 100 100 100 100 5
96 86 99 100 87 100 98 98 100 90 89 93 94 38 62 98 100 100 100 100 100 99 81 98 36 15 31 5 38 8 23 18 29 100 100 100 100 100 100 100 100 98 100
87 99 100 100 99 100 100 69 100 100 100 99 100 100 99 100 100 100 100 100 98 100 100 64 99 89 90 7 94 42 5 8 99 100 100 100 100 100 93 98 50 51 100
3 18 100 96 100 99 100 100 100 67 100 100 100 100 100 100 100 100 100 100 100 100 100 100 74 100 55 5 100 100 28 77 86 97 100 100 100 38 99 100 100 100 100
9 5 99 100 100 96 100 100 100 100 100 100 100 100 100 100 100 100 100 100 100 100 97 97 88 92 96 40 100 58 56 47 99 100 99 97 100 100 100 100 100 89 87
6 52 70 89 100 100 100 100 89 100 100 100 100 100 100 100 100 100 100 100 100 100 100 100 100 84 99 10 100 99 50 54 40 100 82 100 100 100 100 99 99 100 100
100 100 100 100 100 100 100 100 100 100 100 100 100 100 100 100 100 100 100 100 100 100 100 100 92 100 85 100 100 22 82 63 80 98 97 100 100 100 100 100 100 100 100
99 91 100 99 99 100 100 100 100 100 100 100 100 100 100 100 100 100 100 100 100 100 100 100 100 96 80 96 7 86 100 100 90 100 100 100 100 92 100 100 100 100 41
100 96 91 100 100 100 100 100 100 100 100 100 100 100 100 100 100 100 100 100 100 100 100 100 100 100 100 64 43 53 72 100 100 100 100 100 100 84 100 100 100 100 100
100 100 100 96 100 100 100 100 100 100 100 100 100 100 100 100 100 100 100 100 100 100 100 100 100 100 67 46 92 100 100 100 100 100 100 100 100 100 100 100 96 99 100
100 100 100 100 100 100 100 100 100 100 100 100 100 100 100 100 100 100 100 100 100 100 100 100 100 98 89 99 100 100 100 100 94 100 98 100 98 100 61 100 100 100 100
96 100 100 100 100 100 100 100 100 100 100 100 100 100 100 100 100 100 100 100 100 100 100 100 100 100 99 100 100 100 100 100 100 100 82 68 98 100 100 100 100 100 100
95 100 100 100 100 100 100 100 100 100 100 100 100 100 100 100 100 100 100 99 100 100 96 99 99 100 82 100 100 100 100 100 100 97 53 100 100 100 100 100 100 100 100
100 100 100 100 100 100 100 100 100 100 100 100 100 100 100 100 100 100 100 100 100 100 100 78 81 100 100 100 100 100 100 98 59 56 95 100 100 100 100 97 100 86 100
90 100 100 100 100 100 100 100 100 100 100 100 100 100 100 100 100 100 100 100 100 100 100 100 100 97 100 100 100 100 97 100 100 100 100 42 100 77 98 100 61 100 100
100 100 100 100 100 100 100 100 100 100 100 100 100 100 100 100 100 100 100 100 100 100 100 100 100 100 100 100 100 100 99 100 100 100 100 100 100 86 99 100 100 100 82
100 100 100 100 100 100 100 100 100 100 100 100 100 100 100 100 100 100 100 100 100 100 100 100 100 100 100 100 100 100 100 100 100 100 100 98 100 99 100 100 100 100 92
100 100 100 100 100 100 100 100 100 100 100 100 100 100 100 100 100 100 100 100 100 100 100 100 100 100 100 100 100 100 100 100 100 100 100 100 100 100 99 100 99 100 97
100 100 100 100 100 100 100 100 100 100 100 100 100 100 100 100 100 100 100 100 100 100 100 100 100 100 100 100 100 100 100 100 100 100 100 100 100 100 100 89 100 100 100
100 100 100 100 100 100 100 100 100 100 100 100 100 100 100 100 100 100 100 100 100 100 100 100 100 100 100 100 100 100 100 100 100 100 100 100 100 100 100 96 85 100 83
100 100 100 100 100 100 100 100 100 100 100 100 100 100 100 100 100 100 100 100 100 100 100 100 100 100 100 100 100 100 100 100 100 100 100 100 100 100 100 100 100 100 100
100 100 100 100 100 100 100 100 100 100 100 100 100 100 100 100 100 100 100 100 100 100 100 100 100 100 100 100 100 100 100 100 100 100 100 100 100 100 100 99 98 100 100
100 100 100 100 100 100 100 100 100 100 100 100 100 100 100 100 100 100 100 100 100 100 100 100 100 100 100 100 100 100 100 84 85 100 100 100 100 100 100 100 100 100 100
100 100 100 100 100 100 100 100 100 100 100 100 100 100 100 100 100 100 100 100 100 100 100 100 100 100 100 100 100 100 100 100 99 100 100 100 100 100 100 100 100 100 100
97 100 100 100 100 100 100 100 100 100 100 100 100 100 100 100 100 100 100 100 100 100 100 100 100 100 100 100 100 100 100 100 100 100 100 100 100 100 100 100 100 100 100
100 100 100 100 100 100 100 100 100 100 100 100 100 100 100 100 100 100 100 100 100 100 100 100 100 100 100 100 100 100 100 100 100 100 100 100 100 100 100 100 100 100 100

GFSMA_prec_cloud_102.txt.gz
Cloud_Cover
60 80 65 67 93 91 40 62 100 50 6 47 50 59 34 84 98 100 100 100 100 100 100 97 51 100 88 53 8 6 5 5 5 7 50 33 34 100 100 100 100 100 100
87 71 82 84 59 99 61 68 17 83 82 81 90 30 38 35 81 90 93 85 93 100 100 100 100 100 100 41 6 5 17 9 16 11 67 99 25 84 100 86 100 75 100
29 55 60 62 45 64 73 51 28 46 12 98 89 100 65 68 83 81 100 96 100 100 100 100 89 52 40 100 44 5 19 40 31 46 76 37 31 30 23 75 100 99 95
13 27 20 35 34 63 65 100 100 87 90 90 95 79 100 100 100 100 100 100 100 100 100 100 96 100 95 97 95 42 46 72 14 68 6 30 53 46 90 99 100 100 100
19 17 39 23 46 42 100 82 100 100 100 99 77 62 100 100 100 100 100 100 100 100 100 100 99 91 100 100 86 100 36 29 100 74 24 97 79 84 50 100 100 100 100
73 58 53 36 35 63 55 100 100 100 100 100 100 91 96 100 100 100 100 100 100 100 100 100 100 100 100 100 100 36 92 27 78 100 50 97 100 65 74 78 100 97 76
39 99 100 89 86 30 41 100 100 100 100 100 100 100 100 100 100 100 100 100 100 100 100 100 100 100 100 100 100 74 100 5 7 100 41 100 100 100 100 100 100 100 100
10 14 22 37 94 88 99 88 100 100 100 100 86 99 99 100 100 100 100 100 100 100 100 100 100 100 100 100 100 85 98 63 72 69 18 69 100 88 100 100 100 100 100
87 88 86 99 55 100 100 100 100 100 100 100 100 100 100 100 100 100 100 100 100 100 100 100 100 100 100 99 70 92 74 90 99 43 100 100 100 39 25 100 90 100 100
100 100 100 100 100 100 100 100 100 100 100 100 100 100 100 100 100 100 100 100 100 100 100 100 100 100 85 92 56 60 50 100 100 92 100 90 95 95 60 99 100 89 85
100 100 100 100 100 100 100 100 100 100 100 88 99 100 100 100 100 100 100 100 100 100 100 99 100 100 100 100 100 99 100 100 100 100 99 86 99 74 100 100 98 100 100
100 100 100 100 100 100 100 100 100 100 100 100 100 100 100 100 100 100 100 100 100 100 100 100 100 100 100 99 100 98 100 100 100 100 100 100 100 100 95 100 71 100 100
100 100 100 100 100 100 100 100 100 100 100 100 100 100 100 100 100 100 100 100 100 100 100 100 100 100 100 100 100 100 100 100 100 100 100 100 100 100 100 98 100 99 100
100 100 100 100 100 100 100 100 100 100 100 100 100 100 100 100 100 100 100 100 100 100 100 100 100 98 100 88 100 100 100 100 100 100 100 100 77 97 100 100 96 100 100
100 100 100 100 100 100 100 100 100 100 100 100 100 100 100 100 100 100 100 100 100 100 100 100 100 100 100 100 100 100 100 100 100 100 100 100 100 100 100 94 73 100 78
100 100 100 100 100 100 100 100 100 100 100 100 100 100 100 100 100 100 100 100 100 100 100 100 100 100 98 89 100 100 100 100 100 100 100 100 100 100 100 100 99 97 100
100 100 100 100 100 100 100 100 100 100 100 100 100 100 100 100 100 100 100 100 100 100 100 100 100 100 100 100 100 100 100 100 100 100 100 100 100 100 97 100 100 100 100
100 100 100 100 100 100 100 100 100 100 100 100 100 100 100 100 100 100 100 100 100 100 100 100 100 100 100 100 100 100 100 100 100 100 100 100 100 100 100 100 100 100 100
100 100 100 100 100 100 100 100 100 100 100 100 100 100 100 100 100 100 100 100 100 100 100 100 100 100 100 100 100 100 100 100 100 100 100 100 100 100 100 100 100 100 100
100 100 100 100 100 100 100 100 100 100 100 100 100 100 100 100 100 100 100 100 100 100 100 100 100 100 100 100 100 100 100 100 100 100 100 100 100 100 100 100 100 100 82
100 100 100 100 100 100 100 100 100 100 100 100 100 100 100 100 100 100 100 100 100 100 100 100 100 100 100 100 100 100 100 100 100 100 100 100 100 100 100 100 100 100 100
100 100 100 100 100 100 100 100 84 99 100 100 100 100 100 100 100 100 100 100 100 100 100 100 100 100 100 100 100 100 100 100 100 100 100 100 100 100 100 100 100 100 81
93 89 100 100 100 100 100 100 100 100 100 100 100 100 100 100 100 100 100 100 100 100 100 100 100 100 100 100 100 100 100 100 100 100 100 100 100 100 100 100 98 82 87
85 98 100 79 83 97 96 100 100 95 80 100 100 100 100 100 100 100 100 100 100 100 100 100 100 100 100 100 100 100 100 100 100 100 100 100 100 100 100 100 100 100 100
26 32 30 78 45 7 55 75 72 74 100 97 100 100 100 100 100 100 100 100 100 100 100 100 100 100 100 100 100 100 100 100 100 100 100 100 100 100 100 100 100 100 100
46 25 6 5 5 5 48 40 73 88 95 100 100 100 100 100 100 100 100 100 100 100 100 100 100 100 100 100 100 100 100 100 100 100 100 100 100 100 100 100 100 100 100

GFSMA_prec_cloud_105.txt.gz
Cloud_Cover
84 51 75 81 58 42 32 55 38 96 87 5 5 5 5 5 10 5 5 45 80 100 100 100 82 100 74 100 100 100 98 5 82 27 69 69 9 54 94 100 100 83 80
100 100 82 55 81 88 98 99 59 86 20 79 5 5 12 5 5 60 75 23 23 98 100 100 100 100 100 100 100 100 100 99 57 44 62 88 43 15 91 100 100 98 46
100 100 81 100 97 30 94 100 100 99 70 100 14 96 52 23 99 80 100 100 68 100 100 100 100 100 100 100 100 100 100 88 100 92 63 21 86 59 95 55 68 84 31
96 96 58 88 95 56 39 67 73 100 96 99 97 100 90 30 27 100 100 100 100 100 100 100 100 100 100 100 100 100 100 99 57 11 98 5 13 25 91 99 27 100 98
65 98 57 44 74 73 52 50 60 46 91 100 100 85 100 64 8 55 100 100 100 100 100 100 100 100 100 100 100 100 100 43 91 60 53 10 64 54 76 80 100 100 100
70 44 89 100 100 100 100 98 89 81 100 91 100 100 89 96 73 28 47 59 94 100 100 100 100 100 100 100 100 100 100 45 9 72 18 59 44 40 70 71 93 98 14
74 44 29 100 100 100 100 100 100 98 54 100 100 100 100 100 100 100 100 93 98 91 100 100 100 100 100 100 100 100 98 70 5 94 100 6 99 93 5 8 5 10 99
72 97 65 100 100 100 67 41 10 39 49 67 100 100 100 100 100 100 100 100 100 100 100 100 100 100 100 100 100 100 100 82 96 95 88 27 38 50 6 20 15 5 9
95 65 67 68 76 49 46 21 46 92 50 57 100 100 100 100 100 100 100 100 100 100 100 100 100 100 100 100 100 100 100 78 93 96 80 96 75 100 98 54 5 5 29
100 100 100 67 65 68 99 67 73 96 100 100 100 100 100 100 100 100 100 100 100 100 100 100 100 100 100 100 100 97 98 100 100 100 87 96 100 100 100 98 49 94 82
27 78 100 100 100 100 100 100 99 98 100 100 100 100 100 100 100 100 100 100 100 100 100 100 100 100 100 100 100 100 100 94 100 100 100 100 100 100 100 100 100 87 97
100 100 100 100 100 100 100 100 100 100 100 100 100 100 100 100 100 100 100 100 100 100 100 100 100 100 100 100 100 99 100 100 100 100 100 100 100 100 100 100 100 67 38
100 100 100 100 100 100 100 97 100 100 100 100 100 100 100 100 100 100 96 100 100 100 100 100 100 100 100 100 98 99 100 100 100 100 100 100 100 100 100 100 100 100 100
100 100 100 100 100 100 100 100 100 100 100 100 100 100 100 100 100 100 98 100 100 100 100 100 100 100 100 100 100 100 100 100 100 100 100 100 100 100 100 100 100 100 100
100 100 100 100 100 78 100 100 100 100 100 100 100 100 100 100 100 100 100 100 100 100 100 100 100 100 100 100 100 100 100 100 100 100 100 100 100 100 100 100 100 100 100
100 100 100 100 100 100 100 100 100 100 100 100 100 100 100 100 100 100 100 100 100 100 100 100 100 100 100 100 100 100 100 100 100 100 100 100 100 100 100 100 100 100 100
100 100 100 100 100 100 100 100 100 100 100 100 100 100 100 100 100 100 100 100 100 100 100 100 100 100 100 100 100 100 100 100 100 100 100 100 100 100 100 100 100 100 100
100 79 100 100 92 100 100 100 100 100 100 100 100 100 100 100 100 100 100 100 100 100 100 100 100 100 100 100 100 100 100 100 100 100 100 100 100 100 100 100 100 100 100
100 100 100 100 100 100 100 100 100 100 100 100 100 100 100 100 100 100 100 100 100 100 100 100 100 100 100 100 100 100 100 100 100 100 100 100 100 100 100 100 100 100 100
100 100 100 100 100 100 100 100 100 100 100 100 100 100 100 100 100 100 100 100 100 100 100 100 100 100 100 100 100 100 100 100 100 100 100 100 100 100 95 100 100 99 100
100 100 100 100 100 100 100 100 100 100 100 100 100 100 100 100 100 100 100 100 100 100 100 100 100 100 100 100 100 100 100 100 100 100 100 100 100 100 100 100 100 100 100
100 100 100 100 100 100 100 100 100 100 100 100 100 100 100 100 100 100 100 100 100 100 100 100 100 100 100 100 100 100 100 100 100 100 100 100 100 100 100 100 100 100 100
95 54 73 100 100 90 91 96 100 100 100 100 100 100 100 100 100 100 100 100 100 100 100 100 100 100 100 100 100 100 100 100 100 100 100 100 100 100 100 100 100 100 100
26 47 38 6 56 84 19 18 5 32 100 56 67 100 100 100 100 100 100 100 100 100 100 100 100 100 100 100 100 100 100 100 100 100 100 100 100 100 100 100 100 100 100
0 0 0 0 0 0 4 5 5 5 5 4 11 78 97 81 96 100 100 100 100 100 100 100 100 100 100 100 100 100 100 100 100 100 100 100 100 100 100 100 100 100 100
5 33 55 22 32 50 12 16 55 94 84 9 22 5 5 10 18 100 100 100 100 100 100 100 100 100 100 100 100 100 100 100 100 100 100 100 100 100 100 100 100 100 100

GFSMA_prec_cloud_108.txt.gz
Cloud_Cover
94 100 100 100 75 92 100 94 98 70 70 31 69 35 7 24 88 100 100 100 89 44 11 30 56 22 27 80 72 100 100 100 100 100 68 11 92 62 5 5 20 43 100
98 92 63 94 88 15 90 76 40 52 69 93 20 6 5 5 5 33 66 100 100 100 90 95 66 47 28 49 86 100 100 100 100 100 85 43 60 34 5 7 5 88 98
100 100 100 41 100 46 60 100 100 100 98 100 72 67 66 57 5 5 5 5 3 100 100 100 98 98 50 13 59 64 100 100 100 100 88 100 30 100 5 48 22 11 99
57 91 100 94 59 100 98 95 100 88 100 80 100 100 59 100 17 5 6 5 6 5 23 100 100 100 100 100 100 37 100 100 100 99 77 14 100 58 28 20 80 98 100
100 99 87 100 100 100 100 100 93 71 100 93 62 88 100 100 93 91 22 5 5 19 8 5 95 100 100 100 100 97 100 100 100 89 80 34 98 99 84 95 72 97 53
100 100 88 99 80 96 100 98 100 98 95 92 70 100 100 70 98 91 27 56 24 74 74 25 4 81 100 100 100 100 100 100 100 100 99 18 100 100 100 33 58 47 31
100 100 100 100 100 100 100 100 75 100 100 100 100 68 87 57 100 100 100 99 81 99 14 95 8 4 4 62 100 100 100 100 100 100 100 100 100 91 100 6 11 53 23
100 100 100 100 100 100 100 100 100 100 100 100 86 48 55 39 92 80 100 100 100 100 100 100 100 100 94 99 100 100 100 100 100 100 100 100 100 100 100 100 28 13 100
100 100 100 100 100 96 88 100 100 82 93 72 55 70 98 96 5 39 46 62 100 99 96 100 100 100 100 100 100 100 100 100 100 100 100 98 100 96 100 100 100 100 82
100 100 100 100 100 100 100 100 93 100 85 50 79 39 94 99 44 99 99 100 95 88 28 92 100 100 100 100 100 100 100 100 100 100 100 100 100 100 100 100 100 99 100
70 82 100 100 100 100 100 100 100 95 99 100 100 100 100 93 100 100 95 99 98 100 100 68 100 89 95 100 100 100 100 100 100 100 100 100 100 100 100 100 99 100 100
100 100 99 94 97 100 100 74 98 100 100 84 88 100 100 100 100 100 99 100 93 100 97 62 100 100 100 100 100 100 100 100 100 100 100 100 100 100 100 100 100 100 100
100 100 100 100 100 100 100 100 100 100 100 100 100 100 100 100 100 100 100 100 100 100 97 80 74 100 100 100 100 100 100 100 100 100 100 100 100 100 100 100 100 100 100
100 100 100 93 100 100 100 100 100 100 100 100 100 100 100 100 100 100 100 100 100 100 99 99 100 100 100 100 100 100 100 100 100 100 100 100 100 100 100 100 100 100 100
100 100 97 100 100 100 100 100 100 100 100 100 100 100 100 100 100 100 100 100 100 100 100 100 100 100 100 100 100 100 100 100 100 100 100 100 100 100 100 100 100 100 100
100 100 100 100 100 100 100 100 100 100 100 93 100 100 100 100 100 100 100 100 100 100 100 100 100 100 100 100 100 100 100 100 100 100 100 100 100 100 100 100 100 100 100
100 100 100 100 100 100 100 100 100 100 100 100 100 100 100 100 100 100 100 100 100 100 100 100 100 100 100 100 100 100 100 100 100 100 100 100 100 100 100 100 100 100 100
100 100 99 100 100 100 100 100 100 100 100 100 100 100 100 100 100 100 100 100 100 100 100 100 100 100 100 100 100 100 100 100 100 100 100 100 100 100 100 100 100 100 100
100 100 100 100 100 98 100 100 100 100 100 100 100 100 100 100 100 100 100 100 100 100 100 100 100 100 100 100 100 100 100 100 100 100 100 100 100 100 100 100 100 100 99
100 100 100 100 100 100 100 100 100 100 100 100 100 100 100 100 100 100 100 100 100 100 100 100 100 100 100 100 100 100 100 100 100 100 100 100 100 100 100 100 100 84 94
100 100 96 83 92 91 99 85 99 100 100 100 100 100 91 100 100 100 100 100 100 100 100 100 100 100 100 100 100 100 100 100 100 100 100 100 100 100 100 100 100 100 100
100 100 98 100 100 100 98 88 100 99 100 100 100 100 100 100 100 100 97 100 100 100 100 100 100 100 100 100 100 100 100 100 100 100 100 100 100 100 100 100 100 100 100
100 100 100 100 100 100 53 100 100 100 100 100 100 100 100 100 100 100 100 100 100 100 100 100 100 100 100 100 100 100 100 100 100 100 100 100 100 100 100 100 100 100 100
9 7 35 31 16 6 23 5 22 36 100 71 41 93 52 36 61 80 42 80 100 100 100 100 100 100 100 100 100 100 100 100 100 100 100 100 100 100 100 100 100 100 100
0 0 0 0 1 0 5 5 5 19 39 54 18 16 61 97 14 39 19 88 100 100 100 100 100 100 100 100 100 100 100 100 100 100 100 100 100 100 100 100 100 100 100
1 3 5 6 5 5 5 5 5 5 5 5 5 44 49 7 63 19 15 15 31 14 9 60 100 100 100 100 100 100 100 100 100 100 100 100 100 100 100 100 100 100 100

GFSMA_prec_cloud_111.txt.gz
Cloud_Cover
100 100 100 100 100 100 100 100 92 100 100 76 77 65 21 5 5 5 3 6 46 89 90 100 100 100 71 61 35 19 39 80 62 75 100 100 100 100 100 99 36 34 10
100 100 100 100 100 100 85 100 100 100 57 91 56 65 62 10 5 5 5 1 0 0 1 16 62 97 100 100 96 51 21 5 5 41 100 100 100 100 100 100 100 75 8
54 100 100 100 100 100 100 100 99 83 76 81 68 94 92 91 5 5 11 5 8 19 11 5 7 25 5 14 83 100 100 45 5 6 18 100 100 100 94 84 100 100 64
59 85 98 100 100 100 100 100 100 100 100 90 98 100 100 100 100 99 58 14 5 5 9 75 5 4 0 5 75 71 100 100 100 98 76 100 100 100 100 100 100 100 92
80 100 78 100 100 95 100 100 100 100 100 100 100 64 74 95 85 72 97 100 93 10 31 5 5 5 0 1 0 1 4 65 100 100 100 100 100 100 91 96 100 100 100
91 100 100 100 100 100 100 99 100 100 100 100 100 100 87 82 21 52 94 53 87 85 43 15 5 14 87 78 6 3 6 5 24 100 100 100 100 100 100 100 100 100 100
43 40 57 100 100 100 100 100 96 99 97 100 100 99 100 58 100 50 64 100 100 96 87 100 46 71 83 67 95 100 100 49 15 18 100 100 100 100 100 100 100 100 100
10 5 39 51 100 100 100 100 100 98 82 100 100 100 100 38 19 4 25 63 8 81 100 100 84 64 100 100 100 100 100 100 100 100 100 100 100 100 100 97 100 100 100
81 5 10 5 51 99 100 100 100 100 100 100 100 100 89 57 5 5 6 32 69 100 86 100 97 100 100 100 100 100 100 96 79 100 100 100 100 100 100 100 100 100 100
96 100 98 36 80 84 100 100 100 100 100 100 100 78 5 41 32 15 31 20 47 84 14 100 91 57 100 93 100 100 100 100 100 100 100 100 100 100 99 100 100 100 100
100 100 100 100 32 100 100 100 100 100 100 100 100 100 100 38 71 98 100 99 85 87 100 100 100 100 89 92 100 100 100 100 100 100 100 100 100 100 100 100 100 100 100
99 100 100 100 100 100 100 100 100 100 100 100 100 100 93 100 100 54 100 100 100 100 100 100 100 100 100 100 100 100 100 100 99 100 100 100 100 100 100 100 100 100 100
100 100 100 100 100 100 100 100 100 100 100 100 100 100 100 100 100 100 100 100 100 100 100 99 100 100 100 100 100 100 100 100 99 100 100 100 100 100 100 100 100 100 100
89 100 100 100 100 100 100 100 100 100 100 100 100 100 95 61 100 100 100 100 100 100 100 100 100 100 100 100 100 100 100 100 100 100 100 100 100 100 100 100 100 100 100
100 100 100 100 100 100 100 100 100 100 100 100 100 100 100 100 100 100 100 100 100 100 100 98 100 100 100 100 100 100 100 100 100 100 100 100 100 100 100 100 100 100 100
100 100 100 100 100 100 100 100 100 100 100 100 100 100 100 100 100 95 100 100 100 100 100 100 100 100 100 100 100 100 100 100 89 100 100 100 100 100 100 100 100 100 100
100 100 100 100 100 100 100 100 100 100 100 100 100 100 100 100 100 100 100 100 100 100 100 100 100 100 100 100 100 100 100 100 100 100 100 100 100 100 100 100 100 100 100
100 100 100 100 100 100 100 99 100 100 100 100 100 100 100 100 100 100 100 100 100 100 100 100 100 100 100 100 100 100 100 100 100 100 100 100 100 100 100 100 100 100 100
100 100 100 100 90 100 100 100 100 100 100 100 100 100 100 100 100 100 100 100 100 100 100 100 100 100 100 100 100 100 100 100 100 100 100 100 100 100 100 100 100 100 100
89 100 100 100 100 100 100 100 100 100 100 100 100 100 100 100 100 100 100 100 100 100 100 100 100 100 100 100 100 100 100 100 100 100 100 100 100 100 100 100 100 100 100
100 100 100 100 100 100 100 100 100 100 100 100 100 100 100 100 100 100 100 100 100 100 100 100 100 100 100 100 100 100 100 100 100 100 100 100 100 100 100 100 100 100 100
100 100 100 100 100 100 100 100 100 100 100 100 100 100 100 100 100 100 100 100 100 100 100 100 100 100 100 100 100 100 100 100 100 100 100 100 100 100 100 100 100 100 100
62 92 100 100 100 100 100 94 100 100 97 100 96 88 100 100 100 100 100 100 100 100 99 100 100 100 100 100 100 100 100 100 100 100 100 100 100 100 100 100 100 100 100
1 5 3 34 77 100 100 100 100 100 91 64 68 98 100 93 79 100 100 100 100 100 100 100 100 100 100 100 100 100 100 100 100 100 100 100 100 100 100 100 100 100 100
0 0 2 5 5 5 5 8 13 5 10 31 25 7 21 10 42 99 99 100 100 83 93 99 100 100 100 100 100 100 100 100 100 100 100 100 100 100 100 100 100 100 100
20 69 83 54 29 41 7 79 71 60 40 29 5 5 15 58 81 87 38 96 100 39 9 8 20 42 96 100 100 100 100 100 100 100 100 100 100 100 100 100 100 100 100

GFSMA_prec_cloud_114.txt.gz
Cloud_Cover
94 5 6 76 99 100 100 100 88 29 30 21 55 96 10 7 6 5 4 5 5 1 2 0 2 12 64 99 100 100 98 88 100 100 100 25 5 45 100 100 100 100 100
7 3 8 63 62 98 100 100 100 100 100 70 100 100 89 97 88 5 4 5 5 5 5 5 2 3 4 4 3 2 4 5 5 11 100 100 99 94 49 100 100 100 100
11 3 6 92 96 100 99 100 100 100 100 100 100 100 100 100 98 16 52 91 62 5 5 5 54 5 7 25 96 80 78 5 0 5 7 97 100 100 100 100 100 100 100
95 59 4 89 36 92 94 100 100 100 100 100 100 100 91 100 100 94 100 100 100 100 40 36 31 5 5 5 5 14 5 5 1 0 0 3 4 80 100 100 100 100 100
17 68 7 2 20 2 58 98 100 100 100 100 100 100 100 100 100 100 100 100 15 18 81 39 81 70 18 5 6 5 0 0 5 5 5 3 6 5 44 100 100 100 100
18 5 5 27 4 3 84 24 100 100 100 100 100 100 100 74 96 100 100 100 100 74 96 52 96 91 88 66 5 51 12 5 29 86 16 65 8 7 5 26 100 100 100
40 53 22 14 16 48 75 100 100 100 100 100 100 100 100 99 100 82 98 58 100 94 97 97 100 15 93 90 89 84 100 82 58 98 97 97 100 80 5 25 100 100 100
57 100 43 12 47 38 98 65 24 100 100 100 100 100 100 100 100 100 82 74 68 38 18 43 19 27 87 60 99 100 96 85 97 100 91 100 98 100 75 100 100 100 100
20 17 98 78 20 5 6 92 24 97 100 100 100 100 100 100 100 95 96 37 41 8 5 12 100 77 62 100 99 88 100 100 100 100 100 100 99 67 100 98 100 100 100
13 100 100 99 5 5 7 7 5 63 99 100 100 99 100 100 100 100 92 68 57 5 40 56 93 98 40 62 91 93 100 100 82 100 90 62 100 99 98 100 98 75 100
89 100 93 96 92 65 48 3 18 100 91 100 100 100 100 100 100 45 99 100 98 95 60 66 100 96 73 74 100 100 100 100 89 38 8 83 100 99 100 100 100 100 100
100 100 100 100 100 96 100 98 100 99 90 64 96 100 100 100 100 98 84 100 100 100 95 100 17 81 100 88 73 100 100 100 100 69 5 100 100 100 96 100 99 100 100
100 100 100 100 100 100 100 100 100 100 100 100 100 100 100 100 100 100 100 100 100 100 69 10 72 100 100 100 89 100 100 100 99 100 48 68 55 100 100 100 100 100 100
100 100 100 100 100 100 100 99 99 100 100 100 100 100 100 100 100 100 97 100 100 100 100 99 93 56 100 100 90 100 100 100 95 92 76 81 53 26 79 100 100 100 100
100 100 100 59 62 95 94 100 99 100 100 100 99 100 100 100 100 100 100 100 100 100 100 100 100 41 6 43 100 96 100 100 100 99 100 100 100 100 100 100 100 100 100
100 100 100 100 90 100 72 84 68 100 73 100 96 100 100 100 100 100 100 100 100 100 100 100 100 100 90 93 100 100 100 100 100 100 100 100 100 100 99 100 100 100 100
100 95 79 77 100 92 100 100 100 100 100 100 100 100 90 100 100 100 100 100 100 100 100 100 90 100 100 100 100 100 100 100 100 100 100 100 100 100 100 100 100 100 100
92 51 91 75 12 75 60 91 83 100 100 100 100 100 100 100 100 100 100 100 100 100 100 100 100 100 100 100 100 100 100 100 100 100 100 100 100 100 100 100 100 100 100
100 100 100 99 99 70 66 96 98 100 100 100 100 100 100 100 100 100 100 100 100 100 100 100 100 100 100 100 100 100 100 100 100 100 100 100 100 100 100 100 100 100 100
100 100 100 100 97 83 100 100 100 100 100 100 100 100 100 100 100 100 100 100 100 100 100 100 100 100 100 100 100 100 100 100 100 100 100 100 100 100 100 100 100 100 100
73 100 100 100 100 100 100 100 100 100 100 100 100 100 100 100 100 100 100 100 100 100 100 100 100 100 100 100 100 100 100 100 100 100 100 100 100 100 100 100 100 100 100
92 30 60 37 88 57 100 86 99 100 100 100 100 100 100 100 100 100 100 100 100 100 100 100 100 100 100 100 100 100 100 100 100 100 100 100 100 100 100 100 100 100 100
3 92 87 97 98 100 100 100 100 100 100 100 100 100 100 100 100 100 100 59 100 100 100 100 100 100 100 100 100 100 100 100 100 100 100 100 100 100 100 100 100 100 100
0 0 0 14 17 4 33 95 100 100 100 100 100 97 100 100 100 100 100 100 41 100 100 100 100 100 98 100 100 100 100 88 100 100 100 100 100 100 100 100 100 100 100
70 51 14 5 1 4 47 93 50 10 17 86 99 100 99 80 87 8 39 92 100 100 100 100 100 100 100 100 100 100 100 100 100 100 100 100 100 100 100 100 100 100 100
100 100 100 100 100 100 99 80 100 100 100 100 100 52 9 20 79 92 100 88 48 7 21 85 97 91 99 100 100 100 39 89 100 100 100 100 100 100 100 100 100 100 100

GFSMA_prec_cloud_117.txt.gz
Cloud_Cover
31 99 95 3 4 7 64 26 26 28 52 6 5 93 100 22 81 85 16 5 5 5 5 5 0 30 2 4 1 0 0 1 1 1 1 3 5 3 32 100 100 100 100
1 12 52 10 0 4 12 8 25 46 72 78 26 24 47 86 100 100 89 6 5 5 5 5 9 30 7 17 5 4 5 5 18 5 6 5 5 2 0 4 85 100 100
6 2 1 5 14 5 8 36 69 30 34 55 47 58 88 94 97 100 100 98 48 40 89 5 5 5 5 5 12 53 5 4 0 2 3 5 5 2 0 0 2 21 58
0 10 3 5 29 11 6 23 34 69 69 100 100 100 100 77 95 99 100 100 100 82 100 68 44 54 5 17 5 5 5 5 5 0 0 0 0 5 5 22 26 23 4
5 2 1 1 38 71 60 14 26 13 74 99 100 100 100 100 100 100 100 100 100 100 99 100 97 86 58 16 34 15 5 5 5 2 0 0 0 0 2 76 4 25 17
1 25 4 7 11 7 24 14 3 23 43 98 100 100 100 100 100 100 100 100 100 100 100 64 100 100 86 58 53 94 65 7 5 5 5 5 27 22 5 42 86 99 71
3 14 36 19 8 6 3 17 50 74 74 44 100 100 100 100 100 100 100 100 100 100 100 100 64 56 100 100 100 71 100 28 21 54 86 75 87 98 35 64 98 100 99
0 8 7 7 62 98 59 72 96 88 71 92 98 100 100 100 100 100 100 98 82 80 100 100 68 100 32 99 100 92 100 46 30 86 5 8 33 90 76 83 94 100 100
0 0 0 3 8 21 6 75 99 98 100 100 100 100 100 100 99 100 100 100 93 100 99 96 89 97 96 100 65 100 100 100 90 96 58 62 75 5 86 61 84 100 100
28 41 13 49 100 100 82 84 34 40 24 83 99 100 100 100 100 100 100 100 100 100 89 84 60 50 99 100 100 100 100 100 99 97 98 72 30 96 82 96 100 95 100
77 100 50 77 100 98 100 100 100 100 66 38 44 56 36 96 100 100 100 100 100 100 100 100 86 100 83 90 100 100 100 100 100 100 100 98 97 88 85 60 100 84 100
100 80 91 100 100 100 100 100 100 100 100 100 100 100 100 86 100 100 100 100 100 100 99 99 100 99 100 100 98 100 100 100 100 100 99 97 64 57 99 100 100 100 100
85 100 67 100 100 100 100 100 100 100 100 100 100 100 100 100 100 100 98 100 100 100 100 54 100 97 21 42 38 100 100 100 100 100 100 100 92 87 100 100 100 96 100
100 100 100 100 100 100 100 100 100 100 100 100 100 100 100 100 100 100 100 100 100 100 100 100 100 100 94 77 75 100 93 77 100 100 100 100 78 86 100 100 94 100 100
100 100 100 100 100 100 100 100 100 100 100 97 100 100 100 100 100 100 100 100 100 100 100 100 100 100 100 95 100 100 89 97 69 100 100 100 100 100 98 99 94 100 100
100 100 100 100 100 100 100 100 100 100 100 100 48 97 49 100 88 100 100 100 100 100 100 100 100 100 100 100 100 100 86 80 100 100 100 100 100 100 100 100 99 100 100
100 100 100 100 100 100 100 100 100 90 95 72 88 18 100 98 92 100 100 100 100 100 100 100 100 100 100 100 100 100 100 100 100 100 100 100 100 100 100 100 100 100 100
95 100 100 100 100 100 100 100 41 7 29 78 60 41 100 98 100 100 100 100 100 100 100 100 100 100 100 100 100 100 100 100 100 100 100 100 100 100 100 100 100 100 100
100 100 100 100 100 100 89 60 36 70 67 32 87 77 88 100 93 100 100 100 100 100 100 100 100 100 100 99 100 100 100 100 100 100 100 100 100 100 100 100 100 100 100
4 32 94 97 100 100 100 98 95 38 66 81 81 100 100 100 100 100 100 100 100 100 100 100 100 100 100 91 99 88 100 100 100 100 100 100 100 100 100 100 100 100 100
3 5 5 5 14 63 50 85 93 27 57 99 100 100 100 100 100 100 100 99 100 100 100 97 100 100 100 100 100 100 100 100 100 100 100 100 100 100 100 100 100 100 100
30 3 0 2 5 92 30 98 74 90 100 100 100 100 100 100 100 100 100 100 100 100 100 100 100 100 100 100 100 100 100 100 100 100 100 100 100 100 100 100 100 100 100
100 100 100 95 28 3 50 100 100 100 100 100 100 100 100 100 100 100 100 98 99 100 100 100 100 100 100 100 100 100 99 100 100 100 100 100 100 100 100 100 100 100 100
5 10 33 72 99 100 82 40 11 36 24 64 90 99 100 100 100 100 100 100 100 100 100 100 100 100 93 100 100 100 100 100 100 100 100 100 100 100 100 100 100 100 100
0 0 5 45 16 21 84 100 100 100 100 100 100 92 81 35 100 100 100 100 100 100 100 100 100 100 100 100 91 58 100 100 100 100 100 100 100 100 100 100 100 100 100
0 0 0 2 5 97 98 73 49 57 94 91 95 32 7 5 38 70 100 100 100 89 97 60 82 100 100 100 100 100 100 100 100 100 100 100 100 100 100 100 100 100 100

GFSMA_prec_cloud_120.txt.gz
Cloud_Cover
69 100 99 51 36 5 4 19 25 24 30 16 7 5 7 10 11 77 100 91 14 11 43 5 5 5 5 5 5 9 5 5 2 1 4 4 5 5 5 5 5 5 0
7 3 78 38 89 100 2 2 26 34 34 30 8 5 9 5 22 57 84 100 100 10 24 43 8 5 5 1 5 5 1 5 5 5 5 4 0 1 13 0 0 0 2
7 2 3 23 19 47 24 37 61 76 65 65 54 54 74 77 37 43 35 94 100 100 100 80 54 5 7 17 86 97 15 5 5 5 3 2 5 0 1 1 0 0 4
0 0 24 37 5 34 39 80 100 100 100 100 100 99 66 66 100 93 90 97 88 68 87 98 100 81 100 100 24 92 26 5 5 5 5 4 4 5 5 9 14 16 15
0 7 4 10 20 14 88 94 100 100 100 100 100 100 79 74 86 99 100 100 100 100 100 100 100 100 86 100 100 100 69 39 27 5 5 5 3 0 0 6 0 12 10
0 20 12 24 7 52 42 70 100 100 100 100 100 100 64 100 100 100 100 100 100 100 100 100 100 99 99 100 100 100 99 48 100 88 8 5 5 5 5 4 5 5 5
0 0 1 46 71 65 31 18 24 52 100 100 100 100 72 59 100 100 100 100 100 100 100 100 100 100 100 100 100 100 100 100 100 100 76 100 95 14 5 5 5 5 5
2 0 1 5 60 100 99 52 28 28 61 98 99 91 43 18 100 100 100 100 100 100 100 100 100 100 100 100 59 100 100 100 100 98 39 82 98 72 33 46 31 24 17
82 69 12 5 11 97 99 56 39 21 98 100 98 100 72 95 100 100 100 100 100 100 100 100 100 100 100 98 100 100 100 100 100 100 100 100 96 90 100 90 98 99 8
100 100 89 23 0 2 82 78 95 96 100 100 100 100 100 79 100 100 100 100 100 100 100 100 100 100 100 100 100 100 59 66 98 100 100 100 100 85 94 96 100 93 99
92 100 100 100 67 72 14 100 98 100 100 100 100 98 98 62 64 100 100 100 100 100 100 100 100 100 100 100 100 100 100 72 93 100 100 100 100 100 100 100 100 100 100
93 100 87 100 100 97 11 60 100 100 100 100 98 100 100 100 100 100 100 100 100 100 100 100 100 100 100 99 90 100 100 100 87 13 100 100 100 100 100 100 98 99 100
100 90 48 74 59 73 96 66 100 100 100 100 100 100 100 100 100 100 100 100 100 100 100 100 100 100 100 100 56 40 96 100 100 48 14 100 100 100 100 100 100 94 100
100 100 100 100 98 37 7 96 100 100 100 100 100 100 100 100 100 100 100 100 99 100 99 99 100 100 100 100 100 100 100 100 100 100 95 95 100 100 100 100 100 100 100
100 100 100 100 100 100 100 100 100 100 100 100 100 100 100 100 100 100 100 100 100 100 100 100 100 100 100 100 100 100 100 100 100 89 54 48 100 100 100 100 100 100 100
100 100 100 100 100 100 100 100 100 100 100 100 100 100 100 100 100 100 100 100 100 100 100 98 100 100 100 91 88 100 100 100 100 100 100 93 100 99 100 100 100 100 100
100 95 100 100 100 100 100 100 100 100 100 100 100 100 100 100 100 99 97 100 100 97 100 100 100 100 100 100 100 100 100 100 100 100 100 100 99 100 100 100 100 100 100
5 100 100 100 100 100 100 100 100 100 100 100 100 100 98 100 82 42 34 61 100 33 98 100 100 97 100 100 100 100 100 100 73 100 100 100 100 99 100 100 100 100 100
5 1 14 94 100 100 100 100 100 92 100 100 99 46 8 5 5 24 89 74 96 92 69 11 57 99 98 100 100 100 100 100 100 100 95 100 100 100 100 100 100 100 100
96 55 16 1 18 94 100 100 100 100 100 100 98 98 89 96 85 99 60 96 79 77 99 52 98 99 98 100 100 100 100 100 100 100 100 100 100 100 100 100 100 100 100
2 18 31 70 41 4 2 5 5 8 13 43 94 100 22 11 91 94 100 96 91 92 98 100 100 100 100 100 100 100 100 100 100 100 100 100 100 100 100 100 100 100 100
0 0 0 0 4 46 63 42 5 5 0 4 5 12 97 58 100 100 100 100 96 85 100 100 100 100 100 100 100 100 100 100 100 100 100 100 100 100 100 100 100 100 100
0 0 0 0 0 0 4 36 98 100 100 66 21 11 6 58 92 99 100 100 100 100 99 96 100 100 100 100 100 100 100 100 100 100 45 100 100 100 100 100 100 100 100
5 0 0 0 0 0 0 5 5 12 92 100 100 100 96 36 23 70 62 94 100 100 100 100 100 100 69 88 100 100 100 100 100 100 100 100 100 100 100 100 100 100 100
0 0 1 2 3 1 0 5 5 5 5 10 31 100 100 100 99 60 27 98 42 71 92 100 100 100 100 100 98 67 100 100 97 100 100 97 100 100 100 100 100 100 100
0 2 0 0 0 0 0 5 6 5 5 5 5 5 7 26 93 99 100 94 36 19 11 85 100 94 98 100 100 100 80 100 100 100 100 82 100 100 100 100 100 100 98

GFSMA_prec_cloud_123.txt.gz
Cloud_Cover
4 38 31 0 76 100 50 3 26 35 46 43 49 25 16 10 17 5 4 5 5 5 13 100 41 9 5 5 5 5 5 5 5 5 5 2 1 5 5 0 0 0 1
2 10 12 36 9 35 100 100 74 32 46 53 68 60 22 5 9 5 5 5 5 50 88 74 100 100 32 50 5 5 5 2 5 0 5 5 3 5 4 0 3 0 2
0 0 0 34 9 1 19 94 64 88 90 99 97 100 58 13 5 14 46 84 11 6 60 41 35 81 100 95 45 50 31 5 5 5 1 1 5 5 5 5 3 5 5
0 0 0 15 10 32 53 82 94 100 100 100 100 100 100 100 100 56 90 28 95 66 98 99 78 100 99 18 80 97 98 24 5 7 5 5 5 5 5 5 5 3 7
0 3 32 38 27 45 80 93 58 100 53 87 86 100 100 100 100 100 100 100 100 100 100 100 99 100 100 53 83 50 100 86 10 64 45 76 7 6 5 5 5 8 28
0 0 0 0 10 66 93 100 99 15 51 17 100 100 100 100 100 100 100 100 99 87 100 100 100 100 100 100 100 100 100 98 48 53 100 97 99 81 16 6 24 26 19
100 100 100 92 13 3 2 100 100 98 78 91 93 100 100 100 100 100 100 100 100 100 100 100 100 100 100 100 100 100 100 100 100 100 50 100 100 100 100 99 55 16 5
82 49 62 100 100 56 4 2 85 100 71 63 49 76 83 100 100 100 100 100 100 100 98 100 100 100 100 100 100 100 100 100 100 100 97 77 100 100 100 100 100 100 98
71 22 68 100 100 100 100 100 100 100 100 73 17 95 100 99 100 100 100 100 100 100 100 100 100 100 100 100 100 100 100 100 100 100 99 99 99 100 100 100 100 100 100
12 1 29 100 100 100 100 97 100 100 100 100 100 43 100 100 100 100 100 100 96 100 100 100 100 100 100 100 100 100 100 100 100 100 90 95 90 73 100 100 100 100 100
5 75 23 100 100 100 100 100 78 100 100 80 62 100 84 71 100 87 100 95 100 100 100 100 100 100 100 100 100 100 100 100 100 100 100 100 100 100 100 100 100 100 100
42 44 99 62 100 100 100 100 84 50 86 46 100 100 70 100 100 100 100 100 54 53 47 78 99 100 100 100 100 100 100 100 100 100 100 100 100 100 100 100 100 100 100
99 99 100 100 88 100 100 100 100 96 53 59 100 97 100 100 100 100 100 100 100 100 90 100 100 98 100 100 100 100 100 100 100 100 99 54 93 100 100 100 96 99 100
7 17 100 100 100 100 100 100 100 90 64 51 74 100 100 100 100 100 100 100 100 100 100 53 74 80 90 100 100 100 100 100 100 100 100 85 92 100 100 77 100 100 100
5 5 50 67 100 100 100 100 100 100 95 100 100 100 100 100 100 100 100 99 98 100 100 100 100 100 100 100 100 100 100 100 100 100 100 100 100 100 95 100 100 100 100
4 5 10 94 100 100 100 100 100 100 100 100 100 100 100 100 100 100 100 100 100 100 100 80 65 65 96 85 100 81 84 30 100 98 100 100 100 100 100 93 78 95 100
5 4 4 5 87 100 99 73 100 100 100 100 100 100 100 100 100 100 100 100 100 95 100 100 97 72 36 100 100 88 92 78 75 79 100 100 100 100 100 100 100 100 100
0 0 0 3 5 91 100 100 100 100 100 100 100 100 100 100 100 100 100 100 100 100 100 100 100 94 96 100 95 93 52 100 100 100 100 100 100 100 98 100 100 100 100
0 0 0 0 0 0 46 100 100 100 100 49 24 73 100 100 100 100 100 100 100 100 100 100 72 79 90 30 36 49 39 90 88 100 84 100 100 100 100 100 100 100 100
0 4 4 1 0 0 0 5 11 88 99 100 100 93 67 27 88 97 88 84 67 99 44 42 63 58 35 53 86 36 46 22 34 99 91 100 100 100 100 100 100 100 100
2 0 0 0 0 0 5 5 5 3 2 39 88 84 100 100 99 99 98 94 98 84 60 78 87 8 16 62 84 91 87 93 71 84 86 100 100 100 100 100 100 100 100
1 0 0 0 0 0 4 5 5 5 0 0 0 30 99 100 36 99 100 100 100 100 97 100 100 45 25 5 99 98 44 100 100 100 100 100 99 100 100 100 100 100 100
5 0 0 0 1 0 5 5 9 5 1 5 5 4 0 2 52 99 100 37 12 21 84 25 48 53 35 25 70 73 100 100 100 100 54 100 100 100 100 100 100 100 100
3 0 0 4 5 0 4 5 5 5 5 5 2 1 5 5 5 5 60 99 100 100 49 60 96 43 26 67 62 19 40 61 100 100 100 100 100 100 100 100 100 100 100
5 0 3 5 5 2 2 5 6 5 5 0 4 5 5 5 5 27 12 76 100 100 97 22 5 7 54 63 62 13 96 71 89 94 100 100 100 100 100 100 100 100 100
5 5 3 5 5 4 0 5 5 5 5 5 5 5 5 5 54 81 81 83 38 99 100 100 100 95 34 6 5 24 13 93 95 98 100 24 100 100 100 100 100 100 100

GFSMA_prec_cloud_126.txt.gz
Cloud_Cover
0 2 0 2 12 11 12 22 67 68 25 50 55 66 62 56 23 13 2 5 5 6 80 100 64 7 16 17 9 15 4 0 3 5 5 49 5 5 0 4 5 1 0
0 0 6 1 2 9 7 14 13 48 54 35 26 64 100 84 48 34 5 5 41 5 11 50 40 9 52 100 45 58 89 5 2 5 4 5 5 0 1 2 3 5 3
0 0 0 0 1 2 28 52 42 42 99 99 96 74 100 100 100 96 52 16 65 54 26 18 34 73 38 26 100 100 96 97 17 5 5 5 5 5 3 2 5 7 5
0 1 13 24 16 23 24 85 100 97 94 100 100 95 99 100 100 100 100 99 100 93 82 85 100 99 99 50 5 45 62 100 70 100 64 5 6 5 5 5 5 5 5
71 92 73 38 2 15 11 0 38 58 27 59 100 94 82 93 100 100 100 100 100 100 100 100 79 100 92 84 61 30 95 97 82 100 100 5 5 5 12 5 5 12 38
100 95 94 41 57 99 52 7 0 2 99 94 97 49 14 42 75 100 100 100 100 100 100 100 100 100 100 100 100 100 100 100 100 100 100 100 84 10 91 76 5 83 100
84 0 18 97 99 46 100 86 30 4 0 28 100 100 78 99 100 89 100 100 100 100 100 100 100 100 100 100 100 100 100 100 100 100 100 100 98 86 60 54 89 49 85
0 0 40 99 100 100 94 100 84 47 31 0 100 97 99 65 77 100 100 100 100 100 100 100 100 100 100 100 100 100 100 100 100 100 100 100 100 100 79 88 98 100 36
0 0 0 52 99 100 100 100 100 100 100 92 48 100 68 100 21 60 99 100 100 100 100 100 100 100 100 100 100 100 100 100 100 100 100 100 100 100 100 100 100 100 100
0 20 0 0 45 61 100 100 100 100 100 100 100 98 48 53 100 18 61 100 100 100 100 100 100 100 100 100 100 100 100 100 100 100 100 100 100 100 100 100 100 100 100
89 100 56 68 8 28 100 100 100 100 100 100 100 94 99 100 100 100 59 100 64 98 100 100 100 100 100 100 100 100 100 100 100 100 100 100 100 100 100 100 100 100 100
28 7 5 5 12 87 100 100 100 100 100 100 100 100 100 9 10 43 99 100 100 98 89 100 100 100 100 100 100 100 100 100 100 100 100 100 100 100 100 100 100 100 97
5 5 1 5 5 20 22 100 100 100 100 100 100 100 100 100 90 11 24 98 100 100 100 100 100 100 100 100 100 100 100 100 100 100 100 100 100 100 100 100 100 96 70
0 0 0 5 5 5 37 58 100 100 100 100 100 95 100 74 68 83 98 99 100 100 100 100 100 100 100 100 100 100 100 100 100 100 100 100 100 100 100 100 100 100 100
0 0 0 0 2 6 96 99 89 100 100 100 100 100 98 32 5 28 74 63 100 100 100 100 100 100 100 100 100 100 100 100 100 98 100 100 99 99 100 100 100 100 100
0 0 0 0 0 0 1 30 97 99 93 100 100 100 94 79 76 82 100 98 100 100 100 100 100 100 100 100 100 84 31 98 100 99 62 100 100 100 94 100 100 100 100
0 0 0 0 0 0 0 0 6 100 98 96 100 100 100 100 100 100 100 100 100 100 100 100 100 100 100 100 99 88 82 4 27 100 95 100 100 100 100 100 100 100 100
1 5 5 1 0 0 0 0 0 0 79 56 99 100 100 100 100 100 100 100 100 100 100 100 100 100 100 96 84 12 32 52 67 10 14 29 80 70 100 100 100 100 100
5 5 5 2 5 1 0 2 0 2 5 4 31 73 97 97 100 100 100 100 100 100 100 100 100 100 100 100 100 100 100 97 37 58 30 6 5 7 100 98 100 100 100
2 3 4 0 0 0 2 5 5 2 4 0 0 0 2 4 6 36 91 100 100 100 100 100 100 100 100 100 37 93 93 84 51 27 12 60 45 52 83 82 100 100 100
4 0 0 0 0 0 2 5 5 5 0 0 0 0 0 0 0 4 12 26 5 5 12 44 100 100 100 100 100 85 100 89 39 91 6 36 35 84 42 56 64 100 100
27 5 4 1 5 0 2 4 7 5 3 5 5 0 0 0 0 1 5 4 51 100 77 8 66 98 100 100 100 96 100 26 75 22 99 59 7 58 5 6 99 100 100
81 29 5 5 5 3 4 5 5 5 5 5 2 0 1 2 5 5 5 5 5 5 23 85 98 23 66 58 100 100 95 98 99 82 34 69 18 5 8 85 20 5 100
55 100 85 56 5 5 5 5 13 5 5 2 1 1 5 5 5 5 14 5 5 5 5 5 50 100 100 77 92 100 100 80 98 82 5 57 76 22 96 100 89 100 100
99 92 100 35 5 5 5 5 6 5 5 5 5 5 5 5 4 26 5 5 5 5 5 5 31 34 39 98 100 93 7 53 60 100 76 19 31 5 41 100 49 27 100
45 70 99 100 17 5 5 6 5 5 5 5 5 5 5 5 58 85 100 82 34 5 5 11 44 7 44 96 100 90 93 65 85 47 100 15 71 16 10 8 24 100 100